[[{"header":{"parameterUnit":"m.s-1","parameterCategory":1,"la1":30.6,"la2":28.766,"lo1":-90.7593,"lo2":-88.6598,"dy":0.0162,"dx":0.0183,"nx":116,"ny":114,"refTime":"2023-08-24T12:00:00:Z","depth":0,"parameterNumber":2,"parameterNumberName":"U-component_of_WINDS"},"data":[0.0,0.0,0.0,0.0,0.0,0.0,0.0,0.0,0.0,0.0,0.0,0.0,0.0,0.0,0.0,0.0,0.0,0.0,0.0,0.0,0.0,0.0,0.0,0.0,0.0,0.0,0.0,0.0,0.0,0.0,0.0,0.0,0.0,0.0,0.0,0.0,0.0,0.0,0.0,0.0,0.0,0.0,0.0,0.0,0.0,0.0,0.0,0.0,0.0,0.0,0.0,0.0,0.0,0.0,0.0,0.0,0.0,0.0,0.0,0.0,0.0,0.0,0.0,0.0,0.0,0.0,0.0,0.0,0.0,0.0,0.0,0.0,0.0,0.0,0.0,0.0,0.0,0.0,0.0,0.0,0.0,0.0,0.0,0.0,0.0,0.0,0.0,0.0,0.0,0.0,0.0,0.0,0.0,0.0,0.0,0.0,0.0,0.0,0.0,0.0,0.0,0.0,0.0,0.0,0.0,0.0,0.0,0.0,0.0,0.0,0.0,0.0,0.0,0.0,0.0,0.0,0.0,0.0,0.0,0.0,0.0,0.0,0.0,0.0,0.0,0.0,0.0,0.0,0.0,0.0,0.0,0.0,0.0,0.0,0.0,0.0,0.0,0.0,0.0,0.0,0.0,0.0,0.0,0.0,0.0,0.0,0.0,0.0,0.0,0.0,0.0,0.0,0.0,0.0,0.0,0.0,0.0,0.0,0.0,0.0,0.0,0.0,0.0,0.0,0.0,0.0,0.0,0.0,0.0,0.0,0.0,0.0,0.0,0.0,0.0,0.0,0.0,0.0,0.0,0.0,0.0,0.0,0.0,0.0,0.0,0.0,0.0,0.0,0.0,0.0,0.0,0.0,0.0,0.0,0.0,0.0,0.0,0.0,0.0,0.0,0.0,0.0,0.0,0.0,0.0,0.0,0.0,0.0,0.0,0.0,0.0,0.0,0.0,0.0,0.0,0.0,0.0,0.0,0.0,0.0,0.0,0.0,0.0,0.0,0.0,0.0,0.0,0.0,0.0,0.0,0.0,0.0,0.0,0.0,0.0,0.0,0.0,0.0,0.0,0.0,0.0,0.0,0.0,0.0,0.0,0.0,0.0,0.0,0.0,0.0,0.0,0.0,0.0,0.0,0.0,0.0,0.0,0.0,0.0,0.0,0.0,0.0,0.0,0.0,0.0,0.0,0.0,0.0,0.0,0.0,0.0,0.0,0.0,0.0,0.0,0.0,0.0,0.0,0.0,0.0,0.0,0.0,0.0,0.0,0.0,0.0,0.0,0.0,0.0,0.0,0.0,0.0,0.0,0.0,0.0,0.0,0.0,0.0,0.0,0.0,0.0,0.0,0.0,0.0,0.0,0.0,0.0,0.0,0.0,0.0,0.0,0.0,0.0,0.0,0.0,0.0,0.0,0.0,0.0,0.0,0.0,0.0,0.0,0.0,0.0,0.0,0.0,0.0,0.0,0.0,0.0,0.0,0.0,0.0,0.0,0.0,0.0,0.0,0.0,0.0,0.0,0.0,0.0,0.0,0.0,0.0,0.0,0.0,0.0,0.0,0.0,0.0,0.0,0.0,0.0,0.0,0.0,0.0,0.0,0.0,0.0,0.0,0.0,0.0,0.0,0.0,0.0,0.0,0.0,0.0,0.0,0.0,0.0,0.0,0.0,0.0,0.0,0.0,0.0,0.0,0.0,0.0,0.0,0.0,0.0,0.0,0.0,0.0,0.0,0.0,0.0,0.0,0.0,0.0,0.0,0.0,0.0,0.0,0.0,0.0,0.0,0.0,0.0,0.0,0.0,0.0,0.0,0.0,0.0,0.0,0.0,0.0,0.0,0.0,0.0,0.0,0.0,0.0,0.0,0.0,0.0,0.0,0.0,0.0,0.0,0.0,0.0,0.0,0.0,0.0,0.0,0.0,0.0,0.0,0.0,0.0,0.0,0.0,0.0,0.0,0.0,0.0,0.0,0.0,0.0,0.0,0.0,0.0,0.0,0.0,0.0,0.0,0.0,0.0,0.0,0.0,0.0,0.0,0.0,0.0,0.0,0.0,0.0,0.0,0.0,0.0,0.0,0.0,0.0,0.0,0.0,0.0,0.0,0.0,0.0,0.0,0.0,0.0,0.0,0.0,0.0,0.0,0.0,0.0,0.0,0.0,0.0,0.0,0.0,0.0,0.0,0.0,0.0,0.0,0.0,0.0,0.0,0.0,0.0,0.0,0.0,0.0,0.0,0.0,0.0,0.0,0.0,0.0,0.0,0.0,0.0,0.0,0.0,0.0,0.0,0.0,0.0,0.0,0.0,0.0,0.0,0.0,0.0,0.0,0.0,0.0,0.0,0.0,0.0,0.0,0.0,0.0,0.0,0.0,0.0,0.0,0.0,0.0,0.0,0.0,0.0,0.0,0.0,0.0,0.0,0.0,0.0,0.0,0.0,0.0,0.0,0.0,0.0,0.0,0.0,0.0,0.0,0.0,0.0,0.0,0.0,0.0,0.0,0.0,0.0,0.0,0.0,0.0,0.0,0.0,0.0,0.0,0.0,0.0,0.0,0.0,0.0,0.0,0.0,0.0,0.0,0.0,0.0,0.0,0.0,0.0,0.0,0.0,0.0,0.0,0.0,0.0,0.0,0.0,0.0,0.0,0.0,0.0,0.0,0.0,0.0,0.0,0.0,0.0,0.0,0.0,0.0,0.0,0.0,0.0,0.0,0.0,0.0,0.0,0.0,0.0,0.0,0.0,0.0,0.0,0.0,0.0,0.0,0.0,0.0,0.0,0.0,0.0,0.0,0.0,0.0,0.0,0.0,0.0,0.0,0.0,0.0,0.0,0.0,0.0,0.0,0.0,0.0,0.0,0.0,0.0,0.0,0.0,0.0,0.0,0.0,0.0,0.0,0.0,0.0,0.0,0.0,0.0,0.0,0.0,0.0,0.0,0.0,0.0,0.0,0.0,0.0,0.0,0.0,0.0,0.0,0.0,0.0,0.0,0.0,0.0,0.0,0.0,0.0,0.0,0.0,0.0,0.0,0.0,0.0,0.0,0.0,0.0,0.0,0.0,0.0,0.0,0.0,0.0,0.0,0.0,0.0,0.0,0.0,0.0,0.0,0.0,0.0,0.0,0.0,0.0,0.0,0.0,0.0,0.0,0.0,0.0,0.0,0.0,0.0,0.0,0.0,0.0,0.0,0.0,0.0,0.0,0.0,0.0,0.0,0.0,0.0,0.0,0.0,0.0,0.0,0.0,0.0,0.0,0.0,0.0,0.0,0.0,0.0,0.0,0.0,0.0,0.0,0.0,0.0,0.0,0.0,0.0,0.0,0.0,0.0,0.0,0.0,0.0,0.0,0.0,0.0,0.0,0.0,0.0,0.0,0.0,0.0,0.0,0.0,0.0,0.0,0.0,0.0,0.0,0.0,0.0,0.0,0.0,0.0,0.0,0.0,0.0,0.0,0.0,0.0,0.0,0.0,0.0,0.0,0.0,0.0,0.0,0.0,0.0,0.0,0.0,0.0,0.0,0.0,0.0,0.0,0.0,0.0,0.0,0.0,0.0,0.0,0.0,0.0,0.0,0.0,0.0,0.0,0.0,0.0,0.0,0.0,0.0,0.0,0.0,0.0,0.0,0.0,0.0,0.0,0.0,0.0,0.0,0.0,0.0,0.0,0.0,0.0,0.0,0.0,0.0,0.0,0.0,0.0,0.0,0.0,0.0,0.0,0.0,0.0,0.0,0.0,0.0,0.0,0.0,0.0,0.0,0.0,0.0,0.0,0.0,0.0,0.0,0.0,0.0,0.0,0.0,0.0,0.0,0.0,0.0,0.0,0.0,0.0,0.0,0.0,0.0,0.0,0.0,0.0,0.0,0.0,0.0,0.0,0.0,0.0,0.0,0.0,0.0,0.0,0.0,0.0,0.0,0.0,0.0,0.0,0.0,0.0,0.0,0.0,0.0,0.0,0.0,0.0,0.0,0.0,0.0,0.0,0.0,0.0,0.0,0.0,0.0,0.0,0.0,0.0,0.0,0.0,0.0,0.0,0.0,0.0,0.0,0.0,0.0,0.0,0.0,0.0,0.0,0.0,0.0,0.0,0.0,0.0,0.0,0.0,0.0,0.0,0.0,0.0,0.0,0.0,0.0,0.0,0.0,0.0,0.0,0.0,0.0,0.0,0.0,0.0,0.0,0.0,0.0,0.0,0.0,0.0,0.0,0.0,0.0,0.0,0.0,0.0,0.0,0.0,0.0,0.0,0.0,0.0,0.0,0.0,0.0,0.0,0.0,0.0,0.0,0.0,0.0,0.0,0.0,0.0,0.0,0.0,0.0,0.0,0.0,0.0,0.0,0.0,0.0,0.0,0.0,0.0,0.0,0.0,0.0,0.0,0.0,0.0,0.0,0.0,0.0,0.0,0.0,0.0,0.0,0.0,0.0,0.0,0.0,0.0,0.0,0.0,0.0,0.0,0.0,0.0,0.0,0.0,0.0,0.0,0.0,0.0,0.0,0.0,0.0,0.0,0.0,0.0,0.0,0.0,0.0,0.0,0.0,0.0,0.0,0.0,0.0,0.0,0.0,0.0,0.0,0.0,0.0,0.0,0.0,0.0,0.0,0.0,0.0,0.0,0.0,0.0,0.0,0.0,0.0,0.0,0.0,0.0,0.0,0.0,0.0,0.0,0.0,0.0,0.0,0.0,0.0,0.0,0.0,0.0,0.0,0.0,0.0,0.0,0.0,0.0,0.0,0.0,0.0,0.0,0.0,0.0,0.0,0.0,0.0,0.0,0.0,0.0,0.0,0.0,0.0,0.0,0.0,0.0,0.0,0.0,0.0,0.0,0.0,0.0,0.0,0.0,0.0,0.0,0.0,0.0,0.0,0.0,0.0,0.0,0.0,0.0,0.0,0.0,0.0,0.0,0.0,0.0,0.0,0.0,0.0,0.0,0.0,0.0,0.0,0.0,0.0,0.0,0.0,0.0,0.0,0.0,0.0,0.0,0.0,0.0,0.0,0.0,0.0,0.0,0.0,0.0,0.0,0.0,0.0,0.0,0.0,0.0,0.0,0.0,0.0,0.0,0.0,0.0,0.0,0.0,0.0,0.0,0.0,0.0,0.0,0.0,0.0,0.0,0.0,0.0,0.0,0.0,0.0,0.0,0.0,0.0,0.0,0.0,0.0,0.0,0.0,0.0,0.0,0.0,0.0,0.0,0.0,0.0,0.0,0.0,0.0,0.0,0.0,0.0,0.0,0.0,0.0,0.0,0.0,0.0,0.0,0.0,0.0,0.0,0.0,0.0,0.0,0.0,0.0,0.0,0.0,0.0,0.0,0.0,0.0,0.0,0.0,0.0,0.0,0.0,0.0,0.0,0.0,0.0,0.0,0.0,0.0,0.0,0.0,0.0,0.0,0.0,0.0,0.0,0.0,0.0,0.0,0.0,0.0,0.0,0.0,0.0,0.0,0.0,0.0,0.0,0.0,0.0,0.0,0.0,0.0,0.0,0.0,0.0,0.0,0.0,0.0,0.0,0.0,0.0,0.0,0.0,0.0,0.0,0.0,0.0,0.0,0.0,0.0,0.0,0.0,0.0,0.0,0.0,0.0,0.0,0.0,0.0,0.0,0.0,0.0,0.0,0.0,0.0,0.0,0.0,0.0,0.0,0.0,0.0,0.0,0.0,0.0,0.0,0.0,0.0,0.0,0.0,0.0,0.0,0.0,0.0,0.0,0.0,0.0,0.0,0.0,0.0,0.0,0.0,0.0,0.0,0.0,0.0,0.0,0.0,0.0,0.0,0.0,0.0,0.0,0.0,0.0,0.0,0.0,0.0,0.0,0.0,0.0,0.0,0.0,0.0,0.0,0.0,0.0,0.0,0.0,0.0,0.0,0.0,0.0,0.0,0.0,0.0,0.0,0.0,0.0,0.0,0.0,0.0,0.0,0.0,0.0,0.0,0.0,0.0,0.0,0.0,0.0,0.0,0.0,0.0,0.0,0.0,0.0,0.0,0.0,0.0,0.0,0.0,0.0,0.0,0.0,0.0,0.0,0.0,0.0,0.0,0.0,0.0,0.0,0.0,0.0,0.0,0.0,0.0,0.0,0.0,0.0,0.0,0.0,0.2596,0.0,0.0,0.0,0.0,0.0,0.0,0.0,0.0,0.0,0.0,0.0,0.0,0.0,0.0,0.0,0.0,0.0,0.0,0.0,0.0,0.0,0.0,0.0,0.0,0.0,0.0,0.0,0.0,0.0,0.0,0.0,0.0,0.0,0.0,0.0,0.0,0.0,0.0,0.0,2.6104,2.5894,2.5414,2.4775,2.4432,2.422,0.0,0.0,0.0,0.0,0.0,0.0,0.0,0.0,0.0,0.0,0.0,0.0,0.0,0.0,0.0,0.0,0.0,0.0,0.0,0.0,0.0,0.0,0.0,0.0,0.0,0.0,0.0,0.0,0.0,0.0,0.0,0.0,0.0,0.0,0.0,0.0,0.0,0.0,0.0,0.0,0.0,0.0,0.0,0.0,0.0,0.0,0.0,0.0,0.0,0.0,0.0,0.0,0.0,0.0,0.0,0.0,0.0,0.0,0.0,0.0,0.0,0.0,0.0,0.0,0.0,0.0,0.0,0.0,0.0,0.0,0.0,-0.0341,0.0,0.0,0.0,0.0,0.0,0.0,0.0,0.0,0.0,0.0,0.0,0.0,0.0,0.0,0.0,0.0,0.0,0.0,0.0,0.0,0.0,0.0,0.0,0.0,0.0,0.0,0.0,0.0,0.0,0.0,0.0,0.0,0.0,0.0,0.0,2.6973,2.6622,2.6153,2.5901,2.5516,2.4926,2.4668,2.449,2.4323,2.3956,0.0,0.0,0.0,0.0,0.0,0.0,0.0,0.0,0.0,0.0,0.0,0.0,0.0,0.0,0.0,0.0,0.0,0.0,0.0,0.0,0.0,0.0,0.0,0.0,0.0,0.0,0.0,0.0,0.0,0.0,0.0,0.0,0.0,0.0,0.0,0.0,0.0,0.0,0.0,0.0,0.0,0.0,0.0,0.0,0.0,0.0,0.0,0.0,0.0,0.0,0.0,0.0,0.0,0.0,0.0,0.0,0.0,0.0,0.0,0.0,0.0,0.0,0.0,-0.4654,-0.5453,-0.6172,-0.7803,-0.816,-0.7392,-0.5215,-0.4406,-0.4586,-0.449,0.0,0.0,0.0,0.0,0.0,0.0,0.0,0.0,0.0,0.0,0.0,0.0,0.0,0.0,0.0,0.0,0.0,0.0,0.0,0.0,0.0,0.0,0.0,0.0,0.0,0.0,0.0,0.0,0.0,0.0,0.0,0.0,0.0,2.7009,2.6853,2.6452,2.6287,2.6054,2.5748,2.5314,2.4778,2.412,2.383,2.3362,2.272,0.0,0.0,0.0,0.0,0.0,0.0,0.0,0.0,0.0,0.0,0.0,0.0,0.0,0.0,0.0,0.0,0.0,0.0,0.0,0.0,0.0,0.0,0.0,0.0,0.0,0.0,0.0,0.0,0.0,0.0,0.0,0.0,0.0,0.0,0.0,0.0,0.0,0.0,0.0,0.0,0.0,1.376,1.2823,0.0,0.0,0.0,0.0,0.0,0.0,0.0,0.0,0.0,0.0,0.0,0.0,0.0,-0.3002,-0.3781,-0.6172,-0.7298,-0.7104,-0.771,-0.8468,-0.9309,-1.0046,-1.0483,-1.0704,-1.0686,0.0,-0.7579,-0.7836,0.0,0.0,0.0,0.0,0.0,0.0,0.0,0.0,0.0,0.0,0.0,0.0,0.0,0.0,0.0,0.0,0.0,0.0,0.0,0.0,0.0,0.0,0.0,0.0,0.0,0.0,0.0,0.0,0.0,0.0,0.0,2.7079,2.6948,2.6885,2.6589,2.6159,2.5941,2.5577,2.509,2.4808,2.4403,2.3809,2.3507,2.2999,2.2417,2.2058,0.0,0.0,0.0,0.0,0.0,0.0,0.0,0.0,0.0,0.0,0.0,0.0,0.0,0.0,0.0,0.0,0.0,0.0,0.0,0.0,0.0,0.0,0.0,0.0,0.0,0.0,0.0,0.0,0.0,0.0,0.0,0.0,0.0,0.0,0.0,0.0,0.0,0.0,0.0,1.3113,1.2135,1.112,1.0112,0.9389,0.0,0.0,0.0,0.0,0.0,0.0,0.0,0.0,0.0,-0.3245,-0.4894,-0.6154,-0.7136,-0.8932,-0.9983,-1.0416,-1.0867,-1.1544,-1.2231,-1.2649,-1.3085,-1.3317,-1.3822,-1.3413,-1.2263,-1.1217,-1.1032,-1.1514,0.0,0.0,0.0,0.0,-1.2431,-1.2656,0.0,0.0,0.0,0.0,0.0,0.0,0.0,0.0,0.0,0.0,0.0,0.0,0.0,0.0,0.0,2.7244,0.0,0.0,0.0,0.0,0.0,0.0,0.0,2.6647,2.681,2.6482,2.6148,2.577,2.5425,2.4908,2.435,2.4118,2.3767,2.3318,2.298,2.2548,2.2133,2.1639,2.1186,2.0775,0.0,0.0,0.0,0.0,0.0,0.0,0.0,0.0,0.0,0.0,0.0,0.0,0.0,0.0,0.0,0.0,0.0,0.0,0.0,0.0,0.0,0.0,0.0,0.0,0.0,0.0,0.0,0.0,0.0,0.0,0.0,0.0,0.0,0.0,0.0,0.0,0.0,1.1225,1.0335,0.9186,0.7979,0.7093,0.0,0.0,0.0,0.0,0.0,0.0,-0.3189,-0.4114,-0.5098,-0.6013,-0.7595,-0.8917,-1.0099,-1.1203,-1.229,-1.3245,-1.375,-1.4196,-1.4712,-1.5201,-1.5483,-1.5632,-1.6053,-1.6341,-1.6175,-1.4283,-1.3692,-1.4025,-1.391,-1.4009,-1.4187,-1.4438,-1.4744,-1.4955,0.0,0.0,0.0,0.0,0.0,0.0,0.0,0.0,0.0,0.0,0.0,0.0,0.0,0.0,2.7582,2.7244,2.6925,2.6623,0.0,0.0,2.5934,2.6261,2.589,2.5775,2.6047,2.5672,2.5473,2.5412,2.5048,2.4492,2.3852,2.3365,2.3005,2.2641,2.2199,2.2007,2.2014,2.1814,2.1166,2.0219,2.0195,0.0,0.0,0.0,0.0,0.0,0.0,0.0,0.0,0.0,0.0,0.0,0.0,0.0,0.0,0.0,0.0,0.0,0.0,0.0,0.0,0.0,0.0,0.0,0.0,0.0,0.0,0.0,0.0,0.0,0.0,0.0,0.0,0.0,0.0,0.0,0.0,0.0,0.0,0.671,0.546,0.0,0.0,0.0,0.0,-0.1793,-0.3055,-0.4985,-0.7606,-0.7428,-0.7787,-0.8948,-0.9925,-1.1069,-1.2311,-1.334,-1.4305,-1.5263,-1.5974,-1.641,-1.6697,-1.7248,-1.7522,-1.759,-1.7813,-1.7969,-1.7959,-1.6627,-1.6262,-1.6392,-1.6444,-1.6513,-1.6684,-1.6635,-1.6628,-1.6703,0.0,0.0,0.0,0.0,0.0,0.0,0.0,0.0,0.0,0.0,0.0,0.0,0.0,2.7836,2.7582,2.7244,2.6891,2.6572,2.6241,0.0,2.5567,2.5425,2.4906,2.4576,2.437,2.4355,2.4304,2.4229,2.3864,2.3489,2.3198,2.2836,2.2408,2.2025,2.1463,2.1232,2.1098,2.1065,2.0783,2.0276,1.9606,1.923,0.0,0.0,0.0,0.0,0.0,0.0,0.0,0.0,0.0,0.0,0.0,0.0,0.0,0.0,0.0,0.0,0.0,0.0,0.0,0.0,0.0,0.0,0.0,0.0,0.0,0.0,0.0,0.0,0.0,0.0,0.0,0.0,0.0,0.0,0.0,0.0,0.0,0.4508,0.3033,0.0,-0.0133,-0.1594,-0.3319,-0.5588,-0.6163,-0.7136,-0.8918,-0.947,-1.014,-1.1085,-1.2271,-1.3283,-1.4085,-1.5423,-1.6352,-1.6968,-1.7726,-1.821,-1.8412,-1.8824,-1.9034,-1.8911,-1.9243,-1.9309,-1.9264,-1.889,-1.8412,-1.7813,-1.7813,-1.7959,-1.8162,-1.8272,-1.8334,-1.8395,0.0,0.0,0.0,0.0,0.0,0.0,0.0,0.0,0.0,0.0,0.0,2.8353,2.8126,2.7864,2.7582,2.7244,2.6891,2.6572,2.6241,0.0,2.5432,2.5005,2.4271,2.3762,2.3531,2.342,2.3357,2.335,2.2867,2.2509,2.229,2.1995,2.1651,2.1218,2.0812,2.0571,2.0409,2.0214,2.0115,1.9975,1.9321,1.8847,1.8509,0.0,0.0,0.0,0.0,0.0,0.0,0.0,0.0,0.0,0.0,0.0,0.0,0.0,0.0,0.0,0.0,0.0,0.0,0.0,0.0,0.0,0.0,0.0,0.0,0.0,0.0,0.0,0.0,0.0,0.0,0.0,0.0,0.0,0.0,0.5168,0.3779,0.2196,0.0532,-0.1063,-0.2727,-0.4114,-0.5898,-0.8112,-0.8581,-0.9319,-1.0474,-1.141,-1.2273,-1.3072,-1.4109,-1.4995,-1.5712,-1.6832,-1.7643,-1.8123,-1.8818,-1.9254,-1.9598,-1.9867,-2.0029,-2.0129,-2.0366,-2.0442,-2.0324,-2.0431,-2.0031,-1.9365,-1.9166,-1.911,-1.9264,-1.9462,-1.9594,-1.9672,0.0,0.0,0.0,0.0,0.0,0.0,0.0,0.0,0.0,0.0,2.8587,2.8406,2.8126,2.7864,2.7582,2.7244,2.6891,2.6572,2.6241,2.5824,2.541,2.5005,2.3979,2.3406,2.344,2.2923,2.2715,2.2751,2.2226,2.1635,2.1087,2.0914,2.0682,2.035,2.0123,2.0074,2.0009,1.9528,1.935,1.9378,1.9356,1.879,1.7904,0.0,0.0,0.0,0.0,0.0,0.0,0.0,0.0,0.0,0.0,0.0,0.0,0.0,0.0,0.0,0.0,0.0,0.0,0.0,0.0,0.0,0.0,0.0,0.0,0.0,0.0,0.0,0.0,0.0,0.0,0.0,0.0,0.0,0.4127,0.2795,0.1266,-0.02,-0.193,-0.3524,-0.4982,-0.6555,-0.7986,-0.9203,-1.0412,-1.1487,-1.2504,-1.3347,-1.4127,-1.4904,-1.5429,-1.6171,-1.7221,-1.7595,-1.8126,-1.8835,-1.9157,-1.9607,-2.0132,-2.0316,-2.0715,-2.1175,-2.1175,-2.1175,-2.1175,-2.1198,-2.1198,-2.1135,-2.042,-2.0096,-2.0172,-2.0324,-2.041,-2.0475,0.0,0.0,0.0,0.0,0.0,0.0,0.0,0.0,0.0,0.0,2.8644,2.8414,2.8191,2.7876,2.7582,2.7244,2.6891,2.6572,2.6241,0.0,2.5224,2.4369,2.3696,2.3126,2.2719,2.209,2.1803,2.1852,2.1243,2.0902,2.0746,2.0323,1.992,1.9392,1.9386,1.9222,1.8847,1.893,1.887,1.8726,1.8666,1.8522,1.8218,0.0,0.0,0.0,0.0,0.0,0.0,0.0,0.0,0.0,0.0,0.0,0.0,0.0,0.0,0.0,0.0,0.0,0.0,0.0,0.0,0.0,0.0,0.0,0.0,0.0,0.0,0.0,0.0,0.0,0.0,0.0,0.2457,0.1671,0.2068,0.0667,-0.0999,-0.2465,-0.4056,-0.5639,-0.6945,-0.8436,-0.9787,-1.0996,-1.2043,-1.302,-1.4067,-1.4718,-1.5429,-1.6244,-1.681,-1.7379,-1.7857,-1.8622,-1.9101,-1.9297,-1.9866,-2.024,-2.0382,-2.0628,-2.0711,-2.0712,-2.0712,-2.0665,-2.0582,-2.0885,-2.0976,-2.095,-2.0744,-2.07,-2.07,-2.0711,-2.0839,-2.0921,0.0,0.0,0.0,0.0,0.0,0.0,0.0,0.0,0.0,0.0,2.8718,2.8492,2.83,2.8007,2.7689,2.7355,2.7006,2.6674,2.6295,0.0,2.5013,2.4204,2.3653,2.3083,2.2509,2.1841,2.139,2.1235,2.059,2.013,1.9913,1.9631,1.9216,1.8759,1.87,1.8542,1.8312,1.8404,1.8344,1.8278,1.8263,1.8198,1.8104,1.7573,1.7308,1.7133,1.6798,1.6806,1.6995,1.686,0.0,0.0,0.0,0.0,0.0,0.0,0.0,0.0,0.0,0.0,0.0,0.0,0.0,0.0,0.0,0.0,0.0,0.0,0.0,0.0,0.0,0.0,0.0,0.0,0.087,-0.0268,-0.0733,-0.1733,-0.3,-0.4392,-0.604,-0.7543,-0.8832,-1.0173,-1.1432,-1.2626,-1.3588,-1.4483,-1.5429,-1.6073,-1.6708,-1.739,-1.7831,-1.8213,-1.859,-1.9114,-1.9377,-1.9444,-1.9879,-2.0145,-2.0362,-2.0475,-2.0596,-2.0701,-2.0644,-2.0586,-2.0507,-2.0688,-2.0748,0.0,0.0,0.0,0.0,0.0,-2.0659,-2.0504,0.0,0.0,0.0,0.0,0.0,0.0,0.0,0.0,0.0,0.0,0.0,2.8619,2.8406,2.8182,2.7882,2.7526,2.7215,2.6825,0.0,2.5572,2.491,2.4343,2.3767,2.3201,2.2646,2.1983,2.1361,2.0809,2.0156,1.9552,1.9052,1.8931,1.8691,1.8304,1.8192,1.8116,1.8086,1.8004,1.7906,1.7946,1.8044,1.7984,1.7911,1.7861,1.759,1.7179,1.6911,1.6929,1.6987,1.6696,0.0,0.0,0.0,0.0,0.0,0.0,0.0,0.0,0.0,0.0,0.0,0.0,0.0,0.0,0.0,0.0,0.0,0.0,0.0,0.0,0.0,0.0,0.0,0.0,-0.0469,-0.2074,-0.3735,-0.4262,-0.4926,-0.6187,-0.7747,-0.9221,-1.053,-1.1712,-1.2857,-1.3901,-1.4849,-1.5666,-1.6392,-1.7015,0.0,0.0,0.0,-1.8701,-1.9056,-1.9117,-1.9258,-1.9386,-1.9448,-1.9666,-2.0133,-2.0133,-2.0391,-2.0846,-2.0689,-2.0645,-2.0588,-2.049,-2.0435,-2.0392,-2.1,-2.1225,-2.1116,-2.0554,-2.0056,-1.9688,0.0,0.0,0.0,0.0,0.0,0.0,0.0,0.0,0.0,2.9089,2.8905,2.8687,2.845,2.8209,2.7957,2.7617,2.7324,2.6858,2.6118,2.5584,2.5045,2.4549,2.4036,2.3436,2.2844,2.2263,2.1616,2.0983,2.0385,1.9875,1.9316,1.8881,1.8386,1.7812,1.7901,1.7696,1.7282,1.7998,1.8165,1.7946,1.8245,1.823,1.7919,1.7642,1.752,1.7491,1.7126,1.7039,1.7092,1.6638,1.6546,1.6495,1.6199,1.6087,0.0,0.0,0.0,0.0,0.0,0.0,0.0,0.0,0.0,0.0,0.0,0.0,0.0,0.0,0.0,0.0,0.0,0.0,0.0,-0.0402,-0.1872,-0.3471,-0.5203,-0.6515,-0.7423,-0.7941,-0.9169,-1.0358,-1.1278,-1.2335,-1.3208,-1.3773,-1.4582,-1.5225,-1.5816,-1.6376,-1.6899,-1.7388,-1.7774,-1.8056,-1.8251,-1.8747,-1.9021,-1.9083,0.0,0.0,-1.9858,-1.9858,-1.9868,-1.9874,-1.9728,-1.958,-1.9509,-1.9725,-1.9873,-2.003,-2.0122,-2.0132,-2.0024,-1.9861,-1.9769,-1.9631,0.0,0.0,0.0,0.0,0.0,0.0,0.0,0.0,0.0,0.0,2.9026,2.881,2.8612,2.838,2.8109,2.7824,2.7355,2.6842,2.6243,2.5754,2.5301,2.4855,2.4328,2.3782,2.3143,2.2572,2.1921,2.1277,2.0673,2.0118,1.9617,1.904,1.8506,1.7975,1.7846,1.769,1.7552,1.808,1.8322,1.8325,1.8568,1.8549,1.8385,1.7974,1.7952,1.7949,1.7511,1.7416,1.7547,1.7051,1.6749,1.6577,1.6306,1.6036,1.5798,0.0,0.0,0.0,0.0,0.0,0.0,0.0,0.0,0.0,0.0,0.0,0.0,0.0,0.0,0.4815,0.3754,0.0,0.0268,-0.1341,-0.2811,-0.4342,-0.6063,-0.7347,-0.8301,-0.8794,-0.9985,-1.1037,-1.1765,-1.2759,-1.3635,-1.4291,-1.5008,-1.5628,-1.6199,-1.67,-1.7107,-1.7472,-1.775,-1.7941,-1.8097,-1.8419,-1.8618,-1.8618,-1.8882,-1.8945,-1.8896,-1.9171,-1.9257,-1.9078,-1.9193,-1.9158,-1.9076,-1.8908,-1.889,-1.8896,-1.8851,-1.8954,-1.9182,-1.9124,-1.8907,-1.8657,0.0,0.0,0.0,0.0,0.0,0.0,0.0,0.0,0.0,0.0,2.916,2.8994,2.8834,2.8612,2.8327,0.0,2.7417,2.6875,2.6521,2.6049,2.561,2.5208,2.4695,2.4162,2.3537,2.295,2.2328,2.1746,2.1055,2.0459,1.9952,1.9396,1.8922,1.8441,1.8176,1.8059,1.8162,1.8447,1.8676,1.8828,1.8965,1.9008,1.9008,1.8607,1.8482,1.8432,1.7939,1.7941,1.8066,1.7503,1.7173,1.6961,1.6558,1.6138,1.5781,1.5449,1.5254,0.0,0.0,0.0,0.0,0.0,0.0,0.0,0.0,0.8689,0.7587,0.6465,0.5147,0.3751,0.2213,0.0805,-0.0604,-0.2213,-0.3549,-0.5001,-0.6542,-0.7739,-0.8644,-0.9263,-1.0436,-1.1468,-1.2138,-1.3014,-1.3893,-1.4666,-1.5308,-1.5908,-1.646,-1.6859,-1.7206,-1.7443,-1.7572,-1.7725,-1.7784,-1.7897,-1.7947,-1.7947,-1.8059,-1.8049,-1.7954,-1.84,-1.8499,-1.8386,-1.8506,-1.8589,-1.8631,-1.8097,-1.7884,-1.7799,-1.7645,-1.7891,-1.8362,-1.8294,-1.8047,-1.7656,0.0,0.0,0.0,0.0,0.0,0.0,0.0,0.0,0.0,0.0,0.0,0.0,0.0,0.0,0.0,2.8042,2.7535,2.7115,2.6774,2.6315,2.5888,2.5567,2.5075,2.4583,2.4021,2.345,2.2815,2.2235,2.1589,2.1019,2.051,1.9952,1.9488,1.9093,1.9195,1.8997,1.8645,1.9414,1.9581,1.9356,1.9663,1.9802,1.9736,1.9341,1.8885,1.8472,1.8422,1.8402,1.8409,1.7946,1.7819,1.7584,1.6616,1.6277,1.6108,1.5439,1.5156,1.4911,1.4369,1.3459,1.2482,1.1615,1.0863,1.004,0.0,0.8102,0.7195,0.5818,0.4625,0.3353,0.1743,0.0403,-0.1141,-0.3355,-0.4417,-0.5487,-0.689,-0.8151,-0.9118,-0.9652,-1.0729,-1.1678,-1.2466,-1.3101,-1.36,-1.4058,-1.4501,-1.4968,-1.5429,-1.5759,-1.5972,-1.6171,-1.6328,-1.6429,-1.6416,-1.6897,-1.7143,-1.7143,-1.7624,-1.781,-1.7726,-1.7775,-1.7654,-1.741,-1.7234,-1.7264,-1.7379,-1.7209,-1.7297,-1.7523,-1.7179,-1.7099,-1.721,-1.749,-1.7568,-1.7479,0.0,0.0,0.0,0.0,0.0,0.0,0.0,0.0,0.0,0.0,0.0,0.0,0.0,0.0,0.0,2.8164,2.776,2.7382,2.7036,2.6674,2.6297,2.5905,2.5535,2.5036,2.4533,2.4006,2.345,2.2815,2.2282,2.1779,2.1313,2.1114,2.0759,2.0313,2.0551,2.052,2.0311,2.0496,2.06,2.0574,2.0482,2.0506,2.0453,2.0053,1.9781,1.9518,1.9142,1.9019,0.0,1.8781,1.8479,1.8076,1.7255,1.6759,1.6337,1.5547,1.5205,1.4911,1.4061,1.3147,1.2359,1.1622,1.0793,0.9837,0.8865,0.7837,0.6798,0.5488,0.4287,0.3017,0.1477,0.0067,-0.1411,-0.3218,-0.4355,-0.5513,-0.6912,-0.7838,-0.8737,-0.9687,-1.0424,-1.119,-1.2088,-1.2757,-1.337,-1.3831,-1.4337,-1.48,-1.5165,-1.5525,-1.576,-1.5836,-1.6001,-1.6057,-1.5969,-1.6276,-1.6386,-1.6308,-1.6539,-1.6544,-1.6405,-1.6763,-1.6835,-1.6723,-1.6512,-1.6333,-1.6184,-1.6131,-1.6135,-1.6085,-1.5924,-1.587,-1.5879,-1.6706,-1.6965,-1.6922,0.0,0.0,0.0,0.0,0.0,0.0,0.0,0.0,0.0,0.0,0.0,0.0,0.0,0.0,2.8576,2.8335,2.8017,2.7683,2.74,2.7036,2.6691,2.6333,2.6013,2.5589,2.5075,2.4639,2.4105,2.3493,2.317,2.2769,2.2342,2.2415,2.219,2.1786,2.1995,2.2021,2.1817,2.1727,2.1704,2.1765,2.1388,2.1262,2.1198,2.0869,2.0741,2.0613,1.9791,1.9594,1.9726,1.9605,1.9175,1.8657,1.7958,1.7359,1.6739,1.5801,1.5303,1.4843,1.3881,1.3094,1.2428,1.1747,1.0793,0.9837,0.8865,0.7767,0.6601,0.5348,0.4084,0.2748,0.1344,-0.0134,-0.1541,-0.2854,-0.4162,-0.535,-0.6625,-0.7412,-0.8293,-0.9425,-1.0023,-1.0651,-1.1619,-1.2452,-1.3122,-1.3716,-1.4114,-1.4496,-1.4767,-1.4996,-1.5101,-1.5156,-1.5305,-1.5305,-1.5231,-1.5449,-1.5509,-1.5389,-1.5487,-1.5468,-1.53,-1.558,-1.57,-1.567,-1.5499,-1.5286,-1.512,-1.5007,-1.4925,-1.4872,-1.4819,-1.4704,-1.4669,-1.5501,-1.5858,-1.5918,0.0,0.0,0.0,0.0,0.0,0.0,0.0,0.0,0.0,0.0,0.0,0.0,0.0,0.0,2.8815,2.8619,2.8335,2.8063,2.7789,2.7457,2.7161,2.6888,2.6556,2.6191,2.5779,2.5307,2.4815,2.4261,2.4312,2.4114,2.363,2.3787,2.3677,2.3447,2.3378,2.3201,2.2928,2.3014,2.2955,2.2798,2.2298,2.2039,2.2051,2.1678,2.1553,2.1428,2.042,2.0107,2.0096,2.0107,1.9977,1.9684,1.855,1.8006,1.7512,1.6252,1.5352,1.4597,1.413,1.3407,1.2552,1.174,1.0863,0.9977,0.8748,0.7847,0.6806,0.5418,0.4084,0.2748,0.1344,-0.0134,-0.1465,-0.2654,-0.3916,-0.5082,-0.5906,-0.6934,-0.7956,-0.8917,-0.9607,-1.0379,-1.1217,-1.2116,-1.29,-1.3573,-1.3538,-1.3696,-1.4026,-1.3746,-1.362,-1.3755,-1.3755,-1.3755,-1.3755,-1.4217,-1.4448,-1.4459,-1.4766,-1.4869,-1.4708,-1.4373,-1.4172,-1.4063,-1.3805,-1.3862,-1.4114,-1.3851,-1.3947,-1.4218,-1.4058,-1.3941,-1.3844,-1.373,-1.4009,-1.4427,0.0,0.0,0.0,0.0,0.0,0.0,0.0,0.0,0.0,0.0,0.0,0.0,0.0,0.0,0.0,0.0,2.8669,2.8414,2.8146,2.7858,2.756,2.7255,2.6905,2.6556,2.6191,2.5795,2.5571,2.5614,2.5319,2.5224,2.5226,2.537,2.5243,2.4915,2.5007,2.4832,2.4442,2.4231,2.3975,2.3649,2.3327,2.3195,2.3088,2.2713,2.2592,2.2531,0.0,2.1428,2.0944,2.0892,2.07,2.0339,1.9216,1.8726,1.824,1.6638,1.569,1.5059,1.4478,1.3752,1.2972,1.2236,1.124,1.0168,0.9268,0.8172,0.6999,0.5683,0.4486,0.322,0.2013,0.0529,-0.0911,-0.2254,-0.3354,-0.4433,-0.5554,-0.6454,-0.7323,-0.8302,-0.9033,-0.9688,-1.0178,-1.1222,-1.2082,-1.2646,-1.2662,-1.2753,-1.2979,-1.3061,-1.3109,-1.3151,-1.3316,-1.3316,-1.3223,-1.3379,-1.3457,-1.3395,-1.3575,-1.3632,-1.3552,-1.3465,-1.3351,-1.3218,-1.3045,-1.2988,-1.2868,-1.2719,-1.2645,-1.2674,-1.2512,-1.241,-1.2256,-1.2214,-1.2214,-1.2292,0.0,0.0,0.0,0.0,0.0,0.0,0.0,0.0,0.0,0.0,0.0,0.0,0.0,0.0,0.0,0.0,0.0,2.8743,2.8492,2.8264,2.8,2.7695,2.7378,2.7203,2.7131,2.6805,2.6759,2.7095,2.6878,2.6765,2.6793,2.6957,2.6788,2.6417,2.6414,2.6176,2.5728,2.5398,2.5077,2.4694,2.4496,2.4266,2.406,2.38,2.3623,0.0,2.3267,2.2786,2.231,2.1776,2.1526,2.1151,1.9881,1.9028,1.8206,1.6945,1.6151,1.5575,1.5001,1.4222,1.3442,1.272,1.1732,1.073,0.9773,0.8683,0.7517,0.6268,0.4948,0.3751,0.2547,0.1115,-0.032,-0.1649,-0.273,-0.379,-0.494,-0.5678,-0.6529,-0.7605,-0.8355,-0.8923,-0.9323,-1.009,-1.0853,-1.1645,-1.1626,-1.1679,-1.1954,-1.1975,-1.2044,-1.2095,-1.2206,-1.2246,-1.2165,-1.2295,-1.2425,-1.2478,-1.2467,-1.2422,-1.2353,-1.2449,-1.2397,-1.2263,-1.2199,-1.2076,-1.1927,-1.1728,-1.1569,-1.1368,-1.1267,-1.1108,-1.0947,-1.0947,-1.0854,-1.0836,0.0,0.0,0.0,0.0,0.0,0.0,0.0,0.0,0.0,0.0,0.0,0.0,0.0,0.0,0.0,0.0,0.0,0.0,2.8834,2.8637,2.844,2.8228,2.8014,2.8105,2.8528,2.8302,2.8302,2.859,2.8836,2.8725,2.8299,2.8482,2.8367,2.7947,2.7535,2.7159,2.6774,2.6496,2.619,2.5934,2.5577,2.5314,2.5048,2.4851,2.4681,2.4523,2.4292,2.4176,2.4002,2.2823,2.231,2.1897,2.0594,1.9079,1.7734,1.719,1.6708,1.6255,1.5633,1.4874,1.4094,1.3312,1.2466,1.1545,1.0338,0.9256,0.8226,0.6981,0.5665,0.4276,0.3006,0.17,0.0381,-0.0802,-0.2032,-0.3124,-0.3974,-0.4783,-0.566,-0.6864,-0.7503,-0.8078,-0.8607,-0.8702,-0.9252,-1.0544,-1.0444,-1.0475,-1.0898,-1.0538,-1.0418,-1.0544,-1.0544,-1.0544,-1.0544,-1.0965,-1.1313,-1.1557,-1.146,-1.1286,-1.1085,-1.1325,-1.1331,-1.1226,-1.1228,-1.12,-1.1217,-1.0922,-1.0667,-1.0352,-1.0344,-1.0182,-0.9961,-0.9961,-0.9961,-1.002,0.0,0.0,0.0,0.0,0.0,0.0,0.0,0.0,0.0,0.0,0.0,0.0,0.0,0.0,0.0,0.0,0.0,0.0,2.9112,2.8957,2.8791,2.8594,2.8882,2.9023,2.8946,2.9228,2.9523,2.983,2.9621,2.9591,2.976,2.9476,2.9166,2.8904,2.8415,2.8012,2.773,2.7363,2.7056,2.6759,2.6496,2.6297,2.6082,2.5851,2.5632,2.5481,2.53,2.5119,2.4894,2.3695,2.2836,2.2138,2.1284,2.0193,1.9085,1.8219,1.7667,1.7213,1.6595,1.5796,1.4932,1.4282,1.3183,1.2081,1.1329,1.0142,0.8935,0.7892,0.6523,0.5173,0.3968,0.2659,0.1354,0.0179,-0.0867,-0.1918,-0.2961,-0.3785,-0.467,-0.566,-0.6475,-0.6954,-0.7022,-0.75,-0.7893,-0.8089,-0.8732,-0.9275,-0.965,-0.9621,-0.9637,-0.9795,-0.9825,-0.9855,-0.9855,-0.9818,-0.9807,-0.9844,-0.9913,-0.9874,-0.9796,-1.0049,-1.0186,-1.0205,-1.0059,-1.01,-1.0182,-0.9873,-0.9725,-0.9621,-0.9517,-0.9465,-0.9413,-0.9295,-0.9183,-0.9138,0.0,0.0,0.0,0.0,0.0,0.0,0.0,0.0,0.0,0.0,0.0,0.0,0.0,0.0,0.0,0.0,0.0,0.0,0.0,2.9225,2.9218,2.9399,2.9606,2.9953,3.0391,3.0579,3.0861,3.1289,3.0876,3.0743,3.0771,3.0318,3.0011,2.9705,2.9257,2.8889,2.8606,2.8304,2.7997,0.0,0.0,2.7261,2.7019,2.6797,2.664,2.6481,2.6269,2.6054,2.5783,2.5106,2.4053,2.2825,2.2022,2.1108,2.0114,1.9054,1.8429,1.7929,1.7324,1.6595,1.5864,1.5157,1.4145,1.3122,1.2258,1.1142,0.9952,0.8865,0.7555,0.6241,0.5071,0.3776,0.2453,0.1234,0.0285,-0.0782,-0.1899,-0.2732,-0.3561,-0.4501,-0.5328,-0.577,-0.581,-0.6342,-0.6661,-0.6496,-0.7509,-0.8267,-0.8643,-0.8716,-0.8788,-0.8958,-0.899,-0.903,-0.903,-0.8829,-0.8716,-0.8683,-0.8673,-0.8593,-0.8481,-0.878,-0.886,-0.8808,0.0,-0.8898,-0.8987,-0.8789,-0.8664,-0.862,-0.8567,-0.8521,-0.8468,-0.8355,-0.8302,-0.8196,0.0,0.0,0.0,0.0,0.0,0.0,0.0,0.0,0.0,0.0,0.0,0.0,0.0,0.0,0.0,0.0,0.0,0.0,0.0,0.0,0.0,3.0319,3.0369,3.0935,3.2144,3.2079,3.2201,3.259,3.2231,3.1896,3.1511,3.1106,3.0747,3.0418,3.0081,2.9766,2.9425,2.9273,2.8919,2.848,2.8448,2.8207,2.7879,0.0,0.0,2.7449,2.7159,2.6901,2.6654,2.6669,2.5486,2.3809,2.287,2.1929,2.1014,1.991,1.915,1.862,1.8093,1.7479,1.681,1.6005,1.5274,1.4401,1.3312,1.2258,1.1197,0.9971,0.864,0.7293,0.6253,0.491,0.3624,0.2387,0.1421,0.0391,-0.0782,-0.1506,-0.2339,-0.3392,-0.4058,-0.4545,-0.4832,-0.5229,-0.5443,-0.542,-0.638,-0.7231,-0.7765,-0.7807,-0.7897,-0.8103,-0.8103,-0.8111,-0.8103,-0.7897,-0.7814,-0.7814,-0.7599,-0.744,-0.7251,-0.7543,-0.7548,-0.734,-0.7543,-0.7666,-0.7772,-0.7628,-0.7538,-0.7511,-0.7511,-0.7427,-0.73,-0.73,-0.73,-0.73,0.0,0.0,0.0,0.0,0.0,0.0,0.0,0.0,0.0,0.0,3.0273,3.024,0.0,0.0,0.0,0.0,0.0,0.0,0.0,0.0,0.0,0.0,3.1723,3.2403,3.2596,3.2984,3.3123,3.3006,3.2654,3.2386,3.2127,3.1714,3.1435,3.1206,3.0908,3.0617,3.0258,2.9984,2.975,2.9528,2.9227,2.8997,2.8842,0.0,0.0,0.0,2.7963,2.7815,2.765,2.753,2.662,2.5298,2.3972,2.3196,2.2496,2.1011,2.0232,1.9773,1.9254,1.8555,1.7907,1.7257,1.6358,1.5381,1.4669,1.3597,1.2303,1.0984,0.979,0.8535,0.7026,0.5797,0.4734,0.3719,0.2629,0.1673,0.0894,-0.0,-0.0893,-0.1843,-0.2617,-0.3143,-0.3438,-0.3953,-0.4307,-0.4376,-0.4648,-0.5336,-0.6543,-0.6683,-0.6852,-0.7043,-0.7014,-0.7014,-0.7043,-0.6846,-0.6774,-0.6774,-0.6592,-0.6507,-0.6392,-0.6343,-0.6393,-0.6521,-0.6332,0.0,-0.6564,-0.6428,-0.6423,-0.6478,-0.6478,-0.6428,-0.6426,-0.6327,-0.6273,-0.6218,0.0,0.0,0.0,0.0,0.0,0.0,0.0,2.7893,2.851,3.0175,3.0371,3.0343,3.0253,3.0226,3.0166,0.0,0.0,0.0,0.0,0.0,0.0,0.0,0.0,0.0,3.3506,3.3684,3.3671,3.3426,0.0,3.2912,3.2654,3.2335,3.2039,3.186,3.1528,3.124,3.0948,3.0683,3.0435,3.0156,3.0,2.9826,0.0,0.0,0.0,0.0,2.8889,2.8701,2.848,2.8448,2.7898,2.6982,2.5495,2.4526,2.3649,2.2385,2.1453,2.0733,2.0194,1.9567,1.8939,1.834,1.7457,1.6564,1.5881,1.4666,1.3368,1.2238,1.0806,0.9449,0.8173,0.7012,0.5912,0.4893,0.3944,0.306,0.2228,0.1394,0.0558,-0.0279,-0.1059,-0.1682,-0.2226,-0.2659,-0.2962,-0.3049,-0.3378,-0.4168,-0.5561,-0.5782,-0.591,-0.6027,-0.599,-0.599,-0.6027,-0.5867,-0.5793,-0.5793,-0.5653,-0.5524,-0.5356,-0.5308,-0.5281,-0.5251,-0.5117,-0.5144,-0.5282,-0.5239,-0.5264,-0.5296,-0.5392,-0.5431,-0.5419,-0.5412,-0.5449,-0.5395,0.0,0.0,0.0,0.0,0.0,0.0,0.0,2.8049,2.8743,3.0286,3.0439,3.0394,3.0343,3.0273,3.0221,0.0,0.0,0.0,0.0,0.0,0.0,0.0,0.0,0.0,0.0,0.0,0.0,3.3807,3.3643,0.0,0.0,0.0,0.0,0.0,3.2056,3.1787,3.1585,3.1338,3.1083,0.0,0.0,3.0551,0.0,0.0,0.0,0.0,0.0,2.9544,2.9364,2.9364,2.9074,2.8545,2.7357,2.6009,2.4694,2.3674,2.2606,2.1609,2.1091,2.0547,1.9978,1.9386,1.865,1.7786,1.7113,1.5761,1.4428,1.3435,1.1906,1.0455,0.9418,0.8309,0.7261,0.6185,0.537,0.4546,0.3555,0.2779,0.2004,0.1283,0.0558,-0.0163,-0.091,-0.1255,-0.1509,-0.1753,-0.2319,-0.3249,-0.4565,-0.4778,-0.4913,-0.4913,-0.4913,-0.4957,-0.4961,-0.4836,-0.4792,-0.4792,-0.4744,-0.457,-0.4351,-0.4312,-0.418,-0.4008,-0.4005,-0.4036,0.0,-0.4064,-0.4117,-0.4175,-0.4292,-0.4326,-0.4348,-0.4473,-0.4484,-0.4512,0.0,0.0,0.0,0.0,0.0,0.0,0.0,2.857,2.9418,3.0383,3.0479,3.0499,3.0488,3.0371,3.0279,0.0,0.0,0.0,0.0,0.0,0.0,0.0,0.0,0.0,0.0,0.0,0.0,3.4074,3.3921,0.0,0.0,0.0,0.0,0.0,0.0,3.242,3.2197,3.193,0.0,0.0,0.0,0.0,0.0,0.0,0.0,0.0,0.0,3.0258,3.0103,3.0103,2.9897,2.9645,2.952,2.7746,2.559,2.4655,2.3626,2.2649,2.2128,2.1609,2.1126,2.0597,1.9825,1.9044,1.8459,1.7133,1.5699,1.4487,1.328,1.1965,1.051,0.9658,0.8849,0.7841,0.6934,0.6072,0.5202,0.4436,0.3666,0.2781,0.2173,0.1466,0.0758,0.0351,-0.0097,-0.063,-0.1474,-0.2406,-0.3331,-0.351,-0.3646,-0.3737,-0.3737,-0.3781,-0.3829,-0.3785,-0.3737,-0.3737,-0.3737,-0.3649,-0.3514,-0.3388,-0.3258,-0.3123,-0.3075,-0.3037,0.0,-0.3049,-0.3032,-0.305,-0.3061,-0.31,-0.3184,-0.3194,-0.3209,-0.3241,0.0,0.0,0.0,0.0,0.0,0.0,2.7825,2.8695,2.9564,3.0453,3.053,3.05,3.05,3.0921,3.1184,3.1142,0.0,0.0,0.0,0.0,0.0,0.0,0.0,0.0,0.0,0.0,3.4539,3.434,3.4245,0.0,0.0,0.0,0.0,0.0,0.0,3.288,3.2702,3.2454,0.0,0.0,0.0,0.0,0.0,0.0,0.0,0.0,0.0,0.0,3.074,3.074,3.0601,3.0393,3.0241,2.9225,2.7806,2.6352,2.4815,2.3537,2.3143,2.2634,2.2175,2.1657,2.0966,2.032,1.9658,1.819,1.6672,1.5833,1.4335,1.288,1.1922,1.1048,1.0187,0.9304,0.8469,0.7623,0.6881,0.6018,0.5257,0.4433,0.3718,0.3032,0.2224,0.1755,0.1166,0.0405,-0.0089,-0.0535,-0.1024,-0.2182,-0.2946,-0.3173,-0.3173,-0.3037,-0.2721,-0.2721,-0.2677,-0.2677,-0.2677,-0.2721,-0.281,-0.2724,-0.2637,-0.2462,-0.2417,-0.2417,0.0,-0.2417,-0.244,-0.2438,-0.2405,-0.2424,-0.2505,-0.2722,-0.2844,-0.2832,0.0,0.0,0.0,0.0,0.0,2.7293,2.7909,2.8954,2.9901,3.052,3.0559,3.053,3.053,3.1283,3.1879,3.2112,3.2331,0.0,0.0,0.0,0.0,0.0,0.0,0.0,0.0,0.0,3.4769,3.4602,3.4517,3.4363,0.0,0.0,3.3868,3.3698,0.0,0.0,0.0,0.0,0.0,0.0,0.0,0.0,0.0,0.0,0.0,0.0,0.0,0.0,0.0,0.0,0.0,3.1027,3.0861,3.0296,2.9347,2.7634,2.6026,2.4684,2.4109,2.3623,2.3172,2.268,2.2081,2.15,2.0855,1.9259,1.7747,1.7108,1.5513,1.3971,1.3243,1.2425,1.1598,1.0746,0.9974,0.9259,0.8423,0.7629,0.6832,0.6072,0.5362,0.4588,0.378,0.3042,0.2322,0.157,0.1251,0.1071,0.0894,-0.0223,-0.1248,-0.2012,-0.2103,-0.1967,-0.1607,-0.1607,-0.1607,-0.1607,-0.1607,-0.1698,-0.1832,-0.1832,-0.1744,-0.1614,-0.1614,-0.1614,0.0,-0.1614,-0.1614,-0.1618,-0.1573,-0.1602,-0.163,-0.1921,-0.2038,-0.203,0.0,0.0,0.0,0.0,0.0,0.0,2.7995,2.9476,3.0598,3.0598,3.0598,3.0598,3.0598,3.1333,3.2144,3.3001,3.3809,0.0,0.0,0.0,0.0,0.0,0.0,0.0,0.0,0.0,3.4927,3.4788,3.4727,3.4583,3.4386,3.4197,3.4074,3.3972,0.0,0.0,0.0,0.0,0.0,0.0,0.0,0.0,0.0,0.0,0.0,0.0,0.0,0.0,0.0,0.0,0.0,0.0,0.0,3.0916,2.9791,2.815,2.7114,2.6246,2.5068,2.4486,2.4085,2.3681,2.3143,2.2543,2.1993,2.0452,1.8891,1.8291,1.6806,1.5309,1.4435,1.3888,1.3226,1.2159,1.1516,1.0855,0.9931,0.9207,0.8482,0.7747,0.7047,0.6235,0.5363,0.4145,0.3252,0.2898,0.2404,0.2091,0.2099,0.2551,0.1967,0.0045,-0.0268,-0.0403,-0.0403,-0.0403,-0.0447,-0.0537,-0.0537,-0.0537,-0.0537,-0.0537,-0.0492,-0.0403,-0.0403,-0.0403,0.0,-0.0403,-0.0403,-0.0403,-0.0403,-0.0413,-0.0428,-0.0428,-0.045,-0.0533,0.0,0.0,0.0,0.0,0.0,0.0,0.0,2.9863,3.0607,3.0606,3.0606,3.0828,3.1418,3.225,3.3103,3.3984,3.4204,0.0,0.0,0.0,0.0,0.0,0.0,0.0,0.0,0.0,3.5091,3.5002,3.4908,3.4771,3.4666,3.4517,3.4363,3.4269,3.4049,3.3921,0.0,0.0,0.0,0.0,0.0,0.0,3.2898,0.0,0.0,0.0,0.0,0.0,0.0,0.0,0.0,0.0,0.0,0.0,0.0,2.9274,2.8022,2.6841,2.5863,2.5313,2.491,2.4567,2.4085,2.3563,2.3069,2.1498,2.0031,1.9404,1.7831,1.6373,1.5764,1.5073,1.4332,1.3679,1.2831,1.2061,1.1399,1.0645,0.9931,0.9207,0.8094,0.703,0.6282,0.5413,0.4655,0.4096,0.377,0.3504,0.3208,0.33,0.2765,0.1474,0.1339,0.1206,0.103,0.103,0.085,0.0447,0.0447,0.0403,0.0313,0.0313,0.0492,0.085,0.085,0.085,0.0,0.085,0.085,0.085,0.085,0.0812,0.0824,0.0848,0.0787,0.0721,0.0,0.0,0.0,0.0,0.0,0.0,0.0,3.0036,3.0606,3.0604,3.0613,3.0923,3.1792,3.2684,3.3557,3.4409,3.47,0.0,0.0,0.0,0.0,0.0,0.0,0.0,0.0,3.5324,3.5226,3.5145,3.5037,3.4927,3.483,3.4728,3.4623,3.4495,3.4293,3.4197,0.0,0.0,0.0,0.0,0.0,0.0,3.3268,0.0,0.0,0.0,0.0,0.0,0.0,0.0,0.0,0.0,0.0,0.0,0.0,0.0,2.8903,2.7639,2.6567,2.6033,2.5726,2.5389,2.4989,2.4561,2.4074,2.2753,2.1427,2.0599,1.9114,1.7729,1.6921,1.6176,1.5508,1.4937,1.4168,1.3379,1.2793,1.2003,1.1208,1.0297,0.9134,0.8134,0.7338,0.6643,0.5985,0.5275,0.5,0.4735,0.4434,0.4264,0.3869,0.3202,0.2719,0.2366,0.2146,0.2146,0.1923,0.152,0.152,0.1386,0.1206,0.1206,0.1386,0.1655,0.1655,0.1655,0.0,0.1655,0.1611,0.1611,0.1567,0.1569,0.1528,0.1569,0.1542,0.1567,0.0,0.0,0.0,0.0,0.0,0.0,0.0,3.0081,3.0604,3.0602,3.061,3.0959,3.1898,3.2723,3.3576,3.4516,0.0,0.0,0.0,0.0,0.0,0.0,0.0,0.0,3.5507,3.5427,3.5354,3.5226,3.5157,3.5053,3.4927,3.4849,3.4788,3.4708,3.4517,3.4427,0.0,0.0,0.0,0.0,0.0,0.0,0.0,0.0,0.0,0.0,0.0,0.0,0.0,0.0,0.0,0.0,0.0,0.0,0.0,0.0,0.0,0.0,0.0,2.6691,2.6471,2.6139,2.5815,2.5465,2.5059,2.4076,0.0,2.1754,2.0517,1.9256,1.7936,1.7244,1.6659,1.6039,1.5389,1.4755,1.405,1.3341,1.2414,1.1116,1.0319,0.9491,0.8522,0.7909,0.7216,0.6477,0.6087,0.5873,0.569,0.5394,0.5183,0.5091,0.3865,0.3164,0.2987,0.2987,0.2857,0.2593,0.2593,0.2457,0.2188,0.2188,0.2188,0.0,0.2188,0.0,0.0,0.2099,0.2097,0.2055,0.1969,0.1884,0.1884,0.1884,0.198,0.2062,0.0,0.0,0.0,0.0,0.0,0.0,0.0,0.0,0.0,0.0,3.0673,3.1263,3.2792,3.3142,3.3879,0.0,0.0,0.0,0.0,0.0,0.0,0.0,0.0,0.0,3.5566,3.5501,3.546,3.5432,3.5308,3.5209,3.5124,3.5056,3.4964,3.485,3.4749,3.4623,0.0,0.0,0.0,0.0,0.0,0.0,0.0,0.0,0.0,0.0,3.3698,3.3698,0.0,0.0,0.0,0.0,0.0,0.0,0.0,0.0,2.9782,2.847,2.7968,0.0,2.7004,2.674,2.6488,2.6177,0.0,2.4841,2.3638,2.2552,2.1334,2.0106,1.896,1.8238,1.7653,1.7175,1.6471,1.5776,1.5264,1.4261,1.3236,1.2414,1.1831,1.1015,0.9844,0.9295,0.8594,0.7538,0.7182,0.6943,0.6677,0.6465,0.6209,0.599,0.5556,0.4904,0.4037,0.4001,0.3825,0.3558,0.3558,0.347,0.3252,0.3252,0.3211,0.3081,0.3081,0.0,0.2946,0.2946,0.2901,0.2904,0.2904,0.2815,0.2724,0.2724,0.2729,0.2763,0.0,0.0,0.0,0.0,0.0,0.0,0.0,0.0,0.0,0.0,0.0,0.0,0.0,0.0,0.0,0.0,0.0,0.0,0.0,0.0,0.0,0.0,0.0,3.5626,3.5601,3.5572,3.5528,3.5493,3.5417,3.5339,3.5242,3.5179,3.5091,3.4982,3.4889,3.4769,0.0,0.0,0.0,0.0,3.4316,0.0,0.0,0.0,0.0,0.0,3.3972,3.3972,0.0,3.3972,3.3947,3.3847,0.0,0.0,0.0,0.0,2.9726,2.8644,2.8518,2.8073,2.7595,2.7317,2.7098,2.6822,2.6505,2.5773,2.4808,2.3362,2.2357,2.1311,1.9861,1.9066,1.8521,1.8145,1.745,1.6714,1.594,1.4994,1.419,1.3579,1.3034,1.2225,1.0982,1.0409,0.9699,0.8586,0.8177,0.7897,0.769,0.7433,0.7189,0.6937,0.6768,0.6118,0.5043,0.4923,0.4744,0.4561,0.4478,0.4351,0.4136,0.4136,0.4096,0.3965,0.3965,0.0,0.3744,0.37,0.3656,0.3609,0.3524,0.348,0.3388,0.3344,0.3429,0.3562,0.0,0.0,0.0,0.0,0.0,0.0,0.0,0.0,0.0,0.0,0.0,0.0,0.0,0.0,0.0,0.0,0.0,0.0,0.0,0.0,0.0,0.0,0.0,3.5688,3.5618,3.5604,3.5565,3.5515,3.552,3.5446,3.5343,3.5258,3.519,3.5105,3.4982,3.4889,0.0,0.0,0.0,0.0,3.4539,0.0,0.0,0.0,0.0,0.0,0.0,0.0,0.0,3.4221,3.4221,3.4073,3.3154,0.0,0.0,0.0,0.0,0.0,2.8881,2.8619,2.8264,2.7876,2.7654,2.7439,2.7098,2.6791,2.6017,2.4133,2.3416,2.255,2.068,1.9864,1.931,1.8916,1.8302,1.749,1.6446,1.5764,1.5152,1.4617,1.4032,1.3226,1.194,1.1335,1.0554,0.9533,0.9119,0.8837,0.8675,0.839,0.8111,0.7919,0.7663,0.7105,0.6215,0.5879,0.5615,0.5475,0.5356,0.5183,0.5019,0.4975,0.4884,0.4748,0.0,0.0,0.4535,0.4491,0.4355,0.4224,0.414,0.4056,0.4012,0.3921,0.4079,0.4317,0.0,0.0,0.0,0.0,0.0,0.0,0.0,0.0,0.0,0.0,0.0,0.0,0.0,0.0,0.0,0.0,0.0,0.0,0.0,0.0,0.0,3.5795,3.5773,3.5757,3.5699,3.5629,3.5596,3.5574,3.5584,3.556,3.5479,3.5465,3.5354,3.5174,3.5105,3.5037,3.4964,0.0,0.0,0.0,3.4689,0.0,0.0,0.0,0.0,0.0,0.0,0.0,0.0,3.4386,3.4363,3.4232,3.3384,0.0,0.0,0.0,0.0,0.0,2.9156,2.9089,2.891,2.8362,2.8146,2.7989,2.7654,2.7365,2.6636,2.4822,2.4096,2.3211,2.1311,2.0501,2.0039,1.9702,1.8855,1.7961,1.7216,1.6727,1.6225,1.5644,1.4771,1.3803,1.288,1.1954,1.1065,1.0293,0.9961,0.9686,0.946,0.9231,0.8999,0.8814,0.848,0.8234,0.7995,0.7118,0.6568,0.6307,0.6167,0.6087,0.5964,0.5884,0.5717,0.5545,0.0,0.541,0.5178,0.5135,0.5048,0.4923,0.4927,0.4797,0.467,0.4626,0.4734,0.4902,0.0,0.0,0.0,0.0,0.0,0.0,0.0,0.0,0.0,0.0,0.0,0.0,0.0,0.0,0.0,0.0,0.0,0.0,0.0,0.0,3.5898,3.5864,3.585,3.5818,3.5766,3.5689,3.5639,3.5607,3.5604,3.5577,3.5541,3.552,3.5398,3.5254,3.519,3.5141,3.5089,3.5038,3.4964,3.4908,0.0,0.0,0.0,0.0,0.0,0.0,0.0,0.0,0.0,0.0,3.4304,3.3757,3.2929,0.0,0.0,0.0,0.0,0.0,2.9392,2.9351,2.9267,2.8874,2.8626,2.8388,2.8073,2.7829,2.7093,2.5299,2.4607,2.3754,2.1936,2.1165,2.0632,1.9995,1.9295,1.8602,1.8014,1.753,1.7005,1.6398,1.5447,1.4499,1.3668,1.2674,1.1787,1.1088,1.0725,1.0457,1.0205,0.9952,0.9765,0.9545,0.9239,0.8999,0.8814,0.8316,0.7739,0.716,0.6985,0.681,0.6647,0.6562,0.6435,0.6227,0.0,0.6007,0.5819,0.5782,0.5707,0.5583,0.5491,0.5404,0.5348,0.5505,0.5529,0.5458,0.0,0.0,0.0,0.0,0.0,0.0,0.0,0.0,0.0,0.0,0.0,0.0,0.0,0.0,0.0,0.0,0.0,0.0,0.0,0.0,3.5892,3.5905,3.5905,3.5864,3.5801,3.5756,3.5699,3.5658,3.5629,3.5623,3.5604,3.5528,3.5441,3.533,3.5289,3.5242,3.5209,3.5162,3.5092,3.5038,0.0,0.0,0.0,0.0,0.0,0.0,0.0,0.0,0.0,0.0,0.0,0.0,0.0,0.0,0.0,3.0,2.9738,2.9719,2.9589,2.957,2.9493,2.9332,2.9052,2.8743,2.8492,2.8264,2.7538,2.5754,2.5073,2.4293,2.2451,2.1688,2.1087,2.0323,1.9747,1.9244,1.8769,1.8266,1.7747,1.7173,1.614,1.5144,1.442,1.3317,1.2441,1.1859,1.1468,1.1169,1.0905,1.0687,1.0467,1.0205,0.9952,0.9707,0.9457,0.9257,0.8724,0.7878,0.7704,0.7496,0.728,0.7231,0.7112,0.6937,0.681,0.6641,0.6513,0.6435,0.6355,0.619,0.605,0.5964,0.5983,0.6249,0.6234,0.6051,0.0,0.0,0.0,0.0,0.0,0.0,0.0,0.0,0.0,0.0,0.0,0.0,0.0,0.0,0.0,0.0,0.0,0.0,0.0,0.0,3.5903,3.5905,3.5905,3.5866,3.5803,3.5799,3.5801,3.5794,3.5728,3.5657,3.5601,3.554,3.5495,3.5474,3.5412,3.5354,3.5277,3.5209,3.5196,3.5183,3.511,0.0,0.0,0.0,0.0,0.0,0.0,0.0,0.0,0.0,0.0,0.0,0.0,0.0,3.1006,3.0137,2.9893,2.9878,2.9808,2.9736,2.9663,2.9493,2.931,2.9112,2.8887,2.8694,2.8023,2.6208,2.5544,2.4704,2.29,2.194,2.1261,2.0827,2.0342,1.9889,1.9406,1.8959,1.8567,1.8149,1.6734,1.5586,1.5159,1.3777,1.2757,1.2473,1.2174,1.1884,1.1531,1.1479,1.1255,1.085,1.0659,1.0428,1.0205,0.9785,0.9191,0.8439,0.8373,0.825,0.8085,0.7912,0.7753,0.7628,0.7489,0.7321,0.7125,0.7125,0.6999,0.6829,0.6689,0.6526,0.6391,0.6725,0.6761,0.6678,0.0,0.0,0.0,0.0,0.0,0.0,0.0,0.0,0.0,0.0,0.0,0.0,0.0,0.0,0.0,0.0,0.0,0.0,0.0,3.5908,3.5908,3.5903,3.5903,3.5891,3.5866,3.5811,3.5807,3.5801,3.5718,3.5667,3.5596,3.557,3.554,3.5495,3.5474,3.5412,3.5354,3.5293,3.5261,3.5248,3.5181,3.5164,0.0,0.0,0.0,0.0,0.0,0.0,0.0,0.0,3.3671,3.2854,3.1982,3.1162,3.044,3.0117,3.0022,3.001,2.9943,2.9907,2.9874,2.9754,2.9645,2.9492,2.9178,2.8572,2.7734,2.6374,2.5415,2.439,2.2893,2.2181,2.1688,2.1261,2.0828,2.0429,1.9925,1.9479,1.8927,1.804,1.6908,1.5901,1.5158,1.4068,1.3297,1.301,1.2743,1.2496,1.2234,1.1993,1.1774,1.1542,1.1292,1.1029,1.0725,1.0447,1.006,0.9597,0.9136,0.8822,0.8692,0.848,0.8316,0.8201,0.7995,0.7821,0.7697,0.7663,0.7545,0.7377,0.7202,0.6985,0.6845,0.7319,0.7379,0.7273,0.0,0.0,0.0,0.0,0.0,0.0,0.0,0.0,0.0,0.0,0.0,0.0,0.0,0.0,0.0,0.0,0.0,0.0,3.5421,3.548,3.5616,3.5889,3.5908,3.5903,3.5897,3.5866,3.5811,3.5807,3.5747,3.5698,3.5618,3.5615,3.557,3.554,3.5509,3.5455,3.5432,3.5339,3.5293,3.5277,3.5231,3.5198,0.0,0.0,0.0,0.0,0.0,0.0,0.0,0.0,3.3315,3.248,3.1622,3.0799,3.0128,3.0128,3.0128,3.0113,3.0083,3.0053,3.0022,2.9943,2.9876,2.9678,2.9117,2.8431,2.7613,2.653,2.5221,2.3945,2.2946,2.2473,2.2096,2.1675,2.1276,2.0893,2.0376,1.9797,1.9075,1.8193,1.7063,1.6055,1.5312,1.446,1.3802,1.3589,1.3297,1.3022,1.2836,1.2532,1.2282,1.2102,1.1847,1.1579,1.1244,1.1057,1.084,1.0582,0.9991,0.9567,0.9257,0.9047,0.8878,0.8756,0.857,0.8406,0.8226,0.8152,0.7995,0.7787,0.7663,0.7504,0.7437,0.7953,0.8065,0.7983,0.0,0.0,0.0,0.0,0.0,0.0,0.0,0.0,0.0,0.0,0.0,0.0,0.0,0.0,0.0,0.0,0.0,0.0,3.4544,3.4583,3.4973,3.583,3.5889,3.5889,3.5889,3.5878,3.5846,3.5803,3.5801,3.5776,3.5707,3.5618,3.5596,3.5601,3.554,3.5509,3.5493,3.5364,3.5304,3.5293,3.5226,3.5209,3.5209,0.0,0.0,0.0,0.0,0.0,0.0,0.0,3.3414,3.2539,3.1752,3.0887,3.0188,3.0188,3.0188,3.0207,3.0199,3.0157,3.0094,3.0022,2.9956,2.9664,2.8714,2.8278,2.7805,2.6786,2.494,2.3435,2.3151,2.2825,2.2473,2.2084,2.1675,2.1261,2.0844,1.9871,1.9076,1.8721,1.7228,1.6102,1.5829,1.4939,1.4319,1.413,1.3802,1.3535,1.3319,1.3057,1.2791,1.2508,1.2318,1.2066,1.1811,1.1627,1.1404,1.1217,1.0992,1.0505,0.9783,0.9607,0.9439,0.9319,0.9257,0.9007,0.8716,0.8716,0.8431,0.8021,0.8021,0.81,0.8253,0.856,0.8745,0.8848,0.0,0.0,0.0,0.0,0.0,0.0,0.0,0.0,0.0,0.0,0.0,0.0,0.0,0.0,0.0,0.0,0.0,0.0,3.3707,3.3765,3.3863,3.4135,3.4135,3.4135,3.4135,3.4105,3.464,3.5803,3.5799,3.5765,3.5699,3.5688,3.5646,3.5601,3.5584,3.5547,3.5489,3.536,3.53,3.5285,3.5242,3.5209,3.5209,0.0,0.0,0.0,0.0,0.0,0.0,0.0,0.0,0.0,3.0863,3.0418,3.0221,3.0266,3.0266,3.0266,3.0266,3.0253,3.0226,3.0157,3.0128,2.9855,2.8866,2.8007,2.6898,2.5205,2.4226,2.3624,2.3417,2.3126,2.2773,2.2409,2.1998,2.1434,2.0505,1.9893,1.9092,1.7808,1.6999,1.6273,1.5589,1.5096,1.4735,1.4529,1.4319,1.4046,1.3822,1.3535,1.3297,1.3079,1.2814,1.2567,1.2282,1.2102,1.1884,1.1627,1.1442,1.0992,1.0351,1.0157,0.9961,0.9774,0.9655,0.9417,0.9119,0.8967,0.8765,0.8472,0.8472,0.8564,0.873,0.8959,0.9162,0.9403,0.0,0.0,0.0,0.0,0.0,0.0,0.0,0.0,0.0,0.0,0.0,0.0,0.0,0.0,0.0,0.0,0.0,0.0,0.0,3.2874,3.3049,3.3375,3.3395,3.3395,3.3395,3.337,3.3815,3.4807,3.4812,3.4772,3.472,3.4701,3.4661,3.4615,3.4593,3.4538,3.4501,3.4361,3.4319,3.4323,3.4611,3.4697,3.4718,0.0,0.0,0.0,0.0,0.0,0.0,0.0,0.0,0.0,3.0461,3.0221,3.0247,3.0286,3.0318,3.033,3.0318,3.0299,3.0286,3.024,2.9964,2.9336,2.8002,2.7153,2.6168,2.4561,2.4058,2.3858,2.3624,2.3348,2.3028,2.2694,2.2071,2.1339,2.0521,1.9618,1.8654,1.7517,1.6858,1.6276,1.5683,1.5374,1.5118,1.4963,1.4732,1.4483,1.4214,1.3934,1.3702,1.3535,1.3276,1.3,1.2733,1.2579,1.2318,1.2041,1.192,1.159,1.1067,1.0725,1.0467,1.0205,0.998,0.9774,0.9567,0.9346,0.9136,0.8918,0.8918,0.9115,0.9371,0.9463,0.9771,1.0134,0.0,0.0,0.0,0.0,0.0,0.0,0.0,0.0,0.0,0.0,3.071,0.0,0.0,0.0,0.0,0.0,0.0,0.0,0.0,0.0,3.2343,3.3122,3.3161,3.3161,3.3161,3.3161,3.3131,3.3057,3.3219,3.3274,3.3208,3.3208,3.3171,3.31,3.3029,3.2995,3.2967,3.2845,3.279,3.2847,3.3578,3.384,3.3865,3.4666,0.0,0.0,0.0,0.0,0.0,0.0,0.0,0.0,3.0423,3.0253,3.0292,3.0292,3.0348,3.0398,3.0336,3.0316,3.0304,3.0305,2.9545,2.8343,2.6593,2.6001,2.5548,2.4613,2.4266,2.4039,2.3777,2.35,2.3183,2.2772,2.1833,2.0974,2.06,1.9159,1.8017,1.7697,1.6799,1.6179,1.6052,1.574,1.5492,1.5358,1.5088,1.4814,1.4564,1.431,1.4098,1.3974,1.3695,1.3425,1.3176,1.3012,1.2791,1.2449,1.2449,1.2222,1.1847,1.1319,1.0905,1.0621,1.0244,1.0059,1.0059,0.9832,0.9585,0.9368,0.9404,0.9707,1.0137,1.0035,1.0412,1.0922,0.0,0.0,0.0,0.0,0.0,0.0,0.0,0.0,0.0,0.0,0.0,0.0,0.0,0.0,0.0,0.0,0.0,0.0,0.0,0.0,3.1154,3.1349,3.1369,3.1369,3.1369,3.1359,3.1329,3.1267,3.2623,3.3269,3.3208,3.3208,3.3171,3.31,3.3029,3.2983,3.2923,3.2831,3.2776,3.2737,3.2863,3.2893,3.2901,3.3092,3.3149,0.0,0.0,0.0,0.0,0.0,0.0,0.0,3.0251,3.0253,3.0292,3.0292,3.0348,3.0398,3.0379,3.0379,3.0367,3.0304,2.9117,2.7669,2.654,2.5688,2.5009,2.4617,2.4393,2.4173,2.3978,2.3202,2.2531,2.2218,2.1264,2.0267,1.9403,1.8776,1.81,1.7233,1.6755,1.6463,1.6344,1.6052,1.5826,1.5638,1.5477,1.5225,1.4907,1.4749,1.456,1.4388,1.4065,1.3815,1.3654,1.3459,1.3173,0.0,1.2733,1.2556,1.2258,1.1811,1.1442,1.1067,1.0659,1.0467,1.0477,1.0244,1.0049,0.989,1.0208,1.0426,1.0579,1.0789,1.1059,1.1326,0.0,0.0,0.0,0.0,0.0,0.0,0.0,0.0,0.0,0.0,0.0,0.0,0.0,0.0,0.0,0.0,0.0,0.0,0.0,0.0,3.0794,3.0794,3.0794,3.0769,3.0745,3.0759,3.0722,3.0698,3.1612,3.2011,3.1958,3.196,3.1923,3.1862,3.1788,3.1723,3.1655,3.1583,3.1546,3.1522,3.1848,3.1955,3.1963,3.2364,3.2479,3.2405,3.2005,0.0,0.0,0.0,0.0,0.0,0.0,0.0,3.0253,3.0286,3.0323,3.0348,3.0348,3.0379,3.0186,2.9313,2.842,2.7383,2.6034,2.5321,2.4898,2.4726,2.453,2.4227,2.3621,2.295,2.227,2.1639,2.0643,1.9746,1.9126,1.8518,1.7887,1.7265,1.6942,1.6738,1.6554,1.6328,1.6108,1.5911,1.5784,1.5551,1.5255,1.5072,1.4887,1.4718,1.442,1.4163,1.3974,1.3815,1.3535,1.3173,1.3116,1.2908,1.252,1.2041,1.1675,1.1437,1.104,1.0878,1.0878,1.0611,1.039,1.0322,1.0671,1.0937,1.1055,1.1352,1.1661,1.1828,0.0,0.0,0.0,0.0,0.0,0.0,0.0,0.0,0.0,0.0,0.0,0.0,0.0,0.0,0.0,0.0,0.0,0.0,0.0,0.0,0.0,3.0784,3.0784,3.0753,3.0697,3.0697,3.0698,3.071,3.0695,3.0653,3.0593,3.0597,3.0569,3.0469,3.0414,3.0355,3.0279,3.0207,3.0171,3.02,3.0817,3.1021,3.1008,3.1673,3.1901,3.177,3.1089,3.0879,3.0837,3.0203,0.0,0.0,0.0,0.0,3.0185,3.0253,3.0273,3.0292,3.0292,3.0336,2.9951,2.8214,2.7769,2.7304,2.5507,2.5057,2.4953,2.4817,2.4645,2.42,2.3213,2.2685,2.209,2.1019,1.9988,1.9264,1.9073,1.8297,1.7681,1.7479,1.7216,1.6977,1.6799,1.6581,1.6398,1.6163,1.6039,1.5856,1.5595,1.5374,1.5178,1.498,1.4735,1.4483,1.43,1.4144,1.3901,1.3581,1.3459,1.3185,1.2709,1.2222,1.1906,1.1756,1.1452,1.1292,1.1266,1.0954,1.0815,1.086,1.1186,1.1427,1.1659,1.1974,1.2215,1.2323,0.0,0.0,0.0,0.0,0.0,0.0,0.0,0.0,0.0,0.0,3.0618,3.0634,0.0,0.0,0.0,0.0,0.0,0.0,3.0703,0.0,0.0,3.0703,3.0703,3.0716,3.0698,3.0704,3.071,3.0707,3.0651,3.0616,3.0607,3.0598,3.054,3.0398,3.0402,3.0318,3.0213,3.0138,3.0049,2.994,3.0059,3.0011,2.9905,3.0018,3.0057,3.0039,2.9943,2.9886,2.9903,2.9914,2.9926,0.0,0.0,0.0,3.0123,3.0185,3.0207,3.0234,3.0292,3.0305,2.989,2.8159,2.7707,2.7242,2.5507,2.5057,2.4953,2.4827,2.4692,2.4288,2.3266,2.2354,2.1407,2.0389,1.9374,1.8647,1.8447,1.8147,1.7878,1.7687,1.7415,1.7183,1.706,1.685,1.6659,1.6474,1.6328,1.6163,1.594,1.5697,1.5492,1.5329,1.5074,1.4842,1.4651,1.4447,1.4208,1.3934,1.3648,1.3276,1.2873,1.2791,1.2508,1.2041,1.1811,1.1686,1.1608,1.1421,1.1484,1.176,1.1975,1.2213,1.2453,1.276,1.2774,1.2627,0.0,0.0,0.0,0.0,0.0,0.0,0.0,0.0,0.0,0.0,0.0,3.0621,0.0,0.0,0.0,3.0637,3.0644,3.0664,3.0697,3.0711,3.0691,3.0697,3.0697,3.069,3.0649,3.0634,3.0629,3.0643,3.0578,3.052,3.049,3.0439,3.0417,3.0402,3.0318,3.0226,3.0142,3.0034,2.9921,2.9841,2.979,2.9701,2.957,2.9551,2.9493,2.9472,2.9493,2.9513,2.9608,2.9645,2.9737,2.9808,2.9876,0.0,0.0,0.0,3.0113,3.0157,3.024,3.0234,2.9832,2.8128,2.7713,2.7236,2.5507,2.5044,2.4959,2.4842,2.4328,2.3627,2.2664,2.167,2.0659,1.965,1.9021,1.8603,1.8428,1.8225,1.8035,1.79,1.7664,1.7439,1.7231,1.7076,1.6876,1.6686,1.6501,1.634,1.6191,1.594,1.5711,1.5522,1.5329,1.5104,1.4873,1.47,1.4447,1.4124,1.3861,1.356,1.3242,1.3116,1.2803,1.233,1.2186,1.2052,1.194,1.2046,1.2124,1.2247,1.2733,1.2973,1.3045,1.3267,1.3238,1.3045,0.0,0.0,0.0,0.0,0.0,0.0,0.0,0.0,0.0,0.0,0.0,0.0,0.0,0.0,0.0,0.0,3.0565,3.0593,3.0657,3.0653,3.0653,3.0657,3.0649,3.0632,3.0576,3.0549,3.055,3.0559,3.0479,3.0417,3.0383,3.0049,2.9947,3.0011,3.0117,3.0128,3.0034,2.9905,2.9787,2.9719,2.9645,2.955,2.9412,2.9372,2.931,2.9228,2.9249,2.9312,2.9392,2.9433,2.9492,2.9608,2.9701,2.9737,0.0,0.0,0.0,3.0068,3.0138,3.0152,2.9765,2.8096,2.7663,2.7223,2.5482,2.5037,2.495,2.4813,2.3877,2.2873,2.2154,2.1184,2.018,1.9196,1.8861,1.8715,1.8544,1.8348,1.8184,1.8048,1.7856,1.7641,1.7392,1.7248,1.7076,1.6882,1.6712,1.6554,1.6382,1.6191,1.5968,1.5726,1.5566,1.5359,1.5104,1.4918,1.4606,1.4287,1.4105,1.3861,1.3615,1.3425,1.3116,1.2756,1.2591,1.2401,1.222,1.2602,1.2732,1.2765,1.34,1.3584,1.3566,1.3721,1.3658,1.3467,0.0,0.0,0.0,0.0,0.0,0.0,0.0,0.0,0.0,0.0,0.0,0.0,3.0491,3.0501,3.0511,3.0501,3.0501,3.0501,3.0501,3.051,3.051,3.0501,3.0521,0.0,3.0509,3.0439,3.0406,3.041,3.033,3.0305,3.0273,2.9331,2.8879,2.8917,2.9741,3.0041,2.9893,2.9771,2.9626,2.9512,2.9453,2.9349,2.9222,2.92,2.9134,2.9021,2.9108,2.9112,2.9134,2.9206,2.9251,2.9334,2.9454,2.9569,2.9645,0.0,0.0,0.0,2.9988,3.0003,2.9623,2.8013,2.7613,2.7143,2.5403,2.501,2.4936,2.4738,2.3397,2.22,2.2033,2.1184,2.0193,1.9259,1.8984,1.8824,1.8622,1.841,1.8266,1.8211,1.7961,1.7743,1.7612,1.7455,1.7305,1.7108,1.6959,1.6799,1.6581,1.6382,1.6219,1.6067,1.587,1.5639,1.5389,1.5011,1.4686,1.447,1.4337,1.4176,1.3967,1.3828,1.3641,1.3412,1.2978,1.2662,1.2508,1.2967,1.3306,1.3563,1.3845,1.4116,1.434,1.4212,1.3988,1.3763,0.0,0.0,0.0,0.0,0.0,0.0,0.0,0.0,0.0,0.0,0.0,0.0,0.0,3.0348,3.0359,3.0371,3.0371,3.0371,3.0371,3.0371,3.0371,3.0371,3.0359,3.0379,3.0367,3.0311,2.9998,2.9443,2.9404,2.9096,2.8488,2.8084,2.7892,2.7881,2.8752,2.9066,2.8983,2.9383,2.9472,2.9307,2.9225,2.9112,2.8929,2.8905,2.881,2.8687,2.8761,2.8785,2.8791,2.8845,2.8962,2.9052,2.916,2.9246,2.937,2.9551,2.9645,2.9718,2.9787,2.9841,2.9496,2.7862,2.7479,2.7009,2.5267,2.4846,2.4787,2.4711,2.3288,2.2073,2.1999,2.076,1.9588,1.9168,1.9,1.8843,1.8697,1.8563,1.8423,1.8222,1.8113,1.7961,1.7743,1.7612,1.7472,1.7305,1.7125,1.6959,1.6799,1.6607,1.6409,1.6219,1.6067,1.5812,1.5477,1.5238,1.4994,1.4763,1.4606,1.4415,1.4189,1.4013,1.3861,1.3674,1.3412,1.3316,1.3362,1.3718,1.4085,1.4439,1.4637,1.4767,1.4834,1.4558,1.4326,1.4186,0.0,0.0,0.0,0.0,0.0,0.0,0.0,0.0,0.0,3.0128,0.0,0.0,0.0,0.0,3.0207,3.0207,3.0194,3.0199,3.0199,3.018,3.0166,3.0166,3.0133,3.0018,2.9732,2.9684,2.9236,2.8351,2.836,2.8032,2.7388,2.7031,2.6817,2.6787,2.73,2.7659,2.7922,2.865,2.882,2.868,2.8865,2.8815,2.8637,2.8543,2.8422,2.8317,2.8344,2.837,2.8378,2.843,2.8551,2.8694,2.8731,2.8874,2.9075,2.927,2.9372,2.9414,2.9551,2.9608,2.925,2.7667,2.7269,2.682,2.508,2.4657,2.4629,2.4601,2.3196,2.1964,2.1953,2.0475,1.9246,1.915,1.8999,1.886,1.8734,1.8657,1.852,1.8249,1.8218,1.8108,1.7856,1.7726,1.7589,1.7408,1.7273,0.0,1.6984,1.6763,1.6528,1.6274,1.6151,1.5955,1.561,1.5448,1.5268,1.5025,1.4887,1.4686,1.4461,1.4259,1.4098,1.3941,1.3782,1.3766,1.3902,1.4267,1.4655,1.5018,1.5269,1.5289,1.5198,1.4891,1.4697,1.4547,0.0,0.0,0.0,0.0,0.0,0.0,0.0,0.0,2.991,2.9991,0.0,0.0,0.0,0.0,0.0,2.9977,2.9984,2.9972,2.9972,2.9921,2.9886,2.9886,2.9799,2.9385,2.8607,2.8558,2.8126,2.7258,2.7245,2.7196,2.709,2.6182,2.5703,2.5633,2.5448,2.5892,2.6841,2.7479,2.7673,2.7619,2.8281,2.843,2.8237,2.8201,2.8045,2.7869,2.7869,2.7869,2.7897,2.7954,2.8073,2.8183,2.8264,2.8478,2.87,2.8915,2.8966,2.902,0.0,0.0,0.0,2.7364,2.6971,2.6505,2.4849,2.4495,2.4461,2.4412,2.3081,2.1904,2.1803,2.0398,1.9221,1.9202,1.9034,1.8878,1.8806,1.8675,1.854,1.831,1.8239,1.813,1.7944,1.7839,1.7681,1.7432,1.7408,1.7305,1.7133,1.6908,1.6623,1.6207,1.6123,1.6011,1.5799,1.561,1.5433,1.5313,1.5088,1.4935,1.4808,1.461,1.442,1.43,1.4124,1.4041,1.4074,1.46,1.4977,1.5271,1.5676,1.5691,1.5468,1.5198,1.5051,1.4858,0.0,0.0,0.0,0.0,0.0,0.0,2.9455,2.9551,2.9608,0.0,0.0,0.0,2.9645,2.9645,2.9645,2.9645,2.9589,2.957,2.957,2.9494,2.9456,2.9456,2.8876,2.8465,2.8241,2.7661,2.6952,2.6059,2.6077,2.5707,2.5023,2.4709,2.4523,2.4446,2.4308,2.4314,2.4544,2.6031,2.6558,2.6495,2.7066,2.7228,2.7116,2.7444,2.7487,2.7382,2.7382,2.7352,2.7321,2.7413,2.7487,2.7666,2.7936,2.8075,2.8166,2.842,2.8478,2.8554,2.8803,0.0,0.0,0.0,0.0,0.0,2.445,2.4248,2.4284,2.4266,2.3345,2.2374,2.177,2.0716,1.9739,1.9161,1.8966,1.886,1.8734,1.8641,1.8526,1.833,1.8287,1.8205,1.8053,1.7944,1.7816,0.0,1.7519,1.7377,1.7329,1.6993,1.6686,1.649,1.6289,1.6166,1.6083,1.5841,1.5654,1.5522,1.5314,1.5133,1.4921,1.478,1.4624,1.4447,1.4734,1.5007,1.5212,1.5094,1.5469,1.6138,1.6083,1.5925,1.5703,1.557,1.5345,1.5017,0.0,0.0,0.0,0.0,0.0,2.9056,2.9123,2.9206,2.9249,0.0,0.0,0.0,2.9251,2.9212,2.9209,2.9209,2.9126,2.906,2.906,2.8997,2.8975,2.8975,2.8224,2.7653,2.7303,2.6532,2.5702,2.4833,2.4833,2.4536,2.3941,2.3921,2.384,2.375,2.3602,2.345,2.336,2.4337,2.4942,2.5326,2.5834,2.6149,2.6288,2.6509,2.6698,2.6825,2.6825,2.6774,2.6708,2.6724,2.6856,2.7051,2.7348,2.747,2.7542,2.7787,2.7901,2.8002,2.8299,2.7828,2.7091,2.639,0.0,0.0,2.4083,2.3921,2.3959,2.3937,2.3238,2.2381,2.1587,2.0678,1.9811,1.9004,1.8843,1.8789,1.8715,1.8641,1.8544,1.833,1.829,1.8246,1.8095,1.7988,1.79,1.7811,1.7612,1.7425,1.7321,1.7075,1.6831,1.6659,1.6463,1.6344,1.6289,1.6067,1.5885,1.5712,1.5566,1.5388,1.5118,1.5041,1.4856,1.4651,1.5178,1.5578,1.5845,1.5887,1.6216,1.6693,1.6448,1.6231,1.6044,1.5836,1.557,1.5414,0.0,0.0,2.8246,2.8456,2.8551,2.8669,2.8767,2.8815,2.8803,0.0,2.8795,2.8795,2.8795,2.8724,2.87,2.87,2.8578,2.8504,2.8504,2.841,2.8384,2.8384,2.7597,2.6838,2.611,2.5231,2.444,2.3732,2.3692,2.3649,2.3522,2.3522,2.341,2.3283,2.3164,2.3035,2.2876,2.2694,2.3144,2.4034,2.4573,2.5077,2.5462,2.5406,2.5614,2.5976,2.6023,2.5969,2.5881,2.5947,2.6104,2.6297,2.6573,2.6724,2.6822,2.7098,2.7172,2.7257,2.7555,2.707,2.6313,2.5786,2.5129,0.0,2.3679,2.3522,2.3562,2.3544,2.2976,2.22,2.1327,2.0537,1.9712,1.882,1.8678,1.8678,1.8678,1.8638,1.8502,1.831,1.829,1.8246,1.8134,1.8048,1.7961,1.7833,1.7681,1.7489,1.7248,1.7149,1.7016,1.6763,1.6659,1.6543,1.6409,1.6289,1.6111,1.5928,1.5856,1.5654,1.5358,1.5328,1.5147,1.4899,1.5525,1.5889,1.6118,1.681,1.7077,1.6989,1.6693,1.6565,1.6436,1.6044,1.5836,1.5864,0.0,2.753,2.7648,2.7829,2.8,2.8065,2.8093,2.8201,2.8264,2.8246,2.821,2.8156,2.8102,2.8075,2.8075,2.8075,2.7992,2.7918,2.7816,2.7712,2.7672,2.7601,2.6352,2.5552,2.5412,2.4131,2.3377,2.3236,2.3135,2.3063,2.3025,2.294,2.2772,2.2582,2.2556,2.2412,2.2198,2.2101,2.2053,2.2132,2.311,2.3435,2.3401,2.3786,2.3862,2.3867,2.4358,2.4457,2.4409,2.499,2.5313,2.5481,2.5689,2.5872,2.6052,2.6264,2.6034,2.5759,2.5985,2.5146,2.4223,2.415,2.3702,0.0,2.306,2.314,2.3212,2.3271,2.31,2.2547,2.1224,2.0792,2.0164,1.8772,1.8505,1.8485,1.8617,1.8561,1.8465,1.831,1.8304,1.8277,1.819,1.8065,1.7983,1.7961,1.7743,1.7519,1.7377,1.7257,1.7149,1.7016,1.6789,1.6633,1.657,1.6425,1.6289,1.6139,1.6011,1.587,1.5712,1.5492,1.5314,1.525,1.6075,1.6453,1.6542,1.7374,1.7477,1.7157,1.7073,1.6808,1.6479,1.6392,1.6163,1.6029,2.6791,2.6889,2.6987,2.7227,2.7303,2.7348,2.7391,2.7482,2.7495,2.7495,2.7482,2.7422,2.7296,2.7282,2.722,2.7189,2.7144,2.7063,2.7,2.6967,2.6952,2.6888,2.5483,2.4692,2.4692,2.3292,2.2563,2.2563,2.2476,2.2422,2.2402,2.233,2.2175,2.2005,2.1948,2.1803,2.1552,2.146,2.1291,2.1071,2.1838,2.2214,2.2328,2.2479,2.2552,2.265,2.2952,2.2963,2.2856,2.3313,2.3515,2.3592,2.3806,2.3957,2.409,2.4398,2.4316,2.4246,2.4497,2.3844,2.313,2.3266,2.2864,0.0,0.0,2.259,2.2669,2.2721,2.2721,2.2375,2.1298,2.0802,2.0194,1.9026,1.8523,1.8319,1.838,1.8403,1.8385,1.8304,1.8298,1.8274,1.8211,1.8087,1.7961,1.7856,1.7726,1.7589,1.7408,1.7345,1.724,1.7149,1.6991,1.6873,1.6811,1.6612,1.6436,1.6355,1.6179,1.6039,1.5898,1.5697,1.5522,1.5417,1.6436,1.6774,1.6698,1.7768,1.7949,1.7543,1.7282,1.7073,1.682,1.6607,1.6392,1.633,2.5997,2.6104,2.621,2.6488,2.6522,2.659,2.6674,2.6657,2.664,2.6607,2.6607,2.6522,2.6387,2.6335,2.6248,2.6179,2.6125,2.609,2.6071,2.6071,2.6071,2.6035,2.4679,2.3901,2.3901,2.2477,2.1761,2.1761,2.1731,2.1702,2.1658,2.1628,2.1521,2.1352,2.1275,2.1118,2.0862,2.0781,2.0565,2.0311,2.0632,2.1012,2.1412,2.1233,2.1268,2.1409,2.1467,2.1485,2.1471,2.1565,2.1605,2.1684,2.1879,2.198,2.2118,2.2434,2.2561,2.2683,2.2964,2.257,2.2199,2.2407,2.2087,2.1761,0.0,0.0,0.0,2.2119,2.2164,2.1944,2.1315,2.0756,2.0159,1.945,1.8865,1.8533,1.8538,1.859,1.8572,1.8312,1.8274,1.8236,1.819,1.8065,1.79,1.7732,1.771,1.7618,1.7455,1.7408,1.7353,1.7232,1.7158,1.7099,1.7023,1.6785,1.6623,1.6528,1.6355,1.6179,1.6039,1.5898,1.5771,1.5728,1.6757,1.7102,1.6973,1.804,1.8321,1.7963,1.7502,1.7282,1.7157,1.6765,1.6607,1.6685,2.4847,2.5121,2.5221,2.5519,2.5615,2.5689,2.5832,2.5799,2.5693,2.5529,2.5491,2.54,2.5195,2.5211,2.5118,2.4987,2.4987,2.498,2.4894,2.4894,2.4871,2.4808,2.349,2.2769,2.2769,2.1496,2.0846,2.0846,2.0797,2.0748,2.0748,2.0698,2.0583,2.0434,2.0364,2.0227,2.0024,1.9829,1.9666,1.95,1.9266,1.953,2.0,1.9728,1.9465,1.9281,1.9598,2.0073,2.0542,2.0557,2.0641,2.0766,2.0932,2.1082,2.127,2.1486,2.1263,2.1022,2.1222,2.0875,2.0522,2.0724,2.0827,2.0894,2.1086,0.0,2.129,2.1538,0.0,2.1444,2.095,0.0,0.0,1.9925,1.9765,1.974,1.9773,1.9864,1.9484,1.8345,1.8172,1.8113,1.8113,1.7988,1.7878,1.7772,1.7726,1.7687,1.7664,1.7502,1.7384,1.7377,1.724,1.7149,1.7083,1.6998,1.6811,1.6596,1.657,1.6409,1.6166,1.6095,1.6229,1.6562,1.7078,1.7568,1.8028,1.8375,1.8478,1.84,1.8003,1.7584,1.7199,1.7157,1.6989,1.6987,2.3864,2.4158,2.4282,2.4486,2.4552,2.4592,2.4648,2.4576,2.4449,2.4271,2.4271,2.4189,2.3998,2.3956,2.3857,2.3673,2.3616,2.3631,2.3618,2.3618,2.3576,2.3548,2.2649,2.1974,2.1609,2.0752,2.0125,1.9849,1.9834,1.9849,1.9849,1.9814,1.9743,1.9651,1.9564,1.9398,1.9244,1.8991,1.8803,1.8612,1.8302,1.8263,1.8472,1.8612,1.8419,1.8082,1.8167,1.8343,1.8532,1.8532,1.8574,1.8658,1.8824,1.8934,1.9084,1.9393,1.9419,1.9373,1.9654,1.962,1.9564,1.9808,1.9949,2.0108,2.0314,2.0483,2.0616,2.0862,0.0,0.0,0.0,0.0,0.0,0.0,1.9822,1.9621,1.9658,1.9779,1.9732,1.9341,1.9303,0.0,1.9263,1.9199,1.9151,1.9096,1.9056,1.9031,1.9024,1.8466,1.8152,1.8095,1.7609,1.7265,1.7149,1.7099,1.6981,1.6811,1.6665,1.6543,1.6425,1.6234,1.6405,1.6894,1.7349,1.7802,1.8237,1.8654,1.8697,1.8478,1.8321,1.8003,1.7584,1.7282,1.7157,1.72,2.2243,2.2817,2.3113,2.3333,2.3362,2.3318,2.3318,2.3201,2.3084,2.2907,2.2907,2.2818,2.2593,2.2548,2.2457,2.2168,2.2168,2.2168,2.2168,2.2168,2.2168,2.2168,2.1558,2.0951,2.0401,1.9778,1.9208,1.8727,1.8788,1.8812,1.8812,1.8812,1.8788,1.8727,1.8584,1.8482,1.8369,1.8066,1.7867,1.7706,1.7327,1.7014,1.6827,1.7491,1.7476,1.7118,1.6993,1.6909,1.6808,1.6808,1.6808,0.0,1.7034,1.7118,1.7201,1.7626,1.7801,1.7988,1.8344,1.8511,1.8674,1.8968,1.9118,1.9251,1.9543,1.9737,1.9914,2.0158,2.0361,0.0,0.0,0.0,2.024,2.0349,0.0,1.9837,1.9882,2.008,2.0184,2.0018,2.0094,0.0,0.0,2.0085,2.0035,2.0002,2.0002,2.0002,2.001,1.9395,1.9018,1.8935,1.8153,1.765,1.7526,1.7255,1.7099,1.7023,1.6811,1.6665,1.6596,1.6398,1.6591,1.7076,1.7541,1.7989,1.8379,1.8877,1.8912,1.8659,1.8556,1.8321,1.8003,1.7543,1.7323,1.7382,1.962,2.0752,2.1791,2.1932,2.1979,2.1932,2.1791,2.1744,2.1649,2.1411,2.1363,2.1253,2.0984,2.0984,2.0851,2.0604,2.0568,2.0568,2.0568,2.0568,2.0568,2.0568,1.9995,1.9481,1.9086,1.846,1.7964,1.7544,1.7544,1.7544,1.7544,1.7544,1.7544,1.7544,1.7422,1.7353,1.7312,1.6993,1.6837,1.6795,1.633,1.5648,1.5018,1.6253,1.6484,1.6157,1.6064,0.0,0.0,1.5832,1.5832,0.0,0.0,0.0,0.0,1.6697,1.6837,1.6964,0.0,0.0,0.0,1.8027,0.0,1.8263,1.8731,1.8869,1.9043,1.9354,1.9603,1.9833,2.008,2.0174,2.0314,2.073,2.0813,0.0,0.0,2.1354,2.1118,1.9944,1.9942,2.0027,0.0,2.0035,2.0002,2.0002,2.0002,2.0002,2.0002,1.9976,1.9908,1.9772,1.8985,1.8501,1.835,1.76,1.7149,1.7083,1.7023,1.6853,1.6596,1.6596,1.6827,1.7209,1.7699,1.8173,1.8728,1.8973,1.9101,1.9026,1.8659,1.8478,1.8439,1.8043,1.7679,1.7534,1.8663,1.9341,1.9988,2.0372,2.0455,2.0406,2.0256,2.0168,2.0067,1.9851,1.9762,1.9608,1.9337,1.9337,1.9181,1.8843,1.8843,1.8843,1.8843,1.8843,1.8907,1.9049,1.8839,1.8382,1.7689,1.754,1.7103,1.6373,1.6434,1.6476,1.6574,1.6574,1.6574,1.6574,1.6471,1.6441,1.6398,1.6039,1.5864,1.5796,1.5057,1.4313,1.3724,1.4983,1.5013,1.4399,1.4369,1.4297,0.0,1.4194,1.4194,1.4224,1.4315,1.4399,1.4429,1.4853,1.4935,0.0,0.0,0.0,1.5749,1.6139,0.0,0.0,0.0,0.0,1.7969,1.8555,1.8884,1.9161,1.9384,1.9588,1.9839,2.007,2.0395,2.0613,0.0,2.1071,2.1256,2.1035,2.1194,2.1362,2.1478,0.0,2.1467,2.1505,2.1505,2.1505,2.1505,2.1022,2.0699,2.0656,1.9786,1.9066,1.8534,1.8169,1.7715,1.7174,1.7099,1.6981,1.6785,1.6649,1.6839,1.7312,1.7869,1.8318,1.8747,1.9277,1.9362,1.9101,1.895,1.8736,1.8439,1.8043,1.7842,1.7853,1.7631,1.7864,1.8344,1.9278,1.9377,1.9269,1.9061,1.8854,1.8627,1.8441,1.8182,1.7915,1.7654,1.7654,1.7544,1.7258,1.7203,1.7203,1.7203,1.7203,1.7269,1.7401,1.7457,1.7109,1.6277,1.6355,1.6012,1.5209,1.5264,1.5353,1.5454,1.5454,1.5454,1.5454,1.5433,1.54,1.54,1.5073,1.4937,1.4846,1.3961,1.3119,1.2454,0.0,1.3323,1.3106,0.0,1.3034,1.2879,1.2879,1.2879,1.292,1.3076,1.3106,1.3189,1.3517,1.3639,1.3709,1.4122,1.4292,0.0,1.4801,1.4942,0.0,1.5943,0.0,1.6615,0.0,1.7574,1.7946,1.8375,1.8716,1.9031,1.9507,1.9874,2.0154,0.0,2.0794,2.1167,2.1435,2.1738,2.1957,2.2094,2.2168,2.2214,2.2254,2.2282,2.231,2.231,0.0,2.1518,2.149,2.0653,1.982,1.9009,1.865,1.807,1.7273,1.7174,1.7083,1.6956,1.6785,1.6822,1.7083,1.7883,1.8342,1.8585,1.9386,1.9545,1.9288,1.9176,1.895,1.8659,1.8268,1.8262,1.8544,1.6456,1.6475,1.6918,1.8434,1.8572,1.8369,1.8137,1.7754,1.7328,1.6992,1.6607,1.628,1.6005,1.5948,1.5891,1.5671,1.5671,1.5671,1.5671,1.5671,1.5671,1.5728,1.5901,1.5644,1.4841,1.4935,1.4702,1.4129,1.4129,1.4165,1.4247,1.4247,1.4247,1.4247,1.4247,1.4247,1.4201,1.4165,1.4003,1.3767,1.3026,1.2064,1.1114,1.0981,1.1478,1.2256,1.2267,1.2129,1.1905,1.1905,1.1905,1.1948,1.2214,1.2256,1.2352,1.2699,1.2813,1.2927,1.3204,1.3419,1.3662,1.3971,0.0,0.0,0.0,0.0,1.5133,0.0,0.0,0.0,1.706,1.7497,1.8041,1.895,1.9303,1.9696,2.0308,2.0579,2.086,2.1135,2.1526,2.1781,2.1899,2.2065,2.2168,2.2185,2.2254,2.2282,2.2282,0.0,2.2254,2.2214,2.1507,2.0713,1.9784,1.9042,1.8253,1.7461,1.7306,1.7174,1.7083,1.6956,1.6811,1.6659,1.7831,1.8269,1.8283,1.9325,1.9726,1.9639,1.9288,1.9101,1.9064,1.8673,1.8948,1.953,1.5664,1.5742,1.5859,1.6115,1.6412,1.6568,1.6398,1.598,1.5571,1.5369,1.4902,1.4542,1.4177,1.4177,1.4058,1.3777,1.3717,1.3777,1.3837,1.3897,1.3957,1.4246,1.4433,1.4229,1.3502,1.3664,1.3465,1.2851,1.2851,1.2948,1.3198,1.3198,1.3198,1.3198,1.3198,1.3198,1.3198,1.3054,1.2582,1.191,1.1634,1.0904,0.9984,0.0,0.9947,1.008,1.0454,1.0575,1.0495,1.0495,1.0495,1.0535,1.0575,1.0645,1.0725,1.0924,1.1083,1.1269,1.1492,1.1686,1.1877,1.2144,1.237,1.2686,0.0,0.0,0.0,0.0,0.0,0.0,0.0,0.0,1.7267,1.7707,1.8642,1.9427,1.9894,2.0174,2.0478,2.0777,2.1103,2.1433,2.1781,2.1886,2.1945,2.2044,2.2152,2.2242,2.2242,0.0,0.0,2.2282,2.204,2.1502,2.0665,1.9844,1.8991,1.8136,1.7593,1.7248,1.7108,1.7057,1.6889,1.6659,1.8006,1.8438,1.8315,1.9599,1.9975,1.969,1.9581,1.9347,1.9064,1.8673,1.8686,1.8976,1.4829,1.4695,1.4537,1.425,1.4399,1.4663,1.5019,1.4632,1.4153,1.3888,1.3368,1.2923,1.2671,1.2549,1.2496,1.2381,1.2266,1.232,1.2443,1.2443,1.2565,1.2879,1.3053,1.2831,1.2206,1.2474,1.2316,1.1683,1.1783,1.199,1.2236,1.2236,1.2236,1.2344,1.2344,1.2344,1.2295,1.2197,1.173,1.1058,1.0795,1.0213,0.0,0.9261,0.9047,0.8935,0.9217,0.9417,0.9585,0.9585,0.9585,0.9576,0.9616,0.9695,0.9755,0.9922,1.0118,1.0361,1.0467,1.0736,1.0954,1.1094,1.1356,1.173,1.2197,1.2516,1.2896,0.0,0.0,0.0,0.0,0.0,1.6449,1.7438,1.8351,1.9058,1.9442,1.9767,2.012,2.046,2.0728,2.1055,2.1464,2.1648,2.1797,2.1882,2.2032,0.0,0.0,0.0,0.0,2.2271,2.2254,2.1844,2.1049,2.0197,1.9351,1.8518,1.7749,1.7346,1.7224,1.7133,1.6991,1.6901,1.8165,1.8589,1.8516,1.9767,2.0166,1.994,1.9762,1.9472,1.9064,1.8851,1.8857,1.9057,1.384,1.3542,1.3164,1.2718,1.2512,1.2645,1.3591,1.3286,1.2885,1.2498,1.1897,1.1454,1.1205,1.108,1.108,1.1142,1.108,1.108,1.1205,1.126,1.1337,1.1545,1.1717,1.1541,1.1047,1.1334,1.1271,1.0716,1.0828,1.1065,1.1318,1.1318,1.1418,1.1528,1.1528,1.1528,1.1528,1.1427,1.1152,1.0733,1.0199,0.9729,0.9273,0.8824,0.8561,0.8439,0.8365,0.8578,0.8935,0.8935,0.8935,0.8935,0.9056,0.9168,0.9239,0.9368,0.9655,0.9902,0.9902,1.0205,1.0544,1.0611,1.0878,1.118,1.133,1.1553,1.1774,1.2066,1.2282,1.2711,0.0,0.0,1.5737,1.749,1.8185,1.863,1.8988,1.9347,1.9747,2.007,2.0426,0.0,2.1006,2.1402,2.1678,2.1721,2.1882,0.0,0.0,0.0,0.0,2.2168,2.2254,2.1933,2.1221,0.0,1.9554,1.8826,1.7864,1.7411,1.7387,1.7224,1.7108,1.7164,1.8279,1.8738,1.8789,1.99,2.0339,2.027,1.9869,1.9508,1.9176,1.9101,1.9233,1.9402,1.2445,1.2144,1.1922,1.1477,1.1254,1.1033,1.0725,1.1058,1.118,1.0816,1.0231,0.9831,0.9709,0.9646,0.9588,0.9454,0.9396,0.9518,0.9831,0.9831,1.0021,1.0275,1.0598,1.056,1.0214,1.0422,1.0389,1.0163,1.0053,1.0182,1.0454,1.0454,1.0514,1.0718,1.0718,1.0718,1.0726,1.0675,1.0456,1.0044,0.9681,0.9244,0.8779,0.8425,0.8201,0.8103,0.8062,0.8275,0.8496,0.8496,0.8496,0.8537,0.8602,0.8716,0.8846,0.8984,0.9217,0.9408,0.9408,0.9765,1.0098,1.0137,1.0428,1.0725,1.0736,1.1029,1.1367,1.159,1.1836,1.2125,1.2603,0.0,0.0,1.6494,1.7397,1.8108,1.8553,1.8936,1.9347,1.9747,2.003,2.0323,2.0595,2.1087,2.1402,2.1479,2.1691,0.0,0.0,0.0,0.0,0.0,2.2152,0.0,0.0,0.0,1.9762,1.9517,1.8128,1.7443,1.7411,1.7322,1.7207,1.7164,1.8478,1.8885,1.8803,2.0161,2.0561,2.027,1.9869,1.9654,1.953,1.9213,1.9136,1.9243,1.1335,1.1111,1.0887,1.0443,1.0143,0.9798,0.9222,0.92,0.9311,0.9411,0.9034,0.8689,0.863,0.8501,0.8501,0.8501,0.8376,0.8501,0.8812,0.8812,0.9005,0.9332,0.9594,0.9592,0.9377,0.9727,0.9731,0.9322,0.9458,0.9578,0.9681,0.9681,0.9784,1.0043,1.0043,1.0043,1.0043,0.0,0.0,0.9695,0.9249,0.8852,0.852,0.8015,0.7787,0.7697,0.7697,0.778,0.7912,0.8118,0.8193,0.8193,0.8226,0.8316,0.8447,0.8618,0.8814,0.8999,0.9128,0.9368,0.9655,0.9725,1.001,1.0283,1.0312,1.0621,1.0954,1.1207,1.1431,1.1841,1.2607,1.3746,0.0,0.0,0.0,1.7639,1.8068,1.85,1.8936,1.9347,1.969,2.001,2.0289,2.0646,2.099,2.1294,2.1495,0.0,0.0,0.0,0.0,0.0,0.0,0.0,0.0,0.0,0.0,1.9168,1.8037,1.7491,1.7443,1.7371,1.7298,1.7273,1.82,1.8708,1.9012,2.0289,2.0595,2.027,2.0096,1.9869,1.969,1.9457,1.9288,1.9214,1.0519,1.0368,1.0143,0.9544,0.9281,0.8896,0.8293,0.784,0.7734,0.8198,0.7956,0.7722,0.7657,0.7531,0.7531,0.7722,0.7558,0.7593,0.7906,0.7925,0.8095,0.8424,0.8659,0.8719,0.8707,0.9138,0.9172,0.8783,0.9015,0.0,0.0,0.9157,0.9274,0.9458,0.951,0.0,0.0,0.0,0.951,0.9467,0.8909,0.8594,0.8411,0.7795,0.7504,0.7419,0.7419,0.7419,0.7454,0.778,0.7855,0.7897,0.7946,0.7995,0.8134,0.8291,0.8488,0.8683,0.8814,0.9056,0.9248,0.9368,0.9607,0.9902,0.9971,1.0273,1.0582,1.0829,1.1084,1.1588,1.2594,1.3477,0.0,0.0,0.0,0.0,1.7612,1.8068,1.85,1.8898,1.9325,1.969,1.996,2.022,2.0561,2.1006,2.1246,0.0,2.1603,0.0,0.0,0.0,0.0,2.1652,2.095,0.0,1.9351,1.8693,1.7871,1.7515,1.7515,1.7419,1.7371,1.7355,1.788,1.8566,1.9383,2.0385,2.0628,2.0373,2.0304,2.0131,1.9833,1.9726,1.9493,1.9351,1.0067,0.9916,0.969,0.8932,0.8627,0.8281,0.77,0.7159,0.6844,0.7061,0.6951,0.6741,0.6548,0.6552,0.6613,0.6806,0.6655,0.6683,0.698,0.6993,0.7079,0.727,0.7762,0.811,0.8269,0.8522,0.8807,0.9053,0.0,0.8966,0.0,0.9039,0.9004,0.0,0.0,0.0,0.0,0.9263,0.9263,0.9228,0.884,0.8539,0.8299,0.7909,0.7615,0.7419,0.7419,0.7419,0.7419,0.7454,0.7454,0.7496,0.767,0.7753,0.7795,0.7987,0.8234,0.8414,0.8455,0.87,0.8952,0.9024,0.9208,0.9448,0.9674,0.9941,1.0196,1.0418,1.0905,1.1404,1.1671,1.2559,1.3477,0.0,0.0,0.0,0.0,1.7598,1.8028,1.85,1.8898,1.9273,1.953,1.9833,2.0166,2.0444,2.0925,0.0,0.0,0.0,0.0,2.1724,0.0,2.1508,2.0833,2.0057,1.9351,1.8693,1.7871,1.7515,1.7515,1.7419,1.7411,1.742,1.7958,1.8868,1.9967,2.0543,2.0744,2.0626,2.0407,2.027,2.02,1.9833,1.969,1.9775,0.962,0.9473,0.0,0.0,0.0,0.0,0.0,0.6863,0.6479,0.6308,0.6284,0.6218,0.609,0.6086,0.611,0.6069,0.6129,0.617,0.6301,0.6401,0.6538,0.6782,0.723,0.7596,0.7908,0.8296,0.8617,0.0,0.0,0.0,0.0,0.0,0.0,0.0,0.0,0.8738,0.8738,0.8738,0.8738,0.8712,0.8362,0.8177,0.8026,0.7564,0.7319,0.7194,0.7022,0.7041,0.7083,0.7083,0.7251,0.7419,0.7503,0.7538,0.7614,0.7787,0.7953,0.8126,0.8332,0.8496,0.8618,0.8773,0.8967,0.9177,0.9346,0.9625,0.9941,1.0157,1.0687,1.1132,1.1394,1.2112,1.2968,0.0,0.0,0.0,0.0,1.7144,1.7598,1.8028,1.8461,1.8898,1.925,1.9545,1.9833,2.0131,2.061,0.0,0.0,0.0,0.0,2.1526,0.0,2.073,2.002,1.9329,1.8651,1.797,1.7647,1.7515,1.7515,1.7467,1.7443,1.7436,1.8457,1.9119,1.9605,2.0591,2.0876,2.0744,2.0494,2.0357,2.027,2.0045,1.9833,1.9869,0.9397,0.0,0.8941,0.0,0.7965,0.7603,0.7254,0.6684,0.6289,0.6036,0.5954,0.5892,0.576,0.576,0.5756,0.5653,0.5723,0.5751,0.5819,0.5931,0.6073,0.637,0.6801,0.0,0.7624,0.8101,0.8431,0.8515,0.8822,0.0,0.0,0.0,0.0,0.0,0.8406,0.8421,0.8421,0.8421,0.8421,0.8355,0.8152,0.7974,0.7847,0.738,0.7152,0.709,0.681,0.6751,0.6836,0.6872,0.7041,0.7251,0.7335,0.737,0.7447,0.7579,0.7753,0.7919,0.8167,0.8291,0.8373,0.857,0.8765,0.8935,0.9096,0.9386,0.9744,1.0088,1.0467,1.084,1.1132,1.1686,1.2435,1.3489,0.0,0.0,0.0,1.6735,1.7144,1.7544,1.8028,1.8461,1.886,1.9161,1.9508,1.9848,0.0,0.0,0.0,0.0,0.0,0.0,0.0,0.0,0.0,1.8706,1.8129,1.7515,1.7515,1.7515,1.7515,1.7515,1.7467,1.7453,1.8778,1.9288,1.9305,2.0589,2.1022,2.0811,2.0662,2.0494,2.0323,2.022,2.001,1.9948,0.9397,0.9322,0.9018,0.8255,0.7859,0.7459,0.7095,0.6579,0.6214,0.621,0.602,0.576,0.5428,0.5428,0.5429,0.5586,0.5493,0.5453,0.557,0.5617,0.5686,0.0,0.0,0.6847,0.7384,0.7823,0.8247,0.877,0.0,0.0,0.8874,0.0,0.8621,0.8608,0.8441,0.8421,0.8421,0.8421,0.8421,0.8421,0.8421,0.8196,0.7866,0.7588,0.7317,0.709,0.681,0.6715,0.6715,0.6872,0.6914,0.6956,0.7132,0.7216,0.7251,0.744,0.7614,0.7712,0.7878,0.8044,0.8258,0.8373,0.857,0.8765,0.8975,0.9248,0.9637,1.0205,1.0351,1.0495,1.084,1.1142,1.1746,1.3096,0.0,0.0,0.0,1.6293,1.668,1.7157,1.7557,1.7988,1.8461,1.8812,1.9168,1.9493,0.0,0.0,0.0,0.0,0.0,2.0337,2.0305,0.0,1.8416,1.8425,1.8104,1.7515,1.7515,1.7515,1.7515,1.7515,1.7467,1.7453,1.8815,1.9328,1.9305,2.0635,2.1087,2.0893,2.0811,2.0662,2.0494,2.0339,2.022,2.0137,0.9544,0.9251,0.8941,0.8556,0.807,0.7593,0.7233,0.6712,0.6284,0.6214,0.602,0.5892,0.576,0.5756,0.565,0.0,0.5491,0.5455,0.0,0.5487,0.5733,0.598,0.6402,0.6913,0.7614,0.784,0.8182,0.8582,0.0,0.0,0.0,0.8776,0.8573,0.8391,0.8178,0.8062,0.8062,0.8062,0.8062,0.8062,0.8062,0.8006,0.7896,0.7672,0.7407,0.7136,0.6871,0.6743,0.6715,0.6757,0.6872,0.6985,0.7027,0.7118,0.7209,0.737,0.7489,0.7614,0.7829,0.7995,0.8111,0.825,0.8406,0.8602,0.8765,0.9159,0.9567,0.9823,1.0137,1.039,1.0659,1.0878,1.1488,1.2872,1.3316,0.0,1.5448,0.0,1.6337,1.6808,1.7186,1.7557,1.7988,1.8397,0.0,0.0,0.0,0.0,0.0,0.0,0.0,0.0,1.9203,0.0,1.8209,1.788,1.7609,1.7419,1.7491,1.7515,1.7515,1.7515,1.7491,1.7517,1.8341,1.8952,1.9409,2.0208,2.0748,2.1087,2.0893,2.0761,2.0662,2.0441,2.0304,2.0327,0.9771,0.9549,0.9241,0.8851,0.8285,0.7801,0.7517,0.6988,0.6548,0.6478,0.635,0.6284,0.6284,0.6284,0.0,0.5643,0.5616,0.5581,0.5354,0.5617,0.5944,0.6297,0.663,0.7144,0.7783,0.7999,0.0,0.8641,0.8958,0.9191,0.9214,0.895,0.8687,0.8423,0.8165,0.7991,0.7901,0.7901,0.7901,0.7901,0.7901,0.7955,0.7978,0.7756,0.7598,0.7468,0.7195,0.7013,0.6867,0.6905,0.6963,0.6985,0.6979,0.7076,0.7216,0.7377,0.7412,0.753,0.7753,0.7904,0.8021,0.8118,0.8316,0.8561,0.8765,0.9119,0.9487,0.9674,0.995,1.0244,1.0428,1.083,1.1464,1.2708,1.3191,1.3867,1.5173,0.0,1.5988,1.6479,0.0,0.0,0.0,1.8002,1.8397,0.0,0.0,0.0,0.0,0.0,0.0,1.8964,1.8311,0.0,1.7714,1.7461,1.7346,1.7411,1.7467,1.7515,1.7515,1.7515,1.7515,1.7524,1.8136,1.8792,1.946,2.0036,2.0647,2.1183,2.099,2.0876,2.0761,2.0577,2.0457,2.0366,1.0067,0.9916,0.969,0.0,0.8573,0.0,0.7872,0.7328,0.6946,0.6946,0.6946,0.6946,0.6881,0.6881,0.6681,0.6058,0.0,0.0,0.0,0.6041,0.6276,0.6635,0.7011,0.7476,0.7928,0.8132,0.8436,0.8835,0.9145,0.9408,0.9542,0.9258,0.8987,0.8721,0.8462,0.8202,0.7955,0.7955,0.7955,0.7955,0.7955,0.8062,0.819,0.7941,0.793,0.7973,0.7717,0.7442,0.7154,0.7283,0.7139,0.6947,0.7012,0.7132,0.7216,0.7377,0.7419,0.7454,0.7628,0.7863,0.8021,0.8021,0.8267,0.8602,0.8895,0.9128,0.9368,0.9634,0.9832,1.0068,1.0283,1.0925,1.1686,1.2584,1.326,1.4027,1.4949,1.5289,1.5647,0.0,0.0,0.0,0.0,1.7611,1.7948,0.0,0.0,0.0,0.0,0.0,1.8563,1.7603,1.7606,1.7422,1.7083,1.7149,1.7248,1.7411,1.7467,1.7515,1.7515,1.7515,1.7515,1.7524,1.8095,1.8743,1.946,2.0062,2.0675,2.1215,2.1135,2.099,2.0794,2.0744,2.0592,2.0423,0.0,0.0,0.9841,0.969,0.9093,0.8513,0.8306,0.7807,0.7405,0.7138,0.7138,0.7073,0.6946,0.7007,0.7055,0.6876,0.6633,0.6441,0.6258,0.6534,0.6837,0.7064,0.7422,0.7802,0.8361,0.8415,0.87,0.921,0.9274,0.9472,0.9734,0.9445,0.9228,0.9066,0.8796,0.8519,0.8268,0.8268,0.8268,0.8268,0.8268,0.8321,0.8362,0.8298,0.8146,0.8005,0.7935,0.7772,0.7574,0.7615,0.7472,0.7368,0.7456,0.7351,0.7216,0.7377,0.7447,0.753,0.767,0.7863,0.8021,0.8021,0.8349,0.8683,0.8765,0.9039,0.9319,0.9368,0.9655,1.0035,1.0591,1.0931,1.154,1.2681,1.3222,1.3816,1.4595,1.4971,1.5334,0.0,1.6088,1.6491,1.696,1.7308,1.7666,0.0,0.0,0.0,0.0,1.7267,1.7242,1.7296,1.6952,1.6807,1.6789,1.7016,1.7224,1.7411,1.7467,1.7515,1.7515,1.7515,1.7515,1.7515,1.7657,1.835,1.9411,1.9563,2.0264,2.1262,2.1215,2.1135,2.099,2.0843,2.0711,2.0592,1.0887,1.0594,1.0368,1.0218,0.9694,0.9132,0.8881,0.8429,0.7971,0.7606,0.7596,0.7531,0.74,0.7531,0.7596,0.7596,0.7208,0.6977,0.6875,0.7111,0.7404,0.7648,0.7949,0.8255,0.87,0.8705,0.8958,0.9396,0.953,0.9728,0.9856,0.9762,0.9535,0.9188,0.9036,0.875,0.8421,0.8421,0.8421,0.8421,0.8421,0.8421,0.8474,0.8474,0.8436,0.8358,0.8358,0.827,0.8116,0.8116,0.8011,0.7852,0.7905,0.7885,0.7797,0.7879,0.7709,0.7523,0.7746,0.7904,0.8021,0.8185,0.8472,0.8724,0.8773,0.9047,0.9319,0.9319,0.9712,1.0199,1.0631,1.1207,1.189,1.272,1.324,1.3793,1.4444,1.4754,0.0,1.5424,1.5792,1.6188,1.6607,1.696,1.7231,1.7329,1.7157,0.0,1.6479,1.6172,1.6204,1.6646,1.6475,1.6463,1.6659,1.6949,1.7199,1.7411,1.746,1.7467,1.7515,1.7515,1.7515,1.7515,1.7515,1.8227,1.9394,1.9394,2.013,2.1277,2.1247,2.1167,2.107,2.0893,2.0794,2.074,1.1335,1.1186,1.1037,1.0663,1.0313,0.9868,0.9509,0.9039,0.859,0.826,0.8138,0.8117,0.8052,0.8117,0.8117,0.8117,0.781,0.7631,0.7506,0.7709,0.8022,0.8267,0.8468,0.8705,0.9081,0.9145,0.9274,0.9582,0.9849,1.0047,1.0047,1.011,0.9829,0.9376,0.933,0.9078,0.8592,0.8546,0.8527,0.8527,0.8527,0.858,0.8679,0.8679,0.8738,0.8857,0.8857,0.8799,0.8682,0.8682,0.8574,0.8364,0.8412,0.8471,0.8515,0.8569,0.8178,0.7794,0.7978,0.8108,0.8237,0.8583,0.8725,0.8865,0.9022,0.9269,0.9497,0.9497,1.0013,1.0531,1.0776,1.1551,1.2329,1.2802,1.3268,1.3752,1.4291,0.0,1.48,1.521,1.5525,1.5913,1.6238,1.6607,1.6757,1.6573,1.6329,1.6076,1.5755,1.5432,1.5463,1.5911,1.6067,1.6316,1.6596,1.694,1.7199,1.7363,1.7387,1.7419,1.7491,1.7491,1.7515,1.7515,1.7614,1.831,1.9411,1.9525,2.0244,2.1277,2.1247,2.1183,2.1103,2.099,2.086,2.0805,1.1929,1.1558,1.1335,1.126,1.0827,1.0359,1.0312,0.9691,0.9243,0.9008,0.8827,0.8641,0.8447,0.8576,0.8705,0.8705,0.8731,0.857,0.8115,0.8452,0.865,0.8709,0.8871,0.9081,0.939,0.9722,0.9856,0.9919,0.9983,1.011,1.0238,1.0434,1.0374,1.0214,1.0014,0.9763,0.948,0.9217,0.9054,0.9054,0.9054,0.9106,0.9106,0.9106,0.9106,0.9159,0.9159,0.9131,0.9089,0.9089,0.8938,0.8785,0.8974,0.8875,0.8702,0.895,0.8928,0.8845,0.8761,0.8729,0.8889,0.9326,0.9377,0.9401,0.9729,1.0064,1.0312,1.0312,1.0587,1.1008,1.1599,1.1945,1.2324,1.301,1.3426,1.3716,1.402,0.0,1.4558,1.4915,1.5322,1.5736,1.6188,1.6448,1.6507,1.6349,1.6004,1.5699,1.5482,1.5213,1.5209,1.5566,1.5854,1.6219,1.6596,1.694,1.7108,1.7149,1.7322,1.7411,1.7436,1.7467,1.7515,1.7531,1.8104,1.8755,1.9443,2.0066,2.073,2.1309,2.1294,2.123,2.1199,2.1103,2.0974,2.0939,1.2378,1.215,1.2003,1.1781,1.1458,1.118,1.0893,1.0514,1.0179,0.9697,0.9489,0.9361,0.9098,0.9145,0.921,0.921,0.9344,0.9344,0.9081,0.9087,0.9087,0.9145,0.9344,0.9536,0.9786,1.011,1.0301,1.0301,1.0491,1.0618,1.0744,1.0814,1.0712,1.047,1.0391,1.0121,0.9666,0.9519,0.9365,0.9211,0.9211,0.9211,0.9211,0.9211,0.9211,0.9211,0.9263,0.9361,0.9413,0.9472,0.9482,0.946,0.9612,0.9507,0.943,0.9536,0.9429,0.919,0.9237,0.9257,0.9358,0.9711,0.9756,0.9798,1.0103,1.0318,1.0543,1.0588,1.0995,1.1444,1.1836,1.2186,1.2569,1.314,1.3314,0.0,0.0,1.415,1.4419,1.48,1.5165,1.5525,1.5893,1.6231,1.6212,1.5698,1.5668,1.5421,1.4848,1.484,1.4996,1.5225,1.5797,1.6234,1.649,1.6717,1.694,1.7108,1.7183,1.7273,1.7346,1.7395,1.7378,1.7428,1.8094,1.8766,1.9404,2.0139,2.0768,2.1309,2.1309,2.1262,2.1183,2.1167,2.1038,2.1052,1.2973,1.282,1.2673,1.2305,1.2224,1.2004,1.1499,1.1344,1.1076,1.043,1.0325,1.011,0.9774,0.9744,0.9719,0.9722,0.9856,0.9932,0.9989,0.9786,0.9652,0.9588,0.9856,1.0053,1.0174,1.0555,1.0751,1.0751,1.0996,1.1122,1.1122,1.1185,1.1119,1.0877,1.0866,1.0566,1.0163,1.0036,0.9821,0.9528,0.9528,0.9485,0.9368,0.9368,0.9368,0.942,0.9517,0.9621,0.9725,0.9792,0.9947,1.0102,1.0102,1.0154,1.0154,1.0205,0.9933,0.9707,0.9802,0.9839,0.99,1.0208,1.0259,1.0262,1.0571,1.0727,1.0866,1.0957,1.1444,1.1865,1.2016,1.2416,1.2813,1.317,0.0,0.0,0.0,1.4104,1.4326,1.473,1.504,1.5345,1.5671,1.6057,1.5932,1.5095,1.5398,1.5193,1.4289,1.4543,1.4811,1.5043,1.5769,1.6207,1.6344,1.6517,1.6743,1.6991,1.7057,1.7158,1.7257,1.7281,1.7306,1.7355,1.8182,1.8833,1.9381,2.0261,2.09,2.1309,2.1309,2.1262,2.1215,2.1215,2.1199,2.1405,1.3717,1.3419,1.3127,1.3119,1.282,1.2519,1.2498,1.2116,1.1779,1.1527,1.1292,1.095,1.0466,1.0441,1.0398,1.0263,1.0238,1.0371,1.0498,1.0618,1.0491,0.9983,1.0308,1.0618,1.0744,1.0933,1.1059,1.1059,1.1059,1.1185,1.131,1.1498,1.1608,1.1695,1.1571,1.1523,1.1455,1.1142,1.0814,1.0501,1.0501,1.0265,0.9947,0.9947,0.9947,0.9947,0.9947,0.9947,0.9947,0.9999,1.011,1.0316,1.0419,1.0565,1.0667,1.082,1.083,1.0788,1.0788,1.0598,1.0569,1.1055,1.1031,1.0963,1.146,1.1688,1.1787,1.1787,1.2061,1.2286,1.2433,1.2608,1.2813,1.317,0.0,0.0,1.3915,1.402,1.4208,1.473,1.4891,1.5142,1.5671,1.5913,1.5678,1.4874,1.5159,1.4941,1.4066,1.4342,1.4735,1.5268,1.5755,1.6067,1.6222,1.6463,1.6623,1.6649,1.694,1.7108,1.7108,1.7232,1.7306,1.7388,1.8723,1.9306,1.9414,2.0752,2.1323,2.1309,2.1309,2.1294,2.1294,2.123,2.1633,2.2276,1.4263,1.4065,1.3855,1.3637,1.3419,1.3273,1.32,1.2875,1.2583,1.2395,1.2129,1.1874,1.1499,1.1235,1.108,1.103,1.0917,1.0807,1.094,1.1059,1.0996,1.0681,1.0807,1.0996,1.1122,1.131,1.1435,1.1553,1.1685,1.1747,1.1809,1.1872,1.1934,1.1988,1.1928,1.1813,1.1606,1.1475,1.1222,1.0908,1.1019,1.0942,1.0833,1.0942,1.0997,1.0973,1.0814,1.0735,1.0704,1.0585,1.0616,1.0667,1.0718,1.082,1.0972,1.1226,1.1267,1.1267,1.1368,1.1223,1.1096,1.1434,1.1463,1.1451,1.1742,1.1927,1.2026,1.2126,1.2382,1.2578,1.2627,1.2783,1.3017,1.317,0.0,1.3467,1.3926,1.402,1.4208,1.473,1.4834,1.5096,1.5513,1.5824,1.5783,1.5293,1.5273,1.5036,1.4475,1.4542,1.478,1.5088,1.5477,1.5797,1.6067,1.6262,1.6452,1.6596,1.6743,1.6889,1.7048,1.7099,1.7376,1.7841,1.886,1.9532,1.9978,2.0951,2.1309,2.1309,2.1309,2.1309,2.1342,2.1795,2.2118,2.2454,1.4928,1.472,1.4505,1.4225,1.408,1.3935,1.3783,1.363,1.3404,1.3128,1.302,1.2756,1.2365,1.2137,1.1966,1.194,1.1639,1.1524,1.1587,1.1549,1.1498,1.131,1.131,1.1373,1.156,1.1685,1.1809,1.1934,1.212,1.2251,1.2313,1.2313,1.2367,1.2367,1.2367,1.2234,1.2015,1.2015,1.187,1.1547,1.1662,1.159,1.1551,1.1664,1.1728,1.1696,1.1562,1.1535,1.1494,1.1406,1.1427,1.1479,1.1479,1.1575,1.174,1.1938,1.199,1.205,1.2247,1.2046,1.1829,1.1805,1.1828,1.1877,1.2026,1.2175,1.2274,1.2323,1.2529,1.2725,1.2783,1.2929,1.3123,1.3266,1.3362,1.3573,1.3973,1.4057,1.4255,1.473,1.4846,1.5017,1.5468,1.5736,1.5782,1.5509,1.5473,1.5247,1.4818,1.4697,1.4749,1.4951,1.5269,1.558,1.5854,1.6095,1.6289,1.6517,1.657,1.6717,1.6962,1.7197,1.7603,1.8125,1.9123,1.9819,2.0353,2.1034,2.1309,2.1309,2.1309,2.1309,2.1406,2.2135,2.2522,2.286,1.5839,1.5332,1.4944,1.4944,1.4649,1.4433,1.4433,1.4209,1.4065,1.3863,1.3797,1.3591,1.3053,1.3009,1.2954,1.2916,1.257,1.2375,1.2577,1.2319,1.2003,1.1809,1.1809,1.1872,1.2127,1.2127,1.2182,1.2305,1.2305,1.249,1.2805,1.2805,1.2867,1.2989,1.2989,1.2989,1.2989,1.2989,1.2835,1.2505,1.2505,1.2282,1.2016,1.2016,1.2008,1.2016,1.2175,1.2231,1.2231,1.2462,1.2572,1.2683,1.2692,1.2793,1.2903,1.3077,1.3132,1.3177,1.3495,1.3249,1.2786,1.2227,1.2126,1.2175,1.2431,1.248,1.248,1.248,1.2627,1.2735,1.2881,1.3027,1.3172,1.3372,1.3515,1.3716,1.3973,1.414,1.4373,1.473,1.4787,1.4994,1.5468,1.5614,1.5632,1.5438,1.5652,1.5556,1.5042,1.4697,1.4624,1.4916,1.5162,1.5403,1.5624,1.5998,1.6234,1.6301,1.6517,1.6665,1.6843,1.7653,1.8001,1.8108,1.9644,2.0305,2.037,2.1034,2.1309,2.1309,2.1309,2.1309,2.1406,2.2135,2.2863,2.361,1.6949,1.6512,1.6093,1.5811,1.5458,1.5141,1.4991,1.4784,1.4649,1.4577,1.4433,1.4322,1.4142,1.3917,1.3808,1.3776,1.3514,1.3375,1.3507,1.318,1.3035,1.3035,1.2492,1.2305,1.256,1.2621,1.2683,1.2797,1.2797,1.2858,1.2928,1.3094,1.3155,1.3216,1.3338,1.3338,1.3338,1.3338,1.327,1.3228,1.3357,1.3348,1.3244,1.3362,1.3421,1.3386,1.3107,1.3059,1.3024,1.2937,1.2967,1.3022,1.3277,1.3341,1.345,1.3558,1.3612,1.3612,1.3828,1.3786,1.3532,1.2959,1.2588,1.2382,1.248,1.2627,1.2783,1.2783,1.29,1.3084,1.3084,1.3228,1.3382,1.3525,1.3668,1.381,1.4093,1.428,1.4477,1.4776,1.4846,1.5062,1.5468,1.5614,1.5776,1.5967,1.5989,1.588,1.5594,1.5651,1.5799,1.6019,1.6341,1.6605,1.6799,1.6248,1.6055,1.625,1.6909,1.731,1.7452,1.8206,1.8911,1.9492,1.9957,2.0471,2.1034,2.1228,2.1309,2.1309,2.1309,2.1633,2.2167,2.2896,2.3592,2.4288,1.7948,1.7498,1.7075,1.6863,1.6323,1.5922,1.577,1.5518,1.5284,1.5284,1.5133,1.5062,1.5062,1.4944,1.4813,1.4813,1.456,1.428,1.4197,1.4047,1.3986,1.4115,1.365,1.3268,1.2989,1.2981,1.3103,1.3346,1.3346,1.3346,1.3407,1.3519,1.358,1.358,1.364,1.3761,1.3761,1.3761,1.3812,1.3932,1.4061,1.4061,1.4061,1.4181,1.4181,1.4145,1.3961,1.3929,1.3892,1.3846,1.3885,1.3998,1.4157,1.4259,1.4371,1.4492,1.4547,1.4603,1.4723,1.4651,1.4444,1.4072,1.363,1.3268,1.3319,1.347,1.3571,1.3571,1.3661,1.3791,1.3901,1.396,1.4047,1.4056,1.4131,1.4259,1.4255,1.4373,1.4569,1.48,1.4926,1.5096,1.5468,1.5659,1.5937,1.6374,1.6173,1.6061,1.6093,1.6149,1.6244,1.6494,1.6795,1.7069,1.729,1.6812,1.6698,1.6964,1.7511,1.786,1.8079,1.8865,1.9494,2.0029,2.0379,2.0811,2.1262,2.1294,2.1309,2.1341,2.1633,2.2005,2.2523,2.3511,2.4142,2.4596,1.8923,1.8373,1.8024,1.8024,1.7385,1.6826,1.6817,1.6349,1.5955,1.5955,1.5929,1.5833,1.5833,1.5833,1.5833,1.5833,1.5541,1.5197,1.4835,1.4841,1.4898,1.5103,1.5077,1.4589,1.3561,1.3458,1.3554,1.383,1.383,1.389,1.407,1.407,1.407,1.407,1.407,1.413,1.4249,1.4249,1.4359,1.4529,1.4538,1.4529,1.4529,1.4588,1.4588,1.4588,1.4715,1.4765,1.4765,1.497,1.5156,1.5274,1.5274,1.5371,1.5478,1.5662,1.573,1.5798,1.5914,1.5725,1.5401,1.5456,1.5023,1.4593,1.4629,1.4661,1.4661,1.4661,1.4661,1.4777,1.4997,1.5049,1.5007,1.4818,1.4903,1.4888,1.4551,1.4589,1.4753,1.4915,1.5051,1.5244,1.5468,1.5703,1.6069,1.6675,1.6332,1.6268,1.6652,1.6413,1.6373,1.6625,1.6909,1.7173,1.7447,1.7663,1.7867,1.8098,1.8237,1.8424,1.87,1.9515,1.9909,2.0019,2.083,2.1183,2.1215,2.1262,2.1277,2.1358,2.2118,2.2442,2.2653,2.3997,2.4531,2.4677,1.9965,1.9401,1.8966,1.89,1.8406,1.8064,1.7898,1.7479,1.7072,1.7,1.666,1.6403,1.6202,1.6202,1.6202,1.6202,1.6131,1.6044,1.5956,1.5877,1.5851,1.5851,1.5685,1.5551,1.5414,1.4666,1.4241,1.413,1.413,1.4181,1.441,1.4478,1.4538,1.4538,1.4725,1.4793,1.4852,1.4852,1.4852,1.4911,1.5029,1.5029,1.5088,1.5186,1.5177,1.5235,1.5235,1.5235,1.5303,1.5498,1.5624,1.574,1.574,1.5798,1.5846,1.5951,1.5999,1.6066,1.6353,1.6384,1.6311,1.6434,1.636,1.6032,1.4993,1.4934,1.5143,1.5143,1.5185,1.5237,1.5289,1.5299,1.536,1.5622,1.5662,1.5598,1.5296,1.5384,1.538,1.5108,1.5165,1.5345,1.5614,1.5937,1.6287,1.6675,1.6689,1.6892,1.7289,1.7437,1.7607,1.7827,1.8196,1.8473,1.865,1.8892,1.8693,1.8049,1.8728,1.9135,1.9342,2.0143,2.0589,2.0687,2.0878,2.1055,2.1215,2.1215,2.1262,2.1358,2.2118,2.2734,2.3349,2.4175,2.4871,2.5389,2.0731,2.0391,2.0081,1.9995,1.9581,1.9163,1.8929,1.8488,1.8134,1.7998,1.7574,1.7254,1.7183,1.7018,1.6908,1.6908,1.6908,1.6908,1.6908,1.6784,1.6733,1.6733,1.6721,1.6637,1.656,1.6149,1.5703,1.5179,1.5179,1.5241,1.5435,1.5548,1.5505,1.5365,1.5494,1.5448,1.5323,1.5323,1.5381,1.5449,1.5508,1.5508,1.5566,1.5604,1.5652,1.57,1.57,1.5768,1.5826,1.5951,1.6077,1.6249,1.6249,1.6306,1.6363,1.641,1.64,1.6513,1.674,1.6797,1.6797,1.6976,1.7088,1.6903,1.5972,1.5911,1.6019,1.6116,1.6116,1.6213,1.6385,1.6385,1.6415,1.6406,1.6425,1.6361,1.6117,1.6147,1.6061,1.5684,1.5753,1.5842,1.5917,1.6188,1.6448,1.6761,1.696,1.7199,1.7475,1.7774,1.8029,1.8189,1.8606,1.8874,1.8993,1.928,1.9218,1.8823,1.9375,1.9746,1.9947,2.042,2.0662,2.0827,2.0877,2.099,2.1151,2.1183,2.144,2.1908,2.2637,2.3349,2.4081,2.4774,2.5297,2.5659,2.1359,2.1185,2.1021,2.1021,2.0579,2.02,1.9983,1.9594,1.9228,1.9017,1.8581,1.8323,1.8323,1.7961,1.7684,1.7608,1.7608,1.7608,1.7608,1.7608,1.7666,1.7666,1.7794,1.7687,1.7338,1.7527,1.7207,1.6319,1.6319,1.6456,1.6655,1.6655,1.6523,1.6355,1.6355,1.6227,1.6077,1.6077,1.6135,1.6262,1.6262,1.6262,1.6262,1.6252,1.6359,1.6454,1.6454,1.6512,1.6638,1.6638,1.6812,1.6927,1.6984,1.7052,1.7166,1.7166,1.7166,1.7223,1.7316,1.7307,1.7298,1.7366,1.7479,1.7468,1.7088,1.6976,1.6976,1.7123,1.7123,1.7179,1.7468,1.7523,1.75,1.7205,1.7202,1.719,1.6903,1.6885,1.6799,1.6527,1.6491,1.6484,1.6429,1.6455,1.6607,1.6876,1.7073,1.7282,1.7475,1.7828,1.8042,1.8202,1.8606,1.8836,1.8941,1.9228,1.9487,1.969,1.9884,2.0146,2.0388,2.046,2.0577,2.0693,2.0811,2.0974,2.1119,2.1279,2.1762,2.2475,2.3317,2.3997,2.458,2.5324,2.5659,2.5738,2.1959,2.1807,2.1645,2.1425,2.1375,2.1268,2.1038,2.0677,2.0302,2.0143,1.9683,1.9334,1.9262,1.8818,1.8358,1.7979,1.794,1.794,1.794,1.8076,1.8202,1.8202,1.8337,1.8385,1.8325,1.8516,1.8046,1.6908,1.6908,1.6971,1.7222,1.7222,1.7244,1.7317,1.7317,1.741,1.7533,1.7533,1.7533,1.7533,1.7666,1.7727,1.7727,1.7827,1.7877,1.7938,1.7938,1.7938,1.7938,1.8119,1.824,1.8251,1.8452,1.8523,1.8572,1.8681,1.8669,1.874,1.887,1.8605,1.8282,1.8339,1.807,1.7843,1.7799,1.7645,1.7601,1.759,1.759,1.7601,1.7656,1.7755,1.7886,1.7938,1.8101,1.8077,1.7709,1.7639,1.7553,1.7351,1.7107,1.702,1.723,1.6767,1.665,1.696,1.7115,1.7282,1.7475,1.7828,1.8042,1.8202,1.8606,1.8822,1.8836,1.9228,1.9487,1.969,1.9884,2.0096,2.0304,2.0426,2.0577,2.0693,2.0761,2.0909,2.1167,2.1743,2.2131,2.2523,2.3835,2.4401,2.4616,2.5403,2.5754,2.5881,2.2402,2.2252,2.2111,2.2025,2.2025,2.1949,2.1731,2.1566,2.1367,2.112,2.0734,2.0459,2.0386,1.9768,1.9202,1.9,1.8758,1.8607,1.8607,1.8674,1.8741,1.8741,1.8885,1.8952,1.8952,1.9142,1.901,1.8475,1.8281,1.8281,1.841,1.841,1.834,1.8281,1.8281,1.8197,1.8017,1.8129,1.819,1.8201,1.8405,1.8466,1.8466,1.8516,1.8577,1.8687,1.8747,1.8747,1.8747,1.8879,1.8879,1.8939,1.901,1.907,1.919,1.925,1.9358,1.9406,1.9572,1.9412,1.931,1.9437,1.9333,1.9159,1.9159,1.917,1.8895,1.821,1.8096,1.8096,1.8193,1.8236,1.829,1.8344,1.853,1.8608,1.8465,1.8534,1.8497,1.814,1.7869,1.7722,1.7861,1.7829,1.774,1.7605,1.7781,1.7847,1.772,1.7975,1.8189,1.8361,1.8644,1.886,1.8988,1.9265,1.9487,1.969,1.9884,2.0111,2.0304,2.0426,2.0527,2.0626,2.1169,2.1512,2.1727,2.2415,2.3031,2.3624,2.4256,2.4762,2.5224,2.564,2.5864,2.602]},{"header":{"parameterUnit":"m.s-1","parameterCategory":1,"la1":30.6,"la2":28.766,"lo1":-90.7593,"lo2":-88.6598,"dy":0.0162,"dx":0.0183,"nx":116,"ny":114,"refTime":"2023-08-24T12:00:00:Z","depth":0,"parameterNumber":3,"parameterNumberName":"V-component_of_WINDS"},"data":[0.0,0.0,0.0,0.0,0.0,0.0,0.0,0.0,0.0,0.0,0.0,0.0,0.0,0.0,0.0,0.0,0.0,0.0,0.0,0.0,0.0,0.0,0.0,0.0,0.0,0.0,0.0,0.0,0.0,0.0,0.0,0.0,0.0,0.0,0.0,0.0,0.0,0.0,0.0,0.0,0.0,0.0,0.0,0.0,0.0,0.0,0.0,0.0,0.0,0.0,0.0,0.0,0.0,0.0,0.0,0.0,0.0,0.0,0.0,0.0,0.0,0.0,0.0,0.0,0.0,0.0,0.0,0.0,0.0,0.0,0.0,0.0,0.0,0.0,0.0,0.0,0.0,0.0,0.0,0.0,0.0,0.0,0.0,0.0,0.0,0.0,0.0,0.0,0.0,0.0,0.0,0.0,0.0,0.0,0.0,0.0,0.0,0.0,0.0,0.0,0.0,0.0,0.0,0.0,0.0,0.0,0.0,0.0,0.0,0.0,0.0,0.0,0.0,0.0,0.0,0.0,0.0,0.0,0.0,0.0,0.0,0.0,0.0,0.0,0.0,0.0,0.0,0.0,0.0,0.0,0.0,0.0,0.0,0.0,0.0,0.0,0.0,0.0,0.0,0.0,0.0,0.0,0.0,0.0,0.0,0.0,0.0,0.0,0.0,0.0,0.0,0.0,0.0,0.0,0.0,0.0,0.0,0.0,0.0,0.0,0.0,0.0,0.0,0.0,0.0,0.0,0.0,0.0,0.0,0.0,0.0,0.0,0.0,0.0,0.0,0.0,0.0,0.0,0.0,0.0,0.0,0.0,0.0,0.0,0.0,0.0,0.0,0.0,0.0,0.0,0.0,0.0,0.0,0.0,0.0,0.0,0.0,0.0,0.0,0.0,0.0,0.0,0.0,0.0,0.0,0.0,0.0,0.0,0.0,0.0,0.0,0.0,0.0,0.0,0.0,0.0,0.0,0.0,0.0,0.0,0.0,0.0,0.0,0.0,0.0,0.0,0.0,0.0,0.0,0.0,0.0,0.0,0.0,0.0,0.0,0.0,0.0,0.0,0.0,0.0,0.0,0.0,0.0,0.0,0.0,0.0,0.0,0.0,0.0,0.0,0.0,0.0,0.0,0.0,0.0,0.0,0.0,0.0,0.0,0.0,0.0,0.0,0.0,0.0,0.0,0.0,0.0,0.0,0.0,0.0,0.0,0.0,0.0,0.0,0.0,0.0,0.0,0.0,0.0,0.0,0.0,0.0,0.0,0.0,0.0,0.0,0.0,0.0,0.0,0.0,0.0,0.0,0.0,0.0,0.0,0.0,0.0,0.0,0.0,0.0,0.0,0.0,0.0,0.0,0.0,0.0,0.0,0.0,0.0,0.0,0.0,0.0,0.0,0.0,0.0,0.0,0.0,0.0,0.0,0.0,0.0,0.0,0.0,0.0,0.0,0.0,0.0,0.0,0.0,0.0,0.0,0.0,0.0,0.0,0.0,0.0,0.0,0.0,0.0,0.0,0.0,0.0,0.0,0.0,0.0,0.0,0.0,0.0,0.0,0.0,0.0,0.0,0.0,0.0,0.0,0.0,0.0,0.0,0.0,0.0,0.0,0.0,0.0,0.0,0.0,0.0,0.0,0.0,0.0,0.0,0.0,0.0,0.0,0.0,0.0,0.0,0.0,0.0,0.0,0.0,0.0,0.0,0.0,0.0,0.0,0.0,0.0,0.0,0.0,0.0,0.0,0.0,0.0,0.0,0.0,0.0,0.0,0.0,0.0,0.0,0.0,0.0,0.0,0.0,0.0,0.0,0.0,0.0,0.0,0.0,0.0,0.0,0.0,0.0,0.0,0.0,0.0,0.0,0.0,0.0,0.0,0.0,0.0,0.0,0.0,0.0,0.0,0.0,0.0,0.0,0.0,0.0,0.0,0.0,0.0,0.0,0.0,0.0,0.0,0.0,0.0,0.0,0.0,0.0,0.0,0.0,0.0,0.0,0.0,0.0,0.0,0.0,0.0,0.0,0.0,0.0,0.0,0.0,0.0,0.0,0.0,0.0,0.0,0.0,0.0,0.0,0.0,0.0,0.0,0.0,0.0,0.0,0.0,0.0,0.0,0.0,0.0,0.0,0.0,0.0,0.0,0.0,0.0,0.0,0.0,0.0,0.0,0.0,0.0,0.0,0.0,0.0,0.0,0.0,0.0,0.0,0.0,0.0,0.0,0.0,0.0,0.0,0.0,0.0,0.0,0.0,0.0,0.0,0.0,0.0,0.0,0.0,0.0,0.0,0.0,0.0,0.0,0.0,0.0,0.0,0.0,0.0,0.0,0.0,0.0,0.0,0.0,0.0,0.0,0.0,0.0,0.0,0.0,0.0,0.0,0.0,0.0,0.0,0.0,0.0,0.0,0.0,0.0,0.0,0.0,0.0,0.0,0.0,0.0,0.0,0.0,0.0,0.0,0.0,0.0,0.0,0.0,0.0,0.0,0.0,0.0,0.0,0.0,0.0,0.0,0.0,0.0,0.0,0.0,0.0,0.0,0.0,0.0,0.0,0.0,0.0,0.0,0.0,0.0,0.0,0.0,0.0,0.0,0.0,0.0,0.0,0.0,0.0,0.0,0.0,0.0,0.0,0.0,0.0,0.0,0.0,0.0,0.0,0.0,0.0,0.0,0.0,0.0,0.0,0.0,0.0,0.0,0.0,0.0,0.0,0.0,0.0,0.0,0.0,0.0,0.0,0.0,0.0,0.0,0.0,0.0,0.0,0.0,0.0,0.0,0.0,0.0,0.0,0.0,0.0,0.0,0.0,0.0,0.0,0.0,0.0,0.0,0.0,0.0,0.0,0.0,0.0,0.0,0.0,0.0,0.0,0.0,0.0,0.0,0.0,0.0,0.0,0.0,0.0,0.0,0.0,0.0,0.0,0.0,0.0,0.0,0.0,0.0,0.0,0.0,0.0,0.0,0.0,0.0,0.0,0.0,0.0,0.0,0.0,0.0,0.0,0.0,0.0,0.0,0.0,0.0,0.0,0.0,0.0,0.0,0.0,0.0,0.0,0.0,0.0,0.0,0.0,0.0,0.0,0.0,0.0,0.0,0.0,0.0,0.0,0.0,0.0,0.0,0.0,0.0,0.0,0.0,0.0,0.0,0.0,0.0,0.0,0.0,0.0,0.0,0.0,0.0,0.0,0.0,0.0,0.0,0.0,0.0,0.0,0.0,0.0,0.0,0.0,0.0,0.0,0.0,0.0,0.0,0.0,0.0,0.0,0.0,0.0,0.0,0.0,0.0,0.0,0.0,0.0,0.0,0.0,0.0,0.0,0.0,0.0,0.0,0.0,0.0,0.0,0.0,0.0,0.0,0.0,0.0,0.0,0.0,0.0,0.0,0.0,0.0,0.0,0.0,0.0,0.0,0.0,0.0,0.0,0.0,0.0,0.0,0.0,0.0,0.0,0.0,0.0,0.0,0.0,0.0,0.0,0.0,0.0,0.0,0.0,0.0,0.0,0.0,0.0,0.0,0.0,0.0,0.0,0.0,0.0,0.0,0.0,0.0,0.0,0.0,0.0,0.0,0.0,0.0,0.0,0.0,0.0,0.0,0.0,0.0,0.0,0.0,0.0,0.0,0.0,0.0,0.0,0.0,0.0,0.0,0.0,0.0,0.0,0.0,0.0,0.0,0.0,0.0,0.0,0.0,0.0,0.0,0.0,0.0,0.0,0.0,0.0,0.0,0.0,0.0,0.0,0.0,0.0,0.0,0.0,0.0,0.0,0.0,0.0,0.0,0.0,0.0,0.0,0.0,0.0,0.0,0.0,0.0,0.0,0.0,0.0,0.0,0.0,0.0,0.0,0.0,0.0,0.0,0.0,0.0,0.0,0.0,0.0,0.0,0.0,0.0,0.0,0.0,0.0,0.0,0.0,0.0,0.0,0.0,0.0,0.0,0.0,0.0,0.0,0.0,0.0,0.0,0.0,0.0,0.0,0.0,0.0,0.0,0.0,0.0,0.0,0.0,0.0,0.0,0.0,0.0,0.0,0.0,0.0,0.0,0.0,0.0,0.0,0.0,0.0,0.0,0.0,0.0,0.0,0.0,0.0,0.0,0.0,0.0,0.0,0.0,0.0,0.0,0.0,0.0,0.0,0.0,0.0,0.0,0.0,0.0,0.0,0.0,0.0,0.0,0.0,0.0,0.0,0.0,0.0,0.0,0.0,0.0,0.0,0.0,0.0,0.0,0.0,0.0,0.0,0.0,0.0,0.0,0.0,0.0,0.0,0.0,0.0,0.0,0.0,0.0,0.0,0.0,0.0,0.0,0.0,0.0,0.0,0.0,0.0,0.0,0.0,0.0,0.0,0.0,0.0,0.0,0.0,0.0,0.0,0.0,0.0,0.0,0.0,0.0,0.0,0.0,0.0,0.0,0.0,0.0,0.0,0.0,0.0,0.0,0.0,0.0,0.0,0.0,0.0,0.0,0.0,0.0,0.0,0.0,0.0,0.0,0.0,0.0,0.0,0.0,0.0,0.0,0.0,0.0,0.0,0.0,0.0,0.0,0.0,0.0,0.0,0.0,0.0,0.0,0.0,0.0,0.0,0.0,0.0,0.0,0.0,0.0,0.0,0.0,0.0,0.0,0.0,0.0,0.0,0.0,0.0,0.0,0.0,0.0,0.0,0.0,0.0,0.0,0.0,0.0,0.0,0.0,0.0,0.0,0.0,0.0,0.0,0.0,0.0,0.0,0.0,0.0,0.0,0.0,0.0,0.0,0.0,0.0,0.0,0.0,0.0,0.0,0.0,0.0,0.0,0.0,0.0,0.0,0.0,0.0,0.0,0.0,0.0,0.0,0.0,0.0,0.0,0.0,0.0,0.0,0.0,0.0,0.0,0.0,0.0,0.0,0.0,0.0,0.0,0.0,0.0,0.0,0.0,0.0,0.0,0.0,0.0,0.0,0.0,0.0,0.0,0.0,0.0,0.0,0.0,0.0,0.0,0.0,0.0,0.0,0.0,0.0,0.0,0.0,0.0,0.0,0.0,0.0,0.0,0.0,0.0,0.0,0.0,0.0,0.0,0.0,0.0,0.0,0.0,0.0,0.0,0.0,0.0,0.0,0.0,0.0,0.0,0.0,0.0,0.0,0.0,0.0,0.0,0.0,0.0,0.0,0.0,0.0,0.0,0.0,0.0,0.0,0.0,0.0,0.0,0.0,0.0,0.0,0.0,0.0,0.0,0.0,0.0,0.0,0.0,0.0,0.0,0.0,0.0,0.0,0.0,0.0,0.0,0.0,0.0,0.0,0.0,0.0,0.0,0.0,0.0,0.0,0.0,0.0,0.0,0.0,0.0,0.0,0.0,0.0,0.0,0.0,0.0,0.0,0.0,0.0,0.0,0.0,0.0,0.0,0.0,0.0,0.0,0.0,0.0,0.0,0.0,0.0,0.0,0.0,0.0,0.0,0.0,0.0,0.0,0.0,0.0,0.0,0.0,0.0,0.0,0.0,0.0,0.0,0.0,0.0,0.0,0.0,0.0,0.0,0.0,0.0,0.0,0.0,0.0,0.0,0.0,0.0,0.0,0.0,0.0,0.0,0.0,0.0,0.0,0.0,0.0,0.0,0.0,0.0,0.0,0.0,0.0,0.0,0.0,0.0,0.0,0.0,0.0,0.0,0.0,0.0,0.0,0.0,0.0,0.0,0.0,0.0,0.0,0.0,0.0,0.0,0.0,0.0,0.0,0.0,0.0,0.0,0.0,0.0,0.0,0.0,0.0,0.0,0.0,0.0,0.0,0.0,0.0,0.0,0.0,0.0,0.0,0.0,0.0,0.0,0.0,0.0,0.0,0.0,0.0,0.0,0.0,0.0,0.0,0.0,0.0,0.0,0.0,0.0,0.0,0.0,0.0,0.0,0.0,0.0,0.0,0.0,0.0,0.0,0.0,0.0,0.0,0.0,0.0,0.0,0.0,0.0,0.0,0.0,0.0,0.0,0.0,0.0,0.0,0.0,0.0,0.0,0.0,0.0,0.0,0.0,0.0,0.0,0.0,0.0,0.0,0.0,0.0,0.0,0.0,0.0,0.0,0.0,0.0,0.0,0.0,0.0,0.0,0.0,0.0,-3.0436,0.0,0.0,0.0,0.0,0.0,0.0,0.0,0.0,0.0,0.0,0.0,0.0,0.0,0.0,0.0,0.0,0.0,0.0,0.0,0.0,0.0,0.0,0.0,0.0,0.0,0.0,0.0,0.0,0.0,0.0,0.0,0.0,0.0,0.0,0.0,0.0,0.0,0.0,0.0,-2.0487,-2.1063,-2.161,-2.0974,-2.041,-2.0055,0.0,0.0,0.0,0.0,0.0,0.0,0.0,0.0,0.0,0.0,0.0,0.0,0.0,0.0,0.0,0.0,0.0,0.0,0.0,0.0,0.0,0.0,0.0,0.0,0.0,0.0,0.0,0.0,0.0,0.0,0.0,0.0,0.0,0.0,0.0,0.0,0.0,0.0,0.0,0.0,0.0,0.0,0.0,0.0,0.0,0.0,0.0,0.0,0.0,0.0,0.0,0.0,0.0,0.0,0.0,0.0,0.0,0.0,0.0,0.0,0.0,0.0,0.0,0.0,0.0,0.0,0.0,0.0,0.0,0.0,0.0,-3.1287,0.0,0.0,0.0,0.0,0.0,0.0,0.0,0.0,0.0,0.0,0.0,0.0,0.0,0.0,0.0,0.0,0.0,0.0,0.0,0.0,0.0,0.0,0.0,0.0,0.0,0.0,0.0,0.0,0.0,0.0,0.0,0.0,0.0,0.0,0.0,-1.9959,-2.0521,-2.1178,-2.1638,-2.218,-2.2841,-2.3205,-2.2738,-2.1614,-2.176,0.0,0.0,0.0,0.0,0.0,0.0,0.0,0.0,0.0,0.0,0.0,0.0,0.0,0.0,0.0,0.0,0.0,0.0,0.0,0.0,0.0,0.0,0.0,0.0,0.0,0.0,0.0,0.0,0.0,0.0,0.0,0.0,0.0,0.0,0.0,0.0,0.0,0.0,0.0,0.0,0.0,0.0,0.0,0.0,0.0,0.0,0.0,0.0,0.0,0.0,0.0,0.0,0.0,0.0,0.0,0.0,0.0,0.0,0.0,0.0,0.0,0.0,0.0,-3.3112,-3.3029,-3.2903,-3.2816,-3.2728,-3.267,-3.2929,-3.2909,-3.2628,-3.1952,0.0,0.0,0.0,0.0,0.0,0.0,0.0,0.0,0.0,0.0,0.0,0.0,0.0,0.0,0.0,0.0,0.0,0.0,0.0,0.0,0.0,0.0,0.0,0.0,0.0,0.0,0.0,0.0,0.0,0.0,0.0,0.0,0.0,-2.0819,-2.1648,-2.2196,-2.3462,-2.4296,-2.4649,-2.5094,-2.4995,-2.4438,-2.3623,-2.2957,-2.2523,0.0,0.0,0.0,0.0,0.0,0.0,0.0,0.0,0.0,0.0,0.0,0.0,0.0,0.0,0.0,0.0,0.0,0.0,0.0,0.0,0.0,0.0,0.0,0.0,0.0,0.0,0.0,0.0,0.0,0.0,0.0,0.0,0.0,0.0,0.0,0.0,0.0,0.0,0.0,0.0,0.0,-2.2675,-2.3374,0.0,0.0,0.0,0.0,0.0,0.0,0.0,0.0,0.0,0.0,0.0,0.0,0.0,-3.191,-3.2555,-3.33,-3.3971,-3.4531,-3.442,-3.4282,-3.4144,-3.3914,-3.3761,-3.3692,-3.3636,0.0,-3.2186,-3.2024,0.0,0.0,0.0,0.0,0.0,0.0,0.0,0.0,0.0,0.0,0.0,0.0,0.0,0.0,0.0,0.0,0.0,0.0,0.0,0.0,0.0,0.0,0.0,0.0,0.0,0.0,0.0,0.0,0.0,0.0,0.0,-1.9946,-2.0866,-2.1577,-2.2609,-2.3866,-2.4617,-2.5245,-2.5756,-2.6028,-2.6169,-2.6211,-2.5879,-2.5099,-2.3934,-2.3655,0.0,0.0,0.0,0.0,0.0,0.0,0.0,0.0,0.0,0.0,0.0,0.0,0.0,0.0,0.0,0.0,0.0,0.0,0.0,0.0,0.0,0.0,0.0,0.0,0.0,0.0,0.0,0.0,0.0,0.0,0.0,0.0,0.0,0.0,0.0,0.0,0.0,0.0,0.0,-2.3414,-2.4743,-2.5727,-2.6516,-2.7463,0.0,0.0,0.0,0.0,0.0,0.0,0.0,0.0,0.0,-3.0236,-3.1339,-3.2031,-3.2187,-3.3336,-3.3974,-3.4068,-3.3948,-3.3765,-3.3605,-3.3387,-3.3219,-3.3169,-3.2961,-3.2582,-3.2155,-3.2121,-3.204,-3.185,0.0,0.0,0.0,0.0,-3.0198,-2.9998,0.0,0.0,0.0,0.0,0.0,0.0,0.0,0.0,0.0,0.0,0.0,0.0,0.0,0.0,0.0,-1.441,0.0,0.0,0.0,0.0,0.0,0.0,0.0,-2.0263,-2.1421,-2.2221,-2.3441,-2.5104,-2.5425,-2.5906,-2.6457,-2.6669,-2.6982,-2.7423,-2.763,-2.6871,-2.5349,-2.5003,-2.4697,-2.4432,0.0,0.0,0.0,0.0,0.0,0.0,0.0,0.0,0.0,0.0,0.0,0.0,0.0,0.0,0.0,0.0,0.0,0.0,0.0,0.0,0.0,0.0,0.0,0.0,0.0,0.0,0.0,0.0,0.0,0.0,0.0,0.0,0.0,0.0,0.0,0.0,0.0,-2.5361,-2.6577,-2.7655,-2.8291,-2.8988,0.0,0.0,0.0,0.0,0.0,0.0,-3.0341,-3.0229,-3.0059,-2.9889,-3.1037,-3.1618,-3.1548,-3.2767,-3.3313,-3.3198,-3.2991,-3.2845,-3.266,-3.2413,-3.2279,-3.2229,-3.2022,-3.1898,-3.1917,-3.2081,-3.2062,-3.1875,-3.1242,-3.0919,-3.0774,-3.0441,-3.0229,-2.9994,0.0,0.0,0.0,0.0,0.0,0.0,0.0,0.0,0.0,0.0,0.0,0.0,0.0,0.0,-1.3752,-1.441,-1.5079,-1.5682,0.0,0.0,-1.7575,-1.8645,-1.9157,-1.9957,-2.0998,-2.2713,-2.4173,-2.5412,-2.5825,-2.6379,-2.6959,-2.7357,-2.766,-2.7959,-2.8286,-2.7791,-2.6705,-2.6819,-2.6138,-2.4969,-2.4938,0.0,0.0,0.0,0.0,0.0,0.0,0.0,0.0,0.0,0.0,0.0,0.0,0.0,0.0,0.0,0.0,0.0,0.0,0.0,0.0,0.0,0.0,0.0,0.0,0.0,0.0,0.0,0.0,0.0,0.0,0.0,0.0,0.0,0.0,0.0,0.0,0.0,0.0,-2.8498,-2.9459,0.0,0.0,0.0,0.0,-3.0396,-3.0335,-3.0197,-2.9948,-2.9791,-2.9578,-2.9268,-2.9879,-3.0411,-3.0857,-3.1427,-3.1943,-3.2362,-3.2039,-3.1862,-3.1735,-3.1439,-3.1287,-3.1249,-3.1167,-3.1123,-3.1106,-3.1771,-3.1916,-3.1827,-3.1757,-3.1721,-3.1543,-3.0638,-3.0309,-3.0133,0.0,0.0,0.0,0.0,0.0,0.0,0.0,0.0,0.0,0.0,0.0,0.0,0.0,-1.3277,-1.3752,-1.441,-1.5059,-1.5652,-1.6239,0.0,-1.749,-1.8303,-1.8939,-1.999,-2.1561,-2.2911,-2.4199,-2.542,-2.5816,-2.655,-2.7524,-2.7825,-2.8171,-2.8446,-2.8873,-2.8825,-2.8512,-2.7828,-2.7331,-2.6907,-2.6018,-2.5519,0.0,0.0,0.0,0.0,0.0,0.0,0.0,0.0,0.0,0.0,0.0,0.0,0.0,0.0,0.0,0.0,0.0,0.0,0.0,0.0,0.0,0.0,0.0,0.0,0.0,0.0,0.0,0.0,0.0,0.0,0.0,0.0,0.0,0.0,0.0,0.0,0.0,-2.9719,-3.0121,0.0,-3.0468,-3.0407,-3.0307,-3.0151,-2.9958,-2.9722,-2.94,-2.9145,-2.8835,-2.8506,-2.891,-2.9147,-2.9202,-3.0107,-3.0592,-3.0612,-3.0857,-3.0914,-3.0794,-3.0567,-3.046,-3.0559,-3.0351,-3.0309,-3.0384,-3.0526,-3.0794,-3.1167,-3.1167,-3.1106,-3.0988,-3.056,-3.0363,-3.0166,0.0,0.0,0.0,0.0,0.0,0.0,0.0,0.0,0.0,0.0,0.0,-1.2182,-1.2744,-1.3216,-1.3752,-1.441,-1.5059,-1.5652,-1.6239,0.0,-1.7479,-1.8084,-1.8963,-2.0205,-2.1847,-2.2814,-2.3872,-2.504,-2.5508,-2.6238,-2.7161,-2.7776,-2.8217,-2.8544,-2.9178,-2.9515,-2.9556,-2.9002,-2.8594,-2.8263,-2.7338,-2.6668,-2.619,0.0,0.0,0.0,0.0,0.0,0.0,0.0,0.0,0.0,0.0,0.0,0.0,0.0,0.0,0.0,0.0,0.0,0.0,0.0,0.0,0.0,0.0,0.0,0.0,0.0,0.0,0.0,0.0,0.0,0.0,0.0,0.0,0.0,0.0,-2.969,-3.0233,-3.0448,-3.0464,-3.045,-3.0405,-3.0229,-2.9992,-2.9754,-2.9439,-2.9111,-2.8778,-2.842,-2.8058,-2.7717,-2.784,-2.7906,-2.7913,-2.8575,-2.8932,-2.9003,-2.9256,-2.9508,-2.9609,-2.9453,-2.9556,-2.9842,-2.9633,-2.9605,-2.971,-2.9589,-2.9837,-3.0251,-3.0377,-3.0435,-3.0384,-3.0258,-3.0172,-3.0005,0.0,0.0,0.0,0.0,0.0,0.0,0.0,0.0,0.0,0.0,-1.1622,-1.2058,-1.2744,-1.3216,-1.3752,-1.441,-1.5059,-1.5652,-1.6239,-1.6931,-1.7545,-1.8084,-1.9331,-2.0617,-2.1859,-2.2428,-2.3216,-2.4397,-2.4903,-2.5444,-2.5925,-2.7133,-2.7823,-2.8139,-2.9279,-2.9761,-2.9805,-3.0215,-2.9796,-2.8864,-2.8832,-2.7989,-2.6795,0.0,0.0,0.0,0.0,0.0,0.0,0.0,0.0,0.0,0.0,0.0,0.0,0.0,0.0,0.0,0.0,0.0,0.0,0.0,0.0,0.0,0.0,0.0,0.0,0.0,0.0,0.0,0.0,0.0,0.0,0.0,0.0,0.0,-3.0326,-3.0419,-3.0521,-3.0585,-3.0466,-3.0343,-3.0177,-2.9875,-2.9545,-2.9189,-2.8801,-2.8431,-2.8084,-2.7672,-2.7282,-2.6888,-2.659,-2.6649,-2.7031,-2.6836,-2.6999,-2.7533,-2.7358,-2.7615,-2.8224,-2.8091,-2.8381,-2.9012,-2.9012,-2.9012,-2.9012,-2.9044,-2.9044,-2.909,-2.9572,-2.9793,-2.9766,-2.971,-2.9697,-2.9653,0.0,0.0,0.0,0.0,0.0,0.0,0.0,0.0,0.0,0.0,-1.1428,-1.1988,-1.2552,-1.3147,-1.3752,-1.441,-1.5059,-1.5652,-1.6239,0.0,-1.7744,-1.8869,-1.9708,-2.055,-2.1372,-2.1994,-2.2875,-2.4057,-2.4545,-2.5243,-2.6198,-2.6847,-2.7292,-2.7694,-2.8741,-2.9319,-2.9585,-3.0294,-3.0493,-3.0261,-2.9584,-2.9074,-2.8596,0.0,0.0,0.0,0.0,0.0,0.0,0.0,0.0,0.0,0.0,0.0,0.0,0.0,0.0,0.0,0.0,0.0,0.0,0.0,0.0,0.0,0.0,0.0,0.0,0.0,0.0,0.0,0.0,0.0,0.0,0.0,-3.0369,-3.0599,-3.0535,-3.0559,-3.053,-3.0467,-3.0296,-3.0061,-2.9787,-2.942,-2.904,-2.8646,-2.82,-2.7763,-2.7313,-2.6967,-2.659,-2.6123,-2.5762,-2.5524,-2.5502,-2.5749,-2.5932,-2.6078,-2.6483,-2.6738,-2.6925,-2.6762,-2.687,-2.7115,-2.7115,-2.7176,-2.7313,-2.7842,-2.8091,-2.8183,-2.9082,-2.9425,-2.9425,-2.9441,-2.935,-2.9196,0.0,0.0,0.0,0.0,0.0,0.0,0.0,0.0,0.0,0.0,-1.124,-1.1802,-1.2305,-1.2911,-1.358,-1.424,-1.4893,-1.5478,-1.6114,0.0,-1.8007,-1.9081,-1.9759,-2.0422,-2.1082,-2.1746,-2.254,-2.3378,-2.3896,-2.4638,-2.5487,-2.617,-2.6693,-2.704,-2.8119,-2.869,-2.8883,-2.9886,-3.0379,-3.0419,-3.0246,-2.9989,-2.9543,-2.8677,-2.8106,-2.7686,-2.6882,-2.6508,-2.6295,-2.5963,0.0,0.0,0.0,0.0,0.0,0.0,0.0,0.0,0.0,0.0,0.0,0.0,0.0,0.0,0.0,0.0,0.0,0.0,0.0,0.0,0.0,0.0,0.0,0.0,-3.0652,-3.0663,-3.0538,-3.0517,-3.0458,-3.0289,-3.0023,-2.9702,-2.9344,-2.8927,-2.8474,-2.8029,-2.7554,-2.7095,-2.659,-2.6229,-2.5852,-2.5422,-2.5114,-2.4839,-2.4558,-2.4797,-2.4914,-2.4887,-2.5216,-2.5553,-2.583,-2.574,-2.5893,-2.6259,-2.6304,-2.6349,-2.6485,-2.6962,-2.7162,0.0,0.0,0.0,0.0,0.0,-2.8566,-2.8221,0.0,0.0,0.0,0.0,0.0,0.0,0.0,0.0,0.0,0.0,0.0,-1.149,-1.2058,-1.2621,-1.3224,-1.395,-1.4547,-1.5254,0.0,-1.7168,-1.8182,-1.8934,-1.9592,-2.0258,-2.0934,-2.1602,-2.2217,-2.2709,-2.329,-2.3824,-2.4276,-2.5352,-2.5964,-2.6262,-2.7355,-2.7896,-2.7984,-2.9237,-2.98,-2.9867,-3.0785,-3.0684,-2.9956,-2.9872,-2.942,-2.8732,-2.7868,-2.7491,-2.7317,-2.6462,0.0,0.0,0.0,0.0,0.0,0.0,0.0,0.0,0.0,0.0,0.0,0.0,0.0,0.0,0.0,0.0,0.0,0.0,0.0,0.0,0.0,0.0,0.0,0.0,-3.0699,-3.0613,-3.0416,-3.0327,-3.0246,-3.0073,-2.9689,-2.9245,-2.8737,-2.8276,-2.7731,-2.7135,-2.665,-2.6201,-2.573,-2.5345,0.0,0.0,0.0,-2.4153,-2.3849,-2.3926,-2.3888,-2.3834,-2.3909,-2.4286,-2.4863,-2.4863,-2.5181,-2.5743,-2.5894,-2.5954,-2.5999,-2.6226,-2.6392,-2.6696,-2.8122,-2.8684,-2.8668,-2.816,-2.7604,-2.7099,0.0,0.0,0.0,0.0,0.0,0.0,0.0,0.0,0.0,-1.0301,-1.0807,-1.1373,-1.2003,-1.256,-1.3111,-1.3769,-1.43,-1.5118,-1.64,-1.7256,-1.803,-1.8667,-1.9291,-2.0016,-2.066,-2.1313,-2.1996,-2.2601,-2.3142,-2.3581,-2.4067,-2.4606,-2.5075,-2.5557,-2.6539,-2.712,-2.7524,-2.8942,-2.9642,-2.9867,-3.0667,-3.0948,-3.0881,-3.0251,-2.9892,-2.9547,-2.8787,-2.8498,-2.8306,-2.7554,-2.7267,-2.7183,-2.6564,-2.638,0.0,0.0,0.0,0.0,0.0,0.0,0.0,0.0,0.0,0.0,0.0,0.0,0.0,0.0,0.0,0.0,0.0,0.0,0.0,-3.07,-3.0607,-3.0467,-3.0279,-3.0004,-2.9772,-2.9638,-2.9302,-2.8654,-2.7567,-2.7068,-2.6347,-2.5236,-2.4755,-2.4365,-2.4009,-2.3606,-2.3259,-2.297,-2.2647,-2.2398,-2.2239,-2.2742,-2.2972,-2.2945,0.0,0.0,-2.3876,-2.3876,-2.3995,-2.4217,-2.4362,-2.4506,-2.4637,-2.5361,-2.6134,-2.6823,-2.7193,-2.7331,-2.7434,-2.7336,-2.7209,-2.702,0.0,0.0,0.0,0.0,0.0,0.0,0.0,0.0,0.0,0.0,-1.0421,-1.1059,-1.156,-1.212,-1.2736,-1.3346,-1.424,-1.5186,-1.6161,-1.6965,-1.7634,-1.8224,-1.8922,-1.9604,-2.0295,-2.0957,-2.1636,-2.2324,-2.2859,-2.3348,-2.3797,-2.4261,-2.467,-2.5084,-2.5725,-2.6351,-2.7027,-2.8244,-2.9039,-2.9613,-3.0449,-3.0871,-3.0902,-3.0667,-3.0477,-3.032,-2.958,-2.9273,-2.9059,-2.8377,-2.7875,-2.7453,-2.7138,-2.6821,-2.6554,0.0,0.0,0.0,0.0,0.0,0.0,0.0,0.0,0.0,0.0,0.0,0.0,0.0,0.0,-3.0402,-3.0571,0.0,-3.0741,-3.0713,-3.0594,-3.0414,-3.0138,-2.9469,-2.895,-2.8764,-2.8393,-2.7665,-2.6425,-2.5873,-2.5244,-2.4382,-2.3901,-2.35,-2.3135,-2.2776,-2.2496,-2.2263,-2.2017,-2.1862,-2.1759,-2.2049,-2.2188,-2.2188,-2.2503,-2.2679,-2.272,-2.305,-2.3257,-2.3455,-2.3914,-2.4193,-2.4307,-2.4979,-2.5529,-2.6009,-2.6066,-2.6329,-2.6646,-2.6687,-2.6506,-2.6157,0.0,0.0,0.0,0.0,0.0,0.0,0.0,0.0,0.0,0.0,-1.004,-1.0624,-1.0996,-1.156,-1.2243,0.0,-1.4121,-1.5128,-1.57,-1.6436,-1.7112,-1.7733,-1.8441,-1.9133,-1.9837,-2.0484,-2.1188,-2.1841,-2.248,-2.3024,-2.3465,-2.3952,-2.4328,-2.4695,-2.5132,-2.579,-2.655,-2.7607,-2.8486,-2.9272,-3.0203,-3.0568,-3.0568,-3.0814,-3.0912,-3.0828,-3.0303,-3.0007,-2.9772,-2.913,-2.844,-2.7814,-2.7693,-2.7261,-2.6791,-2.6759,-2.6825,0.0,0.0,0.0,0.0,0.0,0.0,0.0,0.0,-2.957,-2.9872,-3.0095,-3.0348,-3.0552,-3.0682,-3.0751,-3.0775,-3.0682,-3.0556,-3.0293,-2.9818,-2.8883,-2.8054,-2.7485,-2.7187,-2.6534,-2.5306,-2.4735,-2.4184,-2.3585,-2.3127,-2.2719,-2.2346,-2.2071,-2.1826,-2.1637,-2.1507,-2.1407,-2.1383,-2.1519,-2.1579,-2.1579,-2.1714,-2.1798,-2.1877,-2.242,-2.2743,-2.2909,-2.3686,-2.4116,-2.4281,-2.4682,-2.4957,-2.5185,-2.5317,-2.567,-2.6102,-2.6126,-2.5774,-2.5333,0.0,0.0,0.0,0.0,0.0,0.0,0.0,0.0,0.0,0.0,0.0,0.0,0.0,0.0,0.0,-1.2928,-1.3803,-1.4569,-1.5225,-1.5968,-1.6652,-1.7245,-1.7886,-1.8525,-1.9279,-1.994,-2.0633,-2.1286,-2.1969,-2.254,-2.2979,-2.3465,-2.3852,-2.4219,-2.5129,-2.579,-2.6261,-2.7726,-2.849,-2.8832,-2.9707,-3.006,-3.0103,-3.0359,-3.0667,-3.0895,-3.0811,-3.0778,-3.0637,-2.9867,-2.951,-2.9264,-2.8068,-2.7633,-2.7483,-2.7012,-2.6926,-2.704,-2.731,-2.7748,-2.8201,-2.8569,-2.8863,-2.916,0.0,-2.9716,-2.9969,-3.0286,-3.0491,-3.0618,-3.0693,-3.0759,-3.076,-3.0637,-3.0463,-2.9971,-2.8977,-2.8425,-2.7451,-2.5646,-2.5744,-2.5478,-2.4205,-2.3756,-2.3089,-2.196,-2.16,-2.1278,-2.0946,-2.0724,-2.0535,-2.0329,-2.0254,-2.0197,-2.0182,-2.0773,-2.1076,-2.1076,-2.1667,-2.1994,-2.2087,-2.2147,-2.2294,-2.2485,-2.2767,-2.3331,-2.4141,-2.4238,-2.4702,-2.5378,-2.5589,-2.5712,-2.5756,-2.5567,-2.5442,-2.5432,0.0,0.0,0.0,0.0,0.0,0.0,0.0,0.0,0.0,0.0,0.0,0.0,0.0,0.0,0.0,-1.2613,-1.339,-1.4103,-1.4756,-1.54,-1.6036,-1.6662,-1.7224,-1.7941,-1.8655,-1.9267,-1.994,-2.0633,-2.1237,-2.1779,-2.2263,-2.3144,-2.3775,-2.4208,-2.5153,-2.6029,-2.6832,-2.7572,-2.8223,-2.8844,-2.9387,-2.956,-2.9621,-2.987,-3.0027,-3.0199,-3.0485,-3.0584,0.0,-3.0203,-2.9862,-2.9353,-2.8436,-2.7891,-2.7461,-2.6928,-2.6876,-2.704,-2.7448,-2.7876,-2.8255,-2.8587,-2.8868,-2.9188,-2.9456,-2.9767,-3.0041,-3.0348,-3.0501,-3.0633,-3.0746,-3.0781,-3.0768,-3.0613,-3.0037,-2.939,-2.8791,-2.756,-2.6302,-2.5236,-2.4707,-2.4134,-2.3345,-2.2897,-2.2362,-2.1711,-2.1356,-2.1038,-2.0777,-2.0509,-2.0354,-2.027,-2.0115,-2.0096,-2.0166,-2.037,-2.0508,-2.0594,-2.0885,-2.108,-2.1188,-2.1553,-2.2139,-2.2807,-2.2936,-2.3327,-2.388,-2.3916,-2.4148,-2.4533,-2.4638,-2.4673,-2.4806,-2.5481,-2.5754,-2.5689,0.0,0.0,0.0,0.0,0.0,0.0,0.0,0.0,0.0,0.0,0.0,0.0,0.0,0.0,-1.1545,-1.2174,-1.2842,-1.3502,-1.4112,-1.4756,-1.5332,-1.5901,-1.6492,-1.7179,-1.7886,-1.8483,-1.9174,-1.9888,-2.0589,-2.1232,-2.1765,-2.2909,-2.3692,-2.409,-2.5081,-2.6012,-2.6942,-2.7315,-2.7905,-2.8622,-2.8904,-2.8997,-2.9044,-2.9257,-2.9348,-2.9438,-3.0044,-3.0172,-3.0087,-3.0189,-2.9955,-2.9428,-2.8599,-2.8052,-2.7584,-2.6825,-2.6775,-2.7055,-2.7539,-2.7922,-2.8246,-2.8536,-2.8868,-2.9188,-2.9456,-2.9765,-3.0085,-3.0333,-3.0509,-3.0639,-3.0771,-3.08,-3.0684,-3.0335,-2.9611,-2.8864,-2.8137,-2.6726,-2.5522,-2.4876,-2.405,-2.3371,-2.2927,-2.2463,-2.2056,-2.1738,-2.1224,-2.0798,-2.0607,-2.0174,-1.9949,-1.9931,-1.9767,-1.9767,-1.9849,-1.9953,-2.003,-2.0146,-2.0366,-2.0527,-2.0677,-2.1248,-2.1909,-2.2694,-2.2763,-2.3095,-2.3506,-2.3556,-2.3769,-2.4032,-2.4065,-2.4113,-2.4293,-2.5296,-2.5627,-2.5475,0.0,0.0,0.0,0.0,0.0,0.0,0.0,0.0,0.0,0.0,0.0,0.0,0.0,0.0,-1.0989,-1.149,-1.2174,-1.2789,-1.3329,-1.3914,-1.4442,-1.4904,-1.5565,-1.6208,-1.6821,-1.7556,-1.8278,-1.904,-2.022,-2.1054,-2.1653,-2.2771,-2.3472,-2.3756,-2.4961,-2.5655,-2.6029,-2.7065,-2.76,-2.778,-2.8158,-2.8336,-2.8352,-2.8638,-2.8732,-2.8826,-2.9572,-2.981,-2.9793,-2.981,-2.9897,-2.974,-2.8428,-2.8129,-2.8025,-2.6783,-2.6725,-2.7166,-2.7434,-2.7795,-2.8191,-2.8518,-2.8863,-2.9181,-2.9532,-2.9805,-3.0079,-3.034,-3.0509,-3.0639,-3.0771,-3.08,-3.0492,-2.9588,-2.9251,-2.8456,-2.6638,-2.6106,-2.5425,-2.4169,-2.3777,-2.345,-2.3126,-2.2668,-2.2231,-2.1827,-2.0947,-2.0305,-2.0031,-1.9272,-1.8833,-1.8759,-1.8759,-1.8759,-1.8759,-1.9389,-1.9704,-1.972,-2.0511,-2.0942,-2.1103,-2.1309,-2.1513,-2.1655,-2.1774,-2.2292,-2.3031,-2.3167,-2.3678,-2.438,-2.4472,-2.4516,-2.4594,-2.4769,-2.4635,-2.437,0.0,0.0,0.0,0.0,0.0,0.0,0.0,0.0,0.0,0.0,0.0,0.0,0.0,0.0,0.0,0.0,-1.1365,-1.1988,-1.2605,-1.3139,-1.3666,-1.4264,-1.4914,-1.5565,-1.6208,-1.6832,-1.7656,-1.8609,-1.9428,-2.0245,-2.1167,-2.2347,-2.3131,-2.3541,-2.4682,-2.538,-2.5756,-2.6328,-2.6745,-2.7086,-2.7312,-2.7399,-2.7515,-2.7799,-2.7898,-2.7947,0.0,-2.8826,-2.9227,-2.9289,-2.9425,-2.9319,-2.7959,-2.7632,-2.7557,-2.6498,-2.6505,-2.6891,-2.723,-2.7582,-2.7979,-2.8309,-2.8718,-2.9115,-2.9394,-2.9717,-3.0015,-3.0292,-3.0472,-3.0632,-3.0715,-3.0308,-2.983,-2.9465,-2.8337,-2.7219,-2.6414,-2.5646,-2.4923,-2.4284,-2.4001,-2.3533,-2.2727,-2.2143,-2.1685,-2.1362,-2.0462,-1.9827,-1.9609,-1.9273,-1.9074,-1.9045,-1.893,-1.893,-1.8972,-1.9196,-1.9308,-1.9399,-2.0316,-2.0793,-2.0868,-2.1549,-2.1895,-2.1998,-2.2147,-2.2383,-2.2745,-2.2829,-2.3048,-2.3344,-2.3409,-2.3463,-2.3544,-2.3588,-2.3588,-2.3613,0.0,0.0,0.0,0.0,0.0,0.0,0.0,0.0,0.0,0.0,0.0,0.0,0.0,0.0,0.0,0.0,0.0,-1.1178,-1.1802,-1.229,-1.2834,-1.3433,-1.4025,-1.4693,-1.5507,-1.6026,-1.6884,-1.8019,-1.882,-1.9715,-2.0652,-2.1829,-2.2677,-2.3167,-2.3992,-2.4624,-2.5063,-2.5398,-2.5742,-2.6136,-2.6269,-2.6481,-2.6721,-2.6901,-2.7056,0.0,-2.7363,-2.7765,-2.8174,-2.8637,-2.8826,-2.8715,-2.749,-2.6924,-2.6615,-2.6094,-2.6227,-2.6573,-2.6923,-2.7321,-2.7713,-2.8073,-2.85,-2.8892,-2.9209,-2.9551,-2.9869,-3.0136,-3.0381,-3.0552,-3.0656,-3.0038,-2.9373,-2.9035,-2.7717,-2.6547,-2.602,-2.5348,-2.4799,-2.4491,-2.4266,-2.3708,-2.2648,-2.1888,-2.1301,-2.0901,-2.0035,-1.9437,-1.9223,-1.8887,-1.8634,-1.8624,-1.8528,-1.8502,-1.8555,-1.8843,-1.9132,-1.9493,-2.0146,-2.0471,-2.0559,-2.1454,-2.1912,-2.201,-2.2468,-2.2712,-2.279,-2.2893,-2.2952,-2.3052,-2.3102,-2.3157,-2.3212,-2.3212,-2.3277,-2.3372,0.0,0.0,0.0,0.0,0.0,0.0,0.0,0.0,0.0,0.0,0.0,0.0,0.0,0.0,0.0,0.0,0.0,0.0,-1.0996,-1.1498,-1.1926,-1.2421,-1.2989,-1.3708,-1.4693,-1.5207,-1.6094,-1.7264,-1.8459,-1.9375,-2.0093,-2.1269,-2.2063,-2.2531,-2.3002,-2.3505,-2.4002,-2.4279,-2.4637,-2.4935,-2.5245,-2.5536,-2.5825,-2.596,-2.6122,-2.6297,-2.651,-2.6616,-2.6774,-2.781,-2.8174,-2.8027,-2.696,-2.602,-2.5326,-2.5605,-2.5852,-2.6139,-2.6539,-2.6971,-2.7365,-2.7754,-2.8165,-2.8576,-2.8993,-2.9357,-2.9662,-2.9939,-3.0196,-3.0424,-3.0516,-2.9932,-2.9138,-2.827,-2.7346,-2.6398,-2.5453,-2.5194,-2.5012,-2.4749,-2.4543,-2.3968,-2.2867,-2.1951,-2.1151,-2.0472,-1.9642,-1.9093,-1.8877,-1.816,-1.7687,-1.7635,-1.7635,-1.7635,-1.7635,-1.8339,-1.911,-1.9917,-1.995,-2.005,-2.0206,-2.1076,-2.1537,-2.168,-2.2643,-2.3091,-2.3126,-2.3289,-2.3407,-2.3526,-2.3508,-2.3558,-2.361,-2.361,-2.361,-2.3606,0.0,0.0,0.0,0.0,0.0,0.0,0.0,0.0,0.0,0.0,0.0,0.0,0.0,0.0,0.0,0.0,0.0,0.0,-1.0238,-1.0611,-1.1052,-1.1553,-1.2484,-1.3226,-1.3807,-1.4652,-1.5698,-1.6963,-1.771,-1.8581,-1.9511,-2.0353,-2.0996,-2.1388,-2.2002,-2.2482,-2.2859,-2.3267,-2.3623,-2.3989,-2.4279,-2.4523,-2.4751,-2.4964,-2.5189,-2.537,-2.5522,-2.5673,-2.5892,-2.7019,-2.7215,-2.6856,-2.6167,-2.5615,-2.5212,-2.5076,-2.523,-2.5519,-2.5924,-2.6419,-2.6939,-2.7289,-2.7794,-2.829,-2.8578,-2.9042,-2.9456,-2.9712,-3.0042,-3.0106,-2.9638,-2.8941,-2.819,-2.7363,-2.649,-2.5808,-2.5493,-2.5324,-2.5196,-2.5012,-2.4814,-2.4054,-2.2443,-2.1937,-2.1112,-1.965,-1.9051,-1.8705,-1.8537,-1.8287,-1.8125,-1.804,-1.8001,-1.7963,-1.7963,-1.8272,-1.8543,-1.881,-1.9456,-1.9804,-1.9864,-2.0719,-2.1476,-2.2136,-2.246,-2.2954,-2.3558,-2.3689,-2.3771,-2.3813,-2.3855,-2.3876,-2.3896,-2.3901,-2.3923,-2.3961,0.0,0.0,0.0,0.0,0.0,0.0,0.0,0.0,0.0,0.0,0.0,0.0,0.0,0.0,0.0,0.0,0.0,0.0,0.0,-0.9849,-1.0347,-1.0992,-1.1811,-1.2561,-1.3372,-1.4097,-1.5052,-1.6201,-1.6852,-1.7571,-1.8489,-1.9222,-1.977,-2.0226,-2.0869,-2.1376,-2.1753,-2.2113,-2.247,0.0,0.0,-2.3386,-2.3695,-2.3917,-2.4092,-2.4266,-2.4496,-2.4724,-2.5007,-2.5659,-2.5907,-2.5912,-2.5446,-2.5045,-2.4728,-2.4498,-2.4679,-2.502,-2.5443,-2.5924,-2.6401,-2.6791,-2.7317,-2.7823,-2.8192,-2.8652,-2.9107,-2.9456,-2.9477,-2.9363,-2.9132,-2.8205,-2.7351,-2.6925,-2.6151,-2.5593,-2.5554,-2.5459,-2.5337,-2.5207,-2.5065,-2.4265,-2.2464,-2.2116,-2.1287,-1.9555,-1.9063,-1.8789,-1.8641,-1.8585,-1.8529,-1.8469,-1.8432,-1.8413,-1.8413,-1.851,-1.8585,-1.8622,-1.9142,-1.9414,-1.9505,-2.0313,-2.1,-2.153,0.0,-2.2588,-2.3412,-2.3508,-2.3804,-2.4173,-2.4192,-2.4229,-2.4248,-2.4266,-2.4284,-2.432,0.0,0.0,0.0,0.0,0.0,0.0,0.0,0.0,0.0,0.0,0.0,0.0,0.0,0.0,0.0,0.0,0.0,0.0,0.0,0.0,0.0,-1.0514,-1.1128,-1.1952,-1.2987,-1.3452,-1.4253,-1.5284,-1.5895,-1.6515,-1.7198,-1.7959,-1.8566,-1.91,-1.9628,-2.0172,-2.07,-2.088,-2.1302,-2.1854,-2.1928,-2.2237,-2.2677,0.0,0.0,-2.3135,-2.3505,-2.38,-2.4105,-2.4118,-2.4611,-2.5199,-2.474,-2.4461,-2.4174,-2.3833,-2.4074,-2.4486,-2.4902,-2.5313,-2.5762,-2.6247,-2.6724,-2.7227,-2.7754,-2.8192,-2.8609,-2.8956,-2.8708,-2.8455,-2.8502,-2.7495,-2.6629,-2.6612,-2.6035,-2.5583,-2.5593,-2.5542,-2.5459,-2.534,-2.5262,-2.4524,-2.2734,-2.2426,-2.163,-1.988,-1.949,-1.9212,-1.8981,-1.8964,-1.8948,-1.886,-1.886,-1.8878,-1.886,-1.8948,-1.8982,-1.8982,-1.9048,-1.9132,-1.9266,-1.9908,-2.0323,-2.0586,-2.1301,-2.2107,-2.2896,-2.2965,-2.3549,-2.4377,-2.4377,-2.4484,-2.4645,-2.4645,-2.4645,-2.4645,0.0,0.0,0.0,0.0,0.0,0.0,0.0,0.0,0.0,0.0,-0.5885,-0.6152,0.0,0.0,0.0,0.0,0.0,0.0,0.0,0.0,0.0,0.0,-1.0691,-1.1475,-1.1864,-1.2827,-1.3636,-1.4266,-1.5054,-1.5621,-1.6105,-1.6862,-1.7335,-1.7745,-1.8297,-1.8854,-1.9462,-1.9846,-2.0161,-2.0484,-2.0944,-2.1262,-2.1439,0.0,0.0,0.0,-2.2543,-2.2725,-2.2895,-2.31,-2.3968,-2.486,-2.3868,-2.3811,-2.3914,-2.3132,-2.3172,-2.3565,-2.3991,-2.4511,-2.4989,-2.5465,-2.6052,-2.664,-2.7017,-2.7572,-2.796,-2.7707,-2.784,-2.7699,-2.6688,-2.6422,-2.6177,-2.565,-2.5549,-2.5531,-2.559,-2.5586,-2.557,-2.5559,-2.5432,-2.4703,-2.3006,-2.2705,-2.1905,-2.0155,-1.9934,-1.9741,-1.9415,-1.9409,-1.935,-1.9219,-1.9271,-1.9271,-1.9219,-1.9331,-1.9398,-1.9398,-1.9419,-1.9448,-1.9527,-1.9667,-2.0122,-2.084,-2.104,0.0,-2.2337,-2.2417,-2.2966,-2.3762,-2.3762,-2.42,-2.4847,-2.4912,-2.4926,-2.494,0.0,0.0,0.0,0.0,0.0,0.0,0.0,-0.4668,-0.4771,-0.5117,-0.5355,-0.5624,-0.6086,-0.6218,-0.6412,0.0,0.0,0.0,0.0,0.0,0.0,0.0,0.0,0.0,-1.1211,-1.2011,-1.2673,-1.3251,0.0,-1.4482,-1.5054,-1.5683,-1.6237,-1.6585,-1.7207,-1.7765,-1.823,-1.871,-1.911,-1.9584,-1.9857,-2.0118,0.0,0.0,0.0,0.0,-2.1376,-2.1628,-2.1854,-2.1928,-2.2592,-2.3352,-2.3057,-2.3071,-2.3139,-2.2582,-2.2508,-2.2725,-2.3231,-2.3736,-2.4241,-2.4672,-2.5281,-2.5875,-2.63,-2.6595,-2.6813,-2.6854,-2.6579,-2.6137,-2.5725,-2.5499,-2.5355,-2.5173,-2.526,-2.5383,-2.5469,-2.5528,-2.556,-2.5604,-2.5544,-2.4826,-2.3116,-2.2893,-2.2127,-2.0398,-2.0188,-2.004,-1.9719,-1.9676,-1.9638,-1.9561,-1.9593,-1.9593,-1.9561,-1.965,-1.9713,-1.9713,-1.9713,-1.975,-1.9816,-1.9809,-2.0059,-2.049,-2.0524,-2.102,-2.1791,-2.1821,-2.2357,-2.3172,-2.3591,-2.4003,-2.4445,-2.4927,-2.5099,-2.5111,0.0,0.0,0.0,0.0,0.0,0.0,0.0,-0.4442,-0.4552,-0.4797,-0.4957,-0.5223,-0.5624,-0.5885,-0.6148,0.0,0.0,0.0,0.0,0.0,0.0,0.0,0.0,0.0,0.0,0.0,0.0,-1.2305,-1.2746,0.0,0.0,0.0,0.0,0.0,-1.6245,-1.6724,-1.706,-1.755,-1.8037,0.0,0.0,-1.8998,0.0,0.0,0.0,0.0,0.0,-2.0495,-2.0752,-2.0752,-2.1123,-2.1608,-2.1956,-2.2116,-2.2137,-2.198,-2.183,-2.1894,-2.242,-2.292,-2.3391,-2.3834,-2.4415,-2.5051,-2.5491,-2.5595,-2.5632,-2.5947,-2.5243,-2.4631,-2.4858,-2.4653,-2.4514,-2.4807,-2.4996,-2.5139,-2.5298,-2.5376,-2.5468,-2.5554,-2.556,-2.4902,-2.3166,-2.2993,-2.2273,-2.055,-2.0357,-2.0229,-1.9973,-1.9903,-1.989,-1.989,-1.989,-1.988,-1.9899,-1.995,-1.996,-1.996,-1.9952,-1.9992,-2.0041,-2.0069,-2.0097,-2.0152,-2.0133,-2.0525,0.0,-2.1156,-2.1683,-2.2526,-2.316,-2.3631,-2.4044,-2.4735,-2.5111,-2.5264,0.0,0.0,0.0,0.0,0.0,0.0,0.0,-0.4525,-0.4659,-0.4812,-0.4827,-0.4831,-0.4897,-0.5355,-0.5749,0.0,0.0,0.0,0.0,0.0,0.0,0.0,0.0,0.0,0.0,0.0,0.0,-1.1484,-1.1929,0.0,0.0,0.0,0.0,0.0,0.0,-1.5551,-1.5965,-1.6533,0.0,0.0,0.0,0.0,0.0,0.0,0.0,0.0,0.0,-1.9462,-1.9736,-1.9736,-1.9977,-2.0279,-2.0289,-2.0719,-2.1095,-2.0964,-2.0811,-2.0845,-2.1369,-2.1894,-2.236,-2.2875,-2.3522,-2.4158,-2.4608,-2.4697,-2.4643,-2.4471,-2.4081,-2.3737,-2.3606,-2.3756,-2.3986,-2.4314,-2.4588,-2.4815,-2.5011,-2.5159,-2.5282,-2.5395,-2.5474,-2.4859,-2.3152,-2.3005,-2.2304,-2.0615,-2.0435,-2.0327,-2.0176,-2.0165,-2.0161,-2.0164,-2.0164,-2.0156,-2.0167,-2.0175,-2.0164,-2.0164,-2.0164,-2.018,-2.0185,-2.0246,-2.0287,-2.0288,-2.0276,-2.0321,0.0,-2.0398,-2.0914,-2.1701,-2.1778,-2.2778,-2.4186,-2.4263,-2.4793,-2.5478,0.0,0.0,0.0,0.0,0.0,0.0,-0.4096,-0.4224,-0.4352,-0.4483,-0.4631,-0.4694,-0.4694,-0.5036,-0.5358,-0.5702,0.0,0.0,0.0,0.0,0.0,0.0,0.0,0.0,0.0,0.0,-1.0067,-1.0663,-1.0962,0.0,0.0,0.0,0.0,0.0,0.0,-1.4553,-1.4903,-1.548,0.0,0.0,0.0,0.0,0.0,0.0,0.0,0.0,0.0,0.0,-1.8654,-1.8654,-1.8844,-1.9177,-1.9452,-1.9435,-1.947,-2.0038,-2.0005,-1.9837,-2.0295,-2.0832,-2.1321,-2.1846,-2.2483,-2.3069,-2.3636,-2.3388,-2.3158,-2.3363,-2.294,-2.2536,-2.266,-2.3034,-2.3428,-2.3771,-2.4082,-2.4362,-2.4603,-2.4828,-2.5,-2.5139,-2.5255,-2.4697,-2.3096,-2.2941,-2.2255,-2.0621,-2.0488,-2.0442,-2.0384,-2.0332,-2.0315,-2.032,-2.032,-2.0321,-2.0326,-2.0326,-2.0332,-2.0332,-2.0332,-2.0326,-2.0314,-2.0346,-2.0377,-2.0418,-2.0424,-2.0424,0.0,-2.0424,-2.0618,-2.0992,-2.1526,-2.2133,-2.2871,-2.3888,-2.4484,-2.4859,0.0,0.0,0.0,0.0,0.0,-0.3957,-0.3922,-0.4069,-0.4202,-0.4289,-0.4431,-0.4495,-0.4495,-0.4745,-0.4978,-0.5374,-0.5483,0.0,0.0,0.0,0.0,0.0,0.0,0.0,0.0,0.0,-0.9316,-0.9922,-1.0143,-1.0588,0.0,0.0,-1.2077,-1.2599,0.0,0.0,0.0,0.0,0.0,0.0,0.0,0.0,0.0,0.0,0.0,0.0,0.0,0.0,0.0,0.0,0.0,-1.8094,-1.8452,-1.8294,-1.8161,-1.9171,-1.917,-1.8941,-1.9263,-1.9734,-2.0232,-2.0782,-2.1417,-2.1974,-2.256,-2.2155,-2.1819,-2.2397,-2.185,-2.1411,-2.1824,-2.23,-2.2762,-2.3177,-2.3498,-2.381,-2.4118,-2.4381,-2.4637,-2.4815,-2.4958,-2.4456,-2.2893,-2.2352,-2.1634,-2.0526,-2.045,-2.0441,-2.0469,-2.0428,-2.0411,-2.0428,-2.0439,-2.0433,-2.0425,-2.0425,-2.0425,-2.0425,-2.0425,-2.0437,-2.0426,-2.0426,-2.0453,-2.0503,-2.0503,-2.0503,0.0,-2.0503,-2.0503,-2.0561,-2.1172,-2.1562,-2.1932,-2.3123,-2.3898,-2.4427,0.0,0.0,0.0,0.0,0.0,0.0,-0.3872,-0.4143,-0.43,-0.43,-0.43,-0.43,-0.43,-0.4404,-0.4661,-0.5006,-0.5279,0.0,0.0,0.0,0.0,0.0,0.0,0.0,0.0,0.0,-0.8708,-0.9322,-0.9549,-0.9916,-1.0513,-1.1111,-1.1484,-1.1781,0.0,0.0,0.0,0.0,0.0,0.0,0.0,0.0,0.0,0.0,0.0,0.0,0.0,0.0,0.0,0.0,0.0,0.0,0.0,-1.7225,-1.7461,-1.8369,-1.8375,-1.8123,-1.8297,-1.862,-1.9073,-1.9695,-2.0295,-2.093,-2.1424,-2.1086,-2.0889,-2.1416,-2.0847,-2.0501,-2.1101,-2.1488,-2.1903,-2.2512,-2.2848,-2.3147,-2.3538,-2.383,-2.4118,-2.4385,-2.4576,-2.4109,-2.2555,-2.1081,-2.0248,-2.0302,-2.0307,-2.0322,-2.04,-2.0408,-2.0433,-2.0508,-2.0506,-2.0504,-2.0504,-2.0504,-2.0503,-2.0501,-2.0501,-2.0501,-2.0501,-2.0501,-2.0502,-2.0504,-2.0504,-2.0504,0.0,-2.0504,-2.0504,-2.0504,-2.0504,-2.1031,-2.1793,-2.1812,-2.2925,-2.4408,0.0,0.0,0.0,0.0,0.0,0.0,0.0,-0.4197,-0.4233,-0.4097,-0.4097,-0.4059,-0.4066,-0.4174,-0.4285,-0.4474,-0.4883,0.0,0.0,0.0,0.0,0.0,0.0,0.0,0.0,0.0,-0.8021,-0.8484,-0.8784,-0.9236,-0.9695,-1.0143,-1.0588,-1.0887,-1.1558,-1.1929,0.0,0.0,0.0,0.0,0.0,0.0,-1.4561,0.0,0.0,0.0,0.0,0.0,0.0,0.0,0.0,0.0,0.0,0.0,0.0,-1.6478,-1.6921,-1.7265,-1.7119,-1.7479,-1.8015,-1.8513,-1.9073,-1.9684,-2.032,-2.0047,-1.977,-2.0359,-1.9977,-1.9687,-2.0177,-2.0651,-2.1148,-2.1576,-2.2113,-2.2565,-2.2863,-2.3223,-2.3538,-2.383,-2.3674,-2.3176,-2.2276,-2.1315,-2.0574,-2.0134,-2.0099,-2.0127,-2.0255,-2.026,-2.032,-2.0435,-2.0425,-2.0453,-2.0501,-2.0501,-2.049,-2.0503,-2.0503,-2.0504,-2.0505,-2.0505,-2.0502,-2.049,-2.049,-2.049,0.0,-2.049,-2.049,-2.049,-2.049,-2.0668,-2.098,-2.1585,-2.2525,-2.3602,0.0,0.0,0.0,0.0,0.0,0.0,0.0,-0.4088,-0.4097,-0.3961,-0.3894,-0.3934,-0.3904,-0.4013,-0.412,-0.4225,-0.4568,0.0,0.0,0.0,0.0,0.0,0.0,0.0,0.0,-0.7026,-0.7407,-0.7872,-0.8169,-0.8627,-0.9089,-0.9468,-0.9846,-1.0218,-1.0812,-1.1111,0.0,0.0,0.0,0.0,0.0,0.0,-1.3695,0.0,0.0,0.0,0.0,0.0,0.0,0.0,0.0,0.0,0.0,0.0,0.0,0.0,-1.5368,-1.5877,-1.6042,-1.6425,-1.6866,-1.7368,-1.7907,-1.8424,-1.915,-1.9008,-1.8874,-1.9293,-1.9114,-1.9012,-1.9295,-1.9798,-2.0302,-2.0749,-2.1305,-2.1832,-2.2158,-2.2574,-2.2979,-2.3401,-2.3041,-2.2501,-2.193,-2.1231,-2.0532,-1.9858,-1.9869,-1.9914,-2.0003,-2.006,-2.0139,-2.0217,-2.0307,-2.0371,-2.0415,-2.0415,-2.0437,-2.0451,-2.0451,-2.0461,-2.0453,-2.0453,-2.0461,-2.046,-2.046,-2.046,0.0,-2.046,-2.0464,-2.0464,-2.0487,-2.0506,-2.0568,-2.1114,-2.2055,-2.3131,0.0,0.0,0.0,0.0,0.0,0.0,0.0,-0.3893,-0.3961,-0.3825,-0.3758,-0.3801,-0.3846,-0.4018,-0.4123,-0.4162,0.0,0.0,0.0,0.0,0.0,0.0,0.0,0.0,-0.6261,-0.6486,-0.6872,-0.7407,-0.7633,-0.8012,-0.8627,-0.9013,-0.9322,-0.9544,-1.0143,-1.0443,0.0,0.0,0.0,0.0,0.0,0.0,0.0,0.0,0.0,0.0,0.0,0.0,0.0,0.0,0.0,0.0,0.0,0.0,0.0,0.0,0.0,0.0,0.0,-1.5332,-1.5671,-1.6255,-1.6765,-1.7257,-1.7875,-1.8061,0.0,-1.8254,-1.8312,-1.8353,-1.8492,-1.8902,-1.9419,-1.9984,-2.0514,-2.0975,-2.143,-2.1878,-2.2395,-2.3045,-2.2642,-2.209,-2.1497,-2.0876,-2.0236,-1.9499,-1.9604,-1.9669,-1.9682,-1.9786,-1.9862,-1.9866,-2.012,-2.0262,-2.0289,-2.0289,-2.0328,-2.0383,-2.0383,-2.038,-2.0391,-2.0391,-2.0391,0.0,-2.0391,0.0,0.0,-2.04,-2.0381,-2.0405,-2.0452,-2.05,-2.05,-2.05,-2.155,-2.2994,0.0,0.0,0.0,0.0,0.0,0.0,0.0,0.0,0.0,0.0,-0.3563,-0.3562,-0.3591,-0.363,-0.371,0.0,0.0,0.0,0.0,0.0,0.0,0.0,0.0,0.0,-0.5792,-0.618,-0.6412,-0.6567,-0.7103,-0.7484,-0.7787,-0.8174,-0.8556,-0.8932,-0.9392,-0.9846,0.0,0.0,0.0,0.0,0.0,0.0,0.0,0.0,0.0,0.0,-1.2599,-1.2599,0.0,0.0,0.0,0.0,0.0,0.0,0.0,0.0,-1.2565,-1.2453,-1.3042,0.0,-1.4815,-1.5206,-1.5603,-1.612,0.0,-1.6993,-1.7174,-1.7227,-1.7353,-1.7478,-1.7527,-1.8001,-1.8521,-1.8991,-1.963,-2.0193,-2.0534,-2.1243,-2.1919,-2.2395,-2.2488,-2.2094,-2.099,-2.0876,-2.0371,-1.9135,-1.9209,-1.9338,-1.939,-1.9462,-1.9545,-1.9593,-1.97,-1.9852,-2.0067,-2.0114,-2.0148,-2.0177,-2.0177,-2.0192,-2.0248,-2.0248,-2.0275,-2.0314,-2.0314,0.0,-2.0315,-2.0315,-2.0321,-2.0341,-2.0341,-2.0353,-2.0346,-2.0346,-2.1448,-2.292,0.0,0.0,0.0,0.0,0.0,0.0,0.0,0.0,0.0,0.0,0.0,0.0,0.0,0.0,0.0,0.0,0.0,0.0,0.0,0.0,0.0,0.0,0.0,-0.5007,-0.5321,-0.5634,-0.6025,-0.6338,-0.6644,-0.6949,-0.733,-0.7718,-0.8021,-0.8318,-0.878,-0.9316,0.0,0.0,0.0,0.0,-1.0738,0.0,0.0,0.0,0.0,0.0,-1.1781,-1.1781,0.0,-1.1781,-1.1855,-1.1903,0.0,0.0,0.0,0.0,-1.156,-1.1428,-1.174,-1.272,-1.3683,-1.4145,-1.456,-1.5021,-1.5613,-1.6105,-1.6342,-1.6283,-1.6543,-1.6725,-1.6591,-1.7092,-1.7653,-1.8066,-1.8712,-1.9398,-2.0039,-2.0732,-2.1337,-2.1731,-2.2017,-2.1718,-2.0439,-2.054,-2.0107,-1.8731,-1.8807,-1.8948,-1.9033,-1.9113,-1.9227,-1.932,-1.938,-1.9553,-1.9858,-1.9928,-1.9952,-1.9954,-1.9993,-2.0041,-2.0106,-2.0106,-2.0134,-2.0161,-2.0161,0.0,-2.0203,-2.0211,-2.0219,-2.0208,-2.0242,-2.025,-2.0246,-2.0253,-2.1347,-2.2809,0.0,0.0,0.0,0.0,0.0,0.0,0.0,0.0,0.0,0.0,0.0,0.0,0.0,0.0,0.0,0.0,0.0,0.0,0.0,0.0,0.0,0.0,0.0,-0.4698,-0.4927,-0.5162,-0.5553,-0.6103,-0.6183,-0.649,-0.703,-0.7253,-0.748,-0.7783,-0.8318,-0.878,0.0,0.0,0.0,0.0,-1.0067,0.0,0.0,0.0,0.0,0.0,0.0,0.0,0.0,-1.1037,-1.1037,-1.0989,-1.1093,0.0,0.0,0.0,0.0,0.0,-1.087,-1.149,-1.229,-1.3147,-1.3563,-1.3906,-1.456,-1.5157,-1.5555,-1.53,-1.572,-1.6011,-1.5655,-1.6157,-1.6786,-1.7258,-1.7907,-1.8674,-1.96,-2.0177,-2.0665,-2.1071,-2.1301,-2.0961,-1.9872,-1.9932,-1.9539,-1.8312,-1.8391,-1.8528,-1.8604,-1.8734,-1.8878,-1.9002,-1.9086,-1.9259,-1.9564,-1.9688,-1.9744,-1.9743,-1.9816,-1.9862,-1.9945,-1.9955,-1.9958,-1.9971,0.0,0.0,-2.004,-2.005,-2.006,-2.0088,-2.0125,-2.0162,-2.0171,-2.0169,-2.1233,-2.2738,0.0,0.0,0.0,0.0,0.0,0.0,0.0,0.0,0.0,0.0,0.0,0.0,0.0,0.0,0.0,0.0,0.0,0.0,0.0,0.0,0.0,-0.3604,-0.3997,-0.4311,-0.4462,-0.4849,-0.5082,-0.5237,-0.5556,-0.5951,-0.6416,-0.6493,-0.6872,-0.7557,-0.7783,-0.8169,-0.8556,0.0,0.0,0.0,-0.9539,0.0,0.0,0.0,0.0,0.0,0.0,0.0,0.0,-1.0513,-1.0588,-1.0548,-1.0446,0.0,0.0,0.0,0.0,0.0,-1.011,-1.0301,-1.0737,-1.2112,-1.2605,-1.2903,-1.3563,-1.4094,-1.4387,-1.4115,-1.4694,-1.5145,-1.4784,-1.5309,-1.594,-1.6386,-1.7353,-1.8277,-1.8954,-1.9413,-1.9859,-2.0296,-2.0145,-1.9805,-1.9276,-1.8946,-1.8507,-1.7828,-1.7971,-1.8121,-1.8173,-1.8313,-1.845,-1.8582,-1.8715,-1.8825,-1.8949,-1.9295,-1.9489,-1.9555,-1.9559,-1.9604,-1.9662,-1.9707,-1.9776,-1.9825,0.0,-1.9842,-1.9843,-1.9855,-1.9877,-1.9928,-1.9947,-1.9979,-2.0029,-2.0039,-2.1136,-2.2819,0.0,0.0,0.0,0.0,0.0,0.0,0.0,0.0,0.0,0.0,0.0,0.0,0.0,0.0,0.0,0.0,0.0,0.0,0.0,0.0,-0.3141,-0.3295,-0.3452,-0.3765,-0.4233,-0.454,-0.4771,-0.5004,-0.5162,-0.5476,-0.5948,-0.6183,-0.6641,-0.7173,-0.748,-0.771,-0.794,-0.825,-0.8475,-0.8703,0.0,0.0,0.0,0.0,0.0,0.0,0.0,0.0,0.0,0.0,-0.9756,-0.968,-0.952,0.0,0.0,0.0,0.0,0.0,-0.9338,-0.9466,-0.9722,-1.0724,-1.1421,-1.205,-1.272,-1.3199,-1.3508,-1.324,-1.3781,-1.4202,-1.3841,-1.4411,-1.5197,-1.612,-1.6921,-1.7652,-1.8252,-1.8717,-1.9221,-1.9717,-1.9507,-1.9154,-1.8726,-1.8354,-1.7892,-1.7321,-1.7502,-1.7664,-1.7766,-1.7954,-1.8078,-1.8239,-1.833,-1.845,-1.8582,-1.8789,-1.9034,-1.928,-1.9323,-1.9365,-1.9442,-1.9471,-1.9513,-1.9601,0.0,-1.9649,-1.9645,-1.9676,-1.9738,-1.9794,-1.98,-1.9823,-1.996,-2.0909,-2.177,-2.2733,0.0,0.0,0.0,0.0,0.0,0.0,0.0,0.0,0.0,0.0,0.0,0.0,0.0,0.0,0.0,0.0,0.0,0.0,0.0,0.0,-0.2982,-0.3062,-0.3062,-0.3295,-0.3921,-0.4153,-0.4462,-0.4774,-0.4849,-0.5165,-0.5559,-0.6025,-0.6409,-0.6788,-0.7099,-0.733,-0.7484,-0.7795,-0.8102,-0.825,0.0,0.0,0.0,0.0,0.0,0.0,0.0,0.0,0.0,0.0,0.0,0.0,0.0,0.0,0.0,-0.832,-0.8317,-0.8382,-0.8694,-0.8759,-0.8947,-0.946,-1.0288,-1.1178,-1.1802,-1.229,-1.2622,-1.2422,-1.2913,-1.3259,-1.3027,-1.3684,-1.4628,-1.5736,-1.6423,-1.6951,-1.7503,-1.8028,-1.8539,-1.9072,-1.8732,-1.8371,-1.8128,-1.7673,-1.7203,-1.6779,-1.7002,-1.7199,-1.7368,-1.7526,-1.7681,-1.7856,-1.7954,-1.8065,-1.8263,-1.8365,-1.8603,-1.9019,-1.9069,-1.9152,-1.9214,-1.9212,-1.9277,-1.932,-1.9365,-1.9423,-1.9467,-1.9513,-1.956,-1.9633,-1.9636,-1.9662,-1.9881,-2.1615,-2.2289,-2.2582,0.0,0.0,0.0,0.0,0.0,0.0,0.0,0.0,0.0,0.0,0.0,0.0,0.0,0.0,0.0,0.0,0.0,0.0,0.0,0.0,-0.2589,-0.2826,-0.2826,-0.3059,-0.3526,-0.3763,-0.3921,-0.4157,-0.4545,-0.4932,-0.5321,-0.5709,-0.6099,-0.6335,-0.6563,-0.6872,-0.7257,-0.7484,-0.7642,-0.788,-0.8025,0.0,0.0,0.0,0.0,0.0,0.0,0.0,0.0,0.0,0.0,0.0,0.0,0.0,-0.7803,-0.7654,-0.7661,-0.7797,-0.7987,-0.8177,-0.8366,-0.8947,-0.9594,-1.0238,-1.08,-1.1303,-1.1608,-1.1532,-1.2047,-1.252,-1.2304,-1.3314,-1.4408,-1.5062,-1.568,-1.625,-1.6795,-1.7297,-1.7774,-1.8228,-1.7481,-1.7084,-1.7438,-1.6638,-1.6182,-1.6328,-1.6528,-1.6738,-1.6935,-1.7018,-1.7167,-1.7448,-1.7566,-1.7704,-1.7856,-1.8023,-1.8333,-1.8734,-1.8806,-1.8861,-1.8932,-1.8984,-1.907,-1.912,-1.9134,-1.9198,-1.9314,-1.9314,-1.936,-1.942,-1.9427,-1.9504,-1.9815,-2.1492,-2.2114,-2.2364,0.0,0.0,0.0,0.0,0.0,0.0,0.0,0.0,0.0,0.0,0.0,0.0,0.0,0.0,0.0,0.0,0.0,0.0,0.0,-0.2511,-0.2511,-0.2589,-0.2589,-0.2746,-0.3059,-0.3448,-0.3684,-0.3921,-0.4465,-0.4854,-0.5082,-0.5395,-0.5709,-0.6099,-0.6335,-0.6563,-0.6872,-0.718,-0.7334,-0.7492,-0.7799,-0.7876,0.0,0.0,0.0,0.0,0.0,0.0,0.0,0.0,-0.8006,-0.7812,-0.7678,-0.741,-0.7238,-0.7161,-0.7138,-0.7274,-0.7466,-0.7526,-0.7657,-0.8112,-0.8501,-0.9017,-1.0047,-1.047,-1.0646,-1.079,-1.1249,-1.1699,-1.2109,-1.2871,-1.3684,-1.4408,-1.4994,-1.5534,-1.6207,-1.671,-1.7042,-1.7194,-1.6762,-1.6466,-1.6469,-1.5901,-1.5638,-1.5853,-1.6093,-1.6285,-1.6459,-1.6659,-1.6815,-1.6952,-1.7142,-1.7313,-1.7502,-1.7647,-1.7871,-1.8146,-1.8426,-1.86,-1.8639,-1.8715,-1.8789,-1.8861,-1.8949,-1.9,-1.9051,-1.9086,-1.9153,-1.9219,-1.9264,-1.9323,-1.9601,-2.1256,-2.1895,-2.2219,0.0,0.0,0.0,0.0,0.0,0.0,0.0,0.0,0.0,0.0,0.0,0.0,0.0,0.0,0.0,0.0,0.0,0.0,-0.2477,-0.2481,-0.2491,-0.251,-0.2511,-0.2589,-0.2668,-0.3059,-0.3448,-0.3684,-0.4231,-0.4621,-0.4927,-0.5085,-0.5395,-0.5709,-0.6022,-0.6331,-0.6567,-0.6949,-0.718,-0.7257,-0.7569,-0.7723,0.0,0.0,0.0,0.0,0.0,0.0,0.0,0.0,-0.7462,-0.7349,-0.7155,-0.6899,-0.6679,-0.6679,-0.6679,-0.6745,-0.6876,-0.7007,-0.7138,-0.7466,-0.7727,-0.8091,-0.9041,-0.9513,-0.9846,-1.0184,-1.0512,-1.1039,-1.1755,-1.2393,-1.3016,-1.3742,-1.4351,-1.4903,-1.5635,-1.596,-1.622,-1.631,-1.5982,-1.5708,-1.565,-1.5304,-1.5195,-1.5359,-1.5638,-1.5868,-1.5994,-1.6258,-1.6448,-1.6581,-1.6763,-1.6926,-1.715,-1.7272,-1.7432,-1.7612,-1.7932,-1.8184,-1.8365,-1.8448,-1.8508,-1.8566,-1.8696,-1.877,-1.8807,-1.8861,-1.8949,-1.9035,-1.9086,-1.9295,-1.976,-2.1131,-2.1861,-2.2389,0.0,0.0,0.0,0.0,0.0,0.0,0.0,0.0,0.0,0.0,0.0,0.0,0.0,0.0,0.0,0.0,0.0,0.0,-0.2416,-0.2418,-0.2446,-0.2506,-0.251,-0.251,-0.251,-0.2666,-0.3057,-0.3526,-0.3921,-0.4314,-0.4701,-0.4927,-0.5082,-0.5321,-0.5709,-0.6022,-0.6338,-0.6714,-0.7022,-0.718,-0.7407,-0.7484,-0.7484,0.0,0.0,0.0,0.0,0.0,0.0,0.0,-0.7102,-0.6991,-0.6749,-0.6495,-0.621,-0.621,-0.621,-0.6214,-0.635,-0.6548,-0.6741,-0.7138,-0.733,-0.7534,-0.7694,-0.8443,-0.9169,-0.9551,-1.0013,-1.0557,-1.1167,-1.1819,-1.2393,-1.3074,-1.3742,-1.4408,-1.5006,-1.5042,-1.5174,-1.564,-1.5042,-1.4691,-1.4956,-1.4809,-1.4763,-1.489,-1.5195,-1.5433,-1.5594,-1.5839,-1.608,-1.6301,-1.6421,-1.6607,-1.6789,-1.6917,-1.7068,-1.7191,-1.7337,-1.7658,-1.8113,-1.8163,-1.8229,-1.829,-1.8365,-1.8467,-1.8585,-1.8585,-1.8716,-1.8895,-1.8895,-1.9434,-2.03,-2.1188,-2.206,-2.2901,0.0,0.0,0.0,0.0,0.0,0.0,0.0,0.0,0.0,0.0,0.0,0.0,0.0,0.0,0.0,0.0,0.0,0.0,-0.2357,-0.2361,-0.2368,-0.2387,-0.2387,-0.2387,-0.2387,-0.2534,-0.2954,-0.3526,-0.3763,-0.4075,-0.4462,-0.4698,-0.501,-0.5321,-0.5556,-0.5789,-0.6018,-0.6633,-0.6942,-0.7019,-0.733,-0.7484,-0.7484,0.0,0.0,0.0,0.0,0.0,0.0,0.0,0.0,0.0,-0.6419,-0.6258,-0.6148,-0.602,-0.602,-0.602,-0.602,-0.6086,-0.6218,-0.6548,-0.6679,-0.6824,-0.7264,-0.7833,-0.8481,-0.8925,-0.9482,-1.0028,-1.0549,-1.1217,-1.1918,-1.255,-1.3218,-1.3721,-1.4027,-1.4321,-1.4387,-1.4101,-1.4138,-1.4146,-1.4036,-1.4139,-1.4292,-1.4529,-1.4763,-1.4996,-1.515,-1.5433,-1.5638,-1.5796,-1.6037,-1.6231,-1.6448,-1.6581,-1.6738,-1.6917,-1.7043,-1.7337,-1.7749,-1.7861,-1.7971,-1.8095,-1.8159,-1.8284,-1.8391,-1.8487,-1.8584,-1.8698,-1.8698,-1.9234,-2.0079,-2.0979,-2.1848,-2.27,0.0,0.0,0.0,0.0,0.0,0.0,0.0,0.0,0.0,0.0,0.0,0.0,0.0,0.0,0.0,0.0,0.0,0.0,0.0,-0.2227,-0.2239,-0.2334,-0.2335,-0.2335,-0.2335,-0.2407,-0.2736,-0.3275,-0.3429,-0.3808,-0.4263,-0.4414,-0.4717,-0.5173,-0.5324,-0.5548,-0.5773,-0.6446,-0.6671,-0.6749,-0.7199,-0.7454,-0.7538,0.0,0.0,0.0,0.0,0.0,0.0,0.0,0.0,0.0,-0.6336,-0.6148,-0.6017,-0.5818,-0.5756,-0.569,-0.5756,-0.5752,-0.5818,-0.6152,-0.6233,-0.6369,-0.6852,-0.7403,-0.8,-0.8457,-0.8935,-0.9458,-1.0028,-1.0702,-1.1418,-1.2067,-1.2551,-1.2949,-1.3263,-1.342,-1.3367,-1.32,-1.335,-1.3417,-1.3335,-1.3602,-1.3914,-1.4138,-1.4351,-1.4547,-1.4783,-1.5074,-1.5285,-1.5433,-1.5682,-1.5911,-1.6151,-1.6246,-1.6421,-1.6649,-1.6712,-1.6942,-1.7288,-1.7502,-1.7681,-1.7856,-1.8005,-1.8095,-1.8184,-1.8342,-1.8426,-1.8489,-1.8489,-1.9217,-2.0327,-2.0886,-2.1818,-2.2896,0.0,0.0,0.0,0.0,0.0,0.0,0.0,0.0,0.0,0.0,-0.2822,0.0,0.0,0.0,0.0,0.0,0.0,0.0,0.0,0.0,-0.2262,-0.2316,-0.2319,-0.2319,-0.2319,-0.2319,-0.2462,-0.2892,-0.3052,-0.3497,-0.4077,-0.4077,-0.4367,-0.4873,-0.5084,-0.53,-0.5591,-0.6162,-0.6448,-0.6459,-0.6984,-0.7347,-0.7508,-0.7685,0.0,0.0,0.0,0.0,0.0,0.0,0.0,0.0,-0.6328,-0.6086,-0.5888,-0.5683,-0.5488,-0.5428,-0.5554,-0.555,-0.5617,-0.5822,-0.5944,-0.6154,-0.6446,-0.7028,-0.7689,-0.8057,-0.8474,-0.8988,-0.9607,-1.0218,-1.0872,-1.1665,-1.1854,-1.2109,-1.2624,-1.2383,-1.2267,-1.2623,-1.2659,-1.2697,-1.2826,-1.3207,-1.3527,-1.3708,-1.3947,-1.4181,-1.4438,-1.469,-1.4921,-1.5117,-1.5344,-1.558,-1.5842,-1.5926,-1.608,-1.6371,-1.6371,-1.6517,-1.6763,-1.7101,-1.7368,-1.7589,-1.7833,-1.7961,-1.7961,-1.8108,-1.8218,-1.8287,-1.8356,-1.9363,-2.0785,-2.0921,-2.1953,-2.3289,0.0,0.0,0.0,0.0,0.0,0.0,0.0,0.0,0.0,0.0,0.0,0.0,0.0,0.0,0.0,0.0,0.0,0.0,0.0,0.0,-0.2179,-0.2192,-0.2194,-0.2194,-0.2194,-0.233,-0.2466,-0.2736,-0.2926,-0.335,-0.4077,-0.4077,-0.4367,-0.4873,-0.5084,-0.5372,-0.5731,-0.6233,-0.652,-0.6809,-0.706,-0.7292,-0.752,-0.7564,-0.7577,0.0,0.0,0.0,0.0,0.0,0.0,0.0,-0.6292,-0.6086,-0.5888,-0.5683,-0.5488,-0.5428,-0.5425,-0.5425,-0.5491,-0.5617,-0.5792,-0.5944,-0.6249,-0.6524,-0.6877,-0.7526,-0.8103,-0.8679,-0.9204,-0.967,-1.009,-1.0717,-1.101,-1.1176,-1.1315,-1.1562,-1.1754,-1.1788,-1.2062,-1.2294,-1.2484,-1.2826,-1.3104,-1.3297,-1.3514,-1.3769,-1.4084,-1.4305,-1.4497,-1.4641,-1.4951,-1.5209,-1.5433,-1.5551,-1.5769,0.0,-1.6151,-1.6289,-1.649,-1.6789,-1.7043,-1.7288,-1.7566,-1.7681,-1.7698,-1.7833,-1.7944,-1.8121,-1.8704,-1.9608,-2.0651,-2.1289,-2.2181,-2.3095,0.0,0.0,0.0,0.0,0.0,0.0,0.0,0.0,0.0,0.0,0.0,0.0,0.0,0.0,0.0,0.0,0.0,0.0,0.0,0.0,-0.2288,-0.2288,-0.2288,-0.2354,-0.242,-0.2488,-0.2688,-0.2956,-0.3044,-0.3365,-0.3995,-0.4137,-0.4415,-0.4833,-0.5177,-0.5451,-0.5724,-0.6211,-0.649,-0.67,-0.7133,-0.7451,-0.7674,-0.7845,-0.7948,-0.8004,-0.7832,0.0,0.0,0.0,0.0,0.0,0.0,0.0,-0.6086,-0.5818,-0.562,-0.5488,-0.5488,-0.5425,-0.5391,-0.5499,-0.5589,-0.5696,-0.601,-0.6138,-0.6381,-0.709,-0.7676,-0.8165,-0.8597,-0.9098,-0.9568,-0.9976,-1.0292,-1.0499,-1.0656,-1.0854,-1.1069,-1.1212,-1.159,-1.1884,-1.2138,-1.2473,-1.2756,-1.3,-1.3185,-1.3459,-1.3735,-1.3993,-1.4189,-1.4337,-1.461,-1.4859,-1.5117,-1.5209,-1.5433,-1.5769,-1.5841,-1.6011,-1.6316,-1.6649,-1.6908,-1.7117,-1.7329,-1.7408,-1.7408,-1.7572,-1.7726,-1.7879,-1.867,-1.9529,-2.0467,-2.1238,-2.2047,-2.2842,0.0,0.0,0.0,0.0,0.0,0.0,0.0,0.0,0.0,0.0,0.0,0.0,0.0,0.0,0.0,0.0,0.0,0.0,0.0,0.0,0.0,-0.2423,-0.2423,-0.2555,-0.2753,-0.2753,-0.2956,-0.3228,-0.3362,-0.356,-0.3892,-0.4164,-0.45,-0.4894,-0.5226,-0.5557,-0.5749,-0.6214,-0.6482,-0.6626,-0.7257,-0.7662,-0.7875,-0.8191,-0.8399,-0.8513,-0.8185,-0.7986,-0.7832,-0.7391,0.0,0.0,0.0,0.0,-0.6416,-0.6086,-0.5885,-0.5683,-0.5683,-0.5554,-0.5484,-0.542,-0.5461,-0.5493,-0.5772,-0.59,-0.6164,-0.6766,-0.73,-0.7747,-0.7993,-0.8538,-0.9037,-0.9358,-0.9587,-0.9816,-1.0141,-1.0299,-1.0467,-1.0764,-1.118,-1.1505,-1.1763,-1.2102,-1.2413,-1.2685,-1.2873,-1.3129,-1.3378,-1.3661,-1.3908,-1.4092,-1.4292,-1.4547,-1.4808,-1.4904,-1.5104,-1.5418,-1.5551,-1.5784,-1.6194,-1.6517,-1.6769,-1.6946,-1.7059,-1.7142,-1.7183,-1.7361,-1.7562,-1.7809,-1.8617,-1.9496,-2.0399,-2.1164,-2.1924,-2.2579,0.0,0.0,0.0,0.0,0.0,0.0,0.0,0.0,0.0,0.0,-0.3692,-0.3558,0.0,0.0,0.0,0.0,0.0,0.0,-0.2686,0.0,0.0,-0.2686,-0.2686,-0.2755,-0.2956,-0.3092,-0.3228,-0.3431,-0.3899,-0.4167,-0.4233,-0.43,-0.4564,-0.5087,-0.5292,-0.5756,-0.6284,-0.6544,-0.6937,-0.7396,-0.7564,-0.7831,-0.8153,-0.8184,-0.8336,-0.8472,-0.8234,-0.8148,-0.8083,-0.7736,-0.7531,0.0,0.0,0.0,-0.6609,-0.6416,-0.6214,-0.6083,-0.5888,-0.5822,-0.581,-0.5601,-0.5574,-0.5604,-0.5772,-0.59,-0.6164,-0.6652,-0.7139,-0.76,-0.7898,-0.8136,-0.8379,-0.8602,-0.8778,-0.8994,-0.9399,-0.9802,-1.0166,-1.0418,-1.0829,-1.1159,-1.1345,-1.1689,-1.1993,-1.2246,-1.2473,-1.2685,-1.2965,-1.3288,-1.3527,-1.3682,-1.3934,-1.4208,-1.4461,-1.4637,-1.4842,-1.5074,-1.5359,-1.5682,-1.6039,-1.608,-1.6301,-1.6649,-1.6789,-1.6924,-1.7048,-1.7174,-1.76,-1.8283,-1.9164,-2.0027,-2.0931,-2.1771,-2.2237,-2.2432,0.0,0.0,0.0,0.0,0.0,0.0,0.0,0.0,0.0,0.0,0.0,-0.3828,0.0,0.0,0.0,-0.3355,-0.3288,-0.3291,-0.3159,-0.3025,-0.3023,-0.3159,-0.3159,-0.3226,-0.3424,-0.3558,-0.3761,-0.3966,-0.4298,-0.4561,-0.4761,-0.4957,-0.509,-0.5292,-0.5756,-0.6218,-0.6613,-0.7003,-0.7391,-0.7787,-0.8052,-0.8376,-0.8689,-0.8753,-0.8947,-0.9081,-0.8947,-0.8812,-0.863,-0.8501,-0.8247,-0.7987,-0.7727,0.0,0.0,0.0,-0.6745,-0.6548,-0.6152,-0.6083,-0.6002,-0.5659,-0.5638,-0.5727,-0.5772,-0.5955,-0.6223,-0.6598,-0.6919,-0.7224,-0.7419,-0.7674,-0.793,-0.8139,-0.8419,-0.8724,-0.9088,-0.9487,-0.9843,-1.0127,-1.0457,-1.0791,-1.1084,-1.1356,-1.1653,-1.1957,-1.221,-1.2425,-1.265,-1.2965,-1.3242,-1.3493,-1.3682,-1.3901,-1.4176,-1.4383,-1.4637,-1.4949,-1.5193,-1.5463,-1.5711,-1.5841,-1.6095,-1.6436,-1.6543,-1.6665,-1.6817,-1.7364,-1.7807,-1.8243,-1.9514,-2.0266,-2.0775,-2.1649,-2.2032,-2.2147,0.0,0.0,0.0,0.0,0.0,0.0,0.0,0.0,0.0,0.0,0.0,0.0,0.0,0.0,0.0,0.0,-0.3956,-0.3892,-0.3696,-0.356,-0.356,-0.3696,-0.3763,-0.3897,-0.4025,-0.4225,-0.4361,-0.4567,-0.4827,-0.509,-0.5289,-0.5705,-0.5821,-0.5698,-0.6264,-0.6679,-0.7003,-0.7456,-0.7912,-0.8312,-0.8571,-0.8894,-0.9274,-0.9402,-0.9594,-0.9779,-0.9716,-0.9524,-0.9338,-0.921,-0.9017,-0.87,-0.8376,-0.8247,0.0,0.0,0.0,-0.6942,-0.6544,-0.6478,-0.6327,-0.5908,-0.588,-0.5973,-0.5883,-0.6069,-0.6337,-0.6707,-0.679,-0.6884,-0.7092,-0.7346,-0.7595,-0.7756,-0.8152,-0.8529,-0.8895,-0.9248,-0.9567,-0.9902,-1.0205,-1.0495,-1.0867,-1.1094,-1.1356,-1.1712,-1.192,-1.2138,-1.2401,-1.265,-1.2931,-1.3254,-1.3412,-1.3648,-1.3901,-1.4157,-1.4479,-1.4794,-1.4994,-1.5193,-1.5389,-1.558,-1.5841,-1.6108,-1.6262,-1.6382,-1.6591,-1.7425,-1.7932,-1.8315,-1.968,-2.0427,-2.079,-2.1434,-2.1751,-2.1869,0.0,0.0,0.0,0.0,0.0,0.0,0.0,0.0,0.0,0.0,0.0,0.0,-0.4625,-0.4558,-0.4492,-0.4287,-0.4287,-0.4287,-0.4287,-0.422,-0.422,-0.4287,-0.4425,0.0,-0.4764,-0.4957,-0.5156,-0.5362,-0.569,-0.5822,-0.5885,-0.6301,-0.6535,-0.6543,-0.6798,-0.7143,-0.7661,-0.8047,-0.8495,-0.8952,-0.9145,-0.9536,-0.9919,-0.9983,-1.0174,-1.0491,-1.0308,-1.0238,-1.0174,-0.9843,-0.9646,-0.939,-0.9075,-0.8829,-0.8641,0.0,0.0,0.0,-0.7199,-0.7134,-0.7044,-0.6467,-0.6375,-0.6329,-0.6216,-0.6178,-0.6391,-0.6977,-0.6764,-0.6681,-0.7212,-0.7346,-0.745,-0.7489,-0.7912,-0.8332,-0.8683,-0.9079,-0.9408,-0.9683,-1.0059,-1.04,-1.0582,-1.0802,-1.1078,-1.1485,-1.1601,-1.1763,-1.2102,-1.2401,-1.2615,-1.2838,-1.3082,-1.3357,-1.3615,-1.4059,-1.4369,-1.4533,-1.4718,-1.4873,-1.5043,-1.5224,-1.5418,-1.5566,-1.5955,-1.6207,-1.6375,-1.713,-1.7901,-1.8754,-1.9681,-2.0539,-2.126,-2.137,-2.154,-2.1708,0.0,0.0,0.0,0.0,0.0,0.0,0.0,0.0,0.0,0.0,0.0,0.0,0.0,-0.5488,-0.5422,-0.5355,-0.5355,-0.5355,-0.5355,-0.5355,-0.5355,-0.5355,-0.5422,-0.5425,-0.5491,-0.5686,-0.5763,-0.5857,-0.6049,-0.6185,-0.6316,-0.6678,-0.689,-0.7016,-0.7235,-0.7585,-0.797,-0.8495,-0.9081,-0.9664,-0.9849,-1.0238,-1.0744,-1.0807,-1.1059,-1.1373,-1.1185,-1.1122,-1.1052,-1.0856,-1.0541,-1.0288,-1.004,-0.9786,-0.9472,-0.8823,-0.8501,-0.8242,-0.7912,-0.7787,-0.756,-0.7011,-0.6851,-0.6797,-0.6593,-0.6657,-0.6874,-0.7144,-0.7064,-0.696,-0.7254,-0.7199,-0.7227,-0.7454,-0.7821,-0.8193,-0.8521,-0.8854,-0.9185,-0.9536,-0.9783,-1.0059,-1.04,-1.0582,-1.0812,-1.1078,-1.1389,-1.1601,-1.1763,-1.2066,-1.2365,-1.2615,-1.2838,-1.3151,-1.3514,-1.3841,-1.4105,-1.4319,-1.4479,-1.4669,-1.4887,-1.5027,-1.5193,-1.5388,-1.5566,-1.6082,-1.6799,-1.7637,-1.8439,-1.9249,-2.0146,-2.0703,-2.099,-2.1183,-2.134,-2.1433,0.0,0.0,0.0,0.0,0.0,0.0,0.0,0.0,0.0,-0.6679,0.0,0.0,0.0,0.0,-0.6214,-0.6214,-0.628,-0.635,-0.635,-0.6346,-0.6412,-0.6412,-0.6474,-0.6449,-0.6387,-0.6513,-0.6549,-0.648,-0.6613,-0.673,-0.6892,-0.718,-0.7374,-0.7555,-0.7893,-0.8127,-0.8337,-0.8965,-0.9643,-1.0227,-1.0577,-1.0989,-1.1498,-1.1677,-1.1919,-1.2166,-1.2104,-1.2042,-1.1973,-1.1849,-1.1608,-1.1303,-1.1101,-1.0724,-1.0225,-0.9652,-0.9402,-0.9204,-0.8753,-0.856,-0.8318,-0.7673,-0.7498,-0.7438,-0.7132,-0.7187,-0.7354,-0.758,-0.7425,-0.7296,-0.7452,-0.7301,-0.7196,-0.7447,-0.7773,-0.8103,-0.8439,-0.87,-0.9033,-0.9399,-0.9585,-0.9832,-1.0205,-1.039,-1.0621,-1.0878,-1.1164,0.0,-1.1564,-1.1847,-1.2174,-1.2544,-1.2733,-1.2978,-1.3391,-1.3607,-1.3808,-1.4072,-1.4189,-1.4369,-1.4651,-1.4766,-1.4921,-1.5147,-1.5239,-1.5905,-1.694,-1.7776,-1.859,-1.9397,-2.0262,-2.0662,-2.0728,-2.0974,-2.1087,-2.1166,0.0,0.0,0.0,0.0,0.0,0.0,0.0,0.0,-0.7596,-0.7269,0.0,0.0,0.0,0.0,0.0,-0.699,-0.7129,-0.7265,-0.7265,-0.7391,-0.7451,-0.7451,-0.7637,-0.7599,-0.7332,-0.7519,-0.7471,-0.724,-0.7364,-0.7542,-0.7704,-0.7818,-0.7981,-0.8267,-0.8762,-0.8852,-0.8721,-0.9462,-1.0141,-1.0671,-1.1283,-1.1849,-1.2351,-1.2482,-1.2781,-1.307,-1.307,-1.307,-1.3009,-1.2887,-1.272,-1.2474,-1.2143,-1.1578,-1.1017,-1.0667,-1.0471,-1.0205,0.0,0.0,0.0,-0.8562,-0.831,-0.823,-0.7835,-0.7723,-0.783,-0.8168,-0.7835,-0.7596,-0.7882,-0.7627,-0.7426,-0.7419,-0.7739,-0.8111,-0.8373,-0.8708,-0.8992,-0.9279,-0.9545,-0.9793,-1.0049,-1.0196,-1.0467,-1.084,-1.0878,-1.1078,-1.1448,-1.1675,-1.2077,-1.2662,-1.2768,-1.2908,-1.3198,-1.3391,-1.3594,-1.3788,-1.3947,-1.4111,-1.43,-1.442,-1.461,-1.4808,-1.4949,-1.5663,-1.6772,-1.7477,-1.8331,-1.9198,-1.9974,-2.0357,-2.0527,-2.0728,-2.0811,-2.0926,0.0,0.0,0.0,0.0,0.0,0.0,-0.9005,-0.8823,-0.863,0.0,0.0,0.0,-0.8431,-0.8431,-0.8431,-0.8431,-0.8624,-0.8689,-0.8689,-0.8877,-0.8935,-0.8935,-0.876,-0.8635,-0.85,-0.8391,-0.824,-0.8154,-0.816,-0.8229,-0.8373,-0.8448,-0.8684,-0.8958,-0.927,-0.9578,-0.9792,-1.0123,-1.0596,-1.111,-1.1909,-1.2408,-1.2789,-1.3459,-1.3855,-1.4103,-1.4103,-1.4163,-1.4222,-1.4043,-1.3855,-1.3494,-1.2879,-1.2573,-1.232,-1.1772,-1.1578,-1.1392,-1.0912,0.0,0.0,0.0,0.0,0.0,-0.8538,-0.8408,-0.8421,-0.8593,-0.8555,-0.8365,-0.814,-0.8108,-0.8025,-0.779,-0.7904,-0.8103,-0.8439,-0.8643,-0.8886,-0.9239,-0.9368,-0.9527,-0.9853,-1.0049,-1.0235,0.0,-1.0736,-1.0964,-1.104,-1.1516,-1.1957,-1.2258,-1.2556,-1.2745,-1.285,-1.3116,-1.3369,-1.3493,-1.3728,-1.3927,-1.4098,-1.4273,-1.4433,-1.4637,-1.5258,-1.6023,-1.6895,-1.7364,-1.8354,-1.9577,-1.9949,-2.02,-2.0373,-2.0475,-2.0644,-2.086,0.0,0.0,0.0,0.0,0.0,-1.0218,-1.0028,-0.9843,-0.9716,0.0,0.0,0.0,-0.9646,-0.9703,-0.9773,-0.9773,-0.9958,-1.0148,-1.0148,-1.0268,-1.0332,-1.0332,-0.9995,-0.9793,-0.9669,-0.933,-0.9101,-0.8977,-0.8977,-0.9052,-0.919,-0.9242,-0.9451,-0.9777,-1.0079,-1.0379,-1.0769,-1.1027,-1.1301,-1.1542,-1.2392,-1.3037,-1.3539,-1.4169,-1.4723,-1.5177,-1.5177,-1.5225,-1.5342,-1.5274,-1.504,-1.4688,-1.4085,-1.3846,-1.3657,-1.3105,-1.2862,-1.2687,-1.2158,-1.1669,-1.1152,-1.0595,0.0,0.0,-0.9365,-0.9242,-0.9197,-0.9309,-0.9271,-0.9099,-0.8667,-0.8618,-0.8512,-0.8214,-0.8193,-0.8267,-0.848,-0.8643,-0.8895,-0.9239,-0.9319,-0.9448,-0.9774,-0.9971,-1.0127,-1.0283,-1.0582,-1.0888,-1.1088,-1.1463,-1.1785,-1.1993,-1.2294,-1.2484,-1.2556,-1.2838,-1.3094,-1.3301,-1.3472,-1.3674,-1.3914,-1.4026,-1.4222,-1.4461,-1.5178,-1.5991,-1.6844,-1.7337,-1.8329,-1.9545,-1.9777,-1.9955,-2.008,-2.027,-2.0475,-2.0642,0.0,0.0,-1.2135,-1.1787,-1.1608,-1.1365,-1.1115,-1.0989,-1.0912,0.0,-1.0766,-1.0766,-1.0766,-1.0954,-1.1017,-1.1017,-1.1329,-1.1516,-1.1516,-1.1695,-1.1757,-1.1757,-1.1361,-1.1048,-1.0815,-1.0387,-0.9999,-0.9769,-0.9814,-0.9917,-1.0167,-1.0167,-1.0423,-1.0795,-1.1049,-1.136,-1.1719,-1.2067,-1.2177,-1.2114,-1.286,-1.3616,-1.4332,-1.4668,-1.5315,-1.6074,-1.6182,-1.6306,-1.6409,-1.6451,-1.6312,-1.6036,-1.5575,-1.5274,-1.5021,-1.456,-1.4296,-1.3963,-1.3365,-1.2839,-1.234,-1.1616,-1.1122,0.0,-1.0296,-1.0167,-1.0123,-1.0115,-1.005,-0.9826,-0.9384,-0.9144,-0.8931,-0.8627,-0.8561,-0.8561,-0.8561,-0.8741,-0.9024,-0.9279,-0.9319,-0.9448,-0.9744,-0.9902,-1.0059,-1.0244,-1.0467,-1.0822,-1.1309,-1.1459,-1.1586,-1.1847,-1.1993,-1.2186,-1.2365,-1.2556,-1.2815,-1.3072,-1.3129,-1.3369,-1.3708,-1.3741,-1.3941,-1.4262,-1.4992,-1.582,-1.6691,-1.7407,-1.8312,-1.9288,-1.9545,-1.9654,-1.9762,-2.008,-2.027,-2.0397,0.0,-1.3726,-1.3485,-1.3199,-1.2834,-1.2642,-1.2581,-1.2336,-1.2143,-1.2135,-1.2266,-1.2389,-1.2512,-1.2573,-1.2573,-1.2573,-1.2757,-1.287,-1.3045,-1.3218,-1.3347,-1.3537,-1.2711,-1.2256,-1.2189,-1.1381,-1.0963,-1.0897,-1.0973,-1.1124,-1.1292,-1.1375,-1.1665,-1.207,-1.212,-1.2423,-1.288,-1.3084,-1.3316,-1.3562,-1.3681,-1.4012,-1.4481,-1.5226,-1.5719,-1.6099,-1.6662,-1.6966,-1.7171,-1.7499,-1.7479,-1.7268,-1.6922,-1.6641,-1.6358,-1.6016,-1.5412,-1.4797,-1.4478,-1.3653,-1.2812,-1.2572,-1.1947,0.0,-1.1309,-1.1099,-1.0947,-1.0913,-1.0956,-1.0754,-0.9897,-0.9806,-0.9672,-0.9004,-0.8975,-0.9016,-0.883,-0.8903,-0.9056,-0.9279,-0.9377,-0.9515,-0.9723,-0.9911,-1.0019,-1.0059,-1.04,-1.0736,-1.0964,-1.126,-1.1459,-1.1586,-1.1811,-1.2029,-1.215,-1.2377,-1.2556,-1.278,-1.2908,-1.3082,-1.3301,-1.3527,-1.3728,-1.3974,-1.5321,-1.6027,-1.6327,-1.7758,-1.866,-1.9139,-1.9213,-1.942,-1.9726,-1.9797,-1.996,-2.0242,-1.5157,-1.4982,-1.4805,-1.4401,-1.4213,-1.4085,-1.3957,-1.3777,-1.3708,-1.3708,-1.3777,-1.3897,-1.4058,-1.4127,-1.4246,-1.4305,-1.4433,-1.4542,-1.466,-1.4718,-1.4787,-1.4904,-1.4053,-1.3547,-1.3547,-1.2647,-1.2187,-1.2187,-1.2267,-1.2365,-1.2482,-1.257,-1.2803,-1.3092,-1.3188,-1.3426,-1.3862,-1.4003,-1.4294,-1.4686,-1.4318,-1.4564,-1.5132,-1.574,-1.631,-1.6837,-1.7217,-1.7461,-1.7697,-1.7808,-1.78,-1.7697,-1.7376,-1.7167,-1.6946,-1.6534,-1.6095,-1.5595,-1.5233,-1.4469,-1.3761,-1.3568,-1.2936,0.0,0.0,-1.2138,-1.199,-1.1891,-1.1891,-1.171,-1.1028,-1.0714,-1.0401,-0.9852,-0.9591,-0.9435,-0.9315,-0.9226,-0.9217,-0.9377,-0.9475,-0.9563,-0.9683,-0.9872,-1.0059,-1.0205,-1.039,-1.0621,-1.0878,-1.105,-1.125,-1.1459,-1.1623,-1.176,-1.1881,-1.2125,-1.233,-1.2437,-1.2697,-1.2873,-1.3047,-1.3288,-1.3493,-1.376,-1.5193,-1.5918,-1.6195,-1.7614,-1.8425,-1.8812,-1.9026,-1.9213,-1.9435,-1.9617,-1.9797,-2.0076,-1.6482,-1.6312,-1.614,-1.568,-1.5623,-1.5507,-1.5323,-1.5313,-1.5303,-1.5361,-1.5361,-1.5467,-1.5621,-1.5746,-1.5928,-1.6042,-1.6167,-1.6224,-1.6291,-1.6291,-1.6291,-1.6348,-1.5421,-1.4935,-1.4935,-1.4045,-1.3532,-1.3532,-1.3579,-1.3627,-1.3732,-1.3779,-1.3909,-1.4133,-1.4283,-1.4514,-1.4812,-1.496,-1.5287,-1.5656,-1.5197,-1.5406,-1.5916,-1.6219,-1.6842,-1.757,-1.7775,-1.8028,-1.8257,-1.8176,-1.8129,-1.8034,-1.7797,-1.7641,-1.7436,-1.7059,-1.6694,-1.6329,-1.5931,-1.5367,-1.4763,-1.4482,-1.4003,-1.3532,0.0,0.0,0.0,-1.2899,-1.2861,-1.2733,-1.2182,-1.1743,-1.129,-1.0837,-1.0403,-1.0115,-1.0065,-0.9885,-0.9668,-0.9533,-0.9563,-0.9594,-0.9723,-0.9911,-1.0127,-1.0341,-1.038,-1.0534,-1.0802,-1.0878,-1.1002,-1.1298,-1.141,-1.1533,-1.1645,-1.1918,-1.2077,-1.2174,-1.2437,-1.2697,-1.2873,-1.3047,-1.3352,-1.3732,-1.4956,-1.574,-1.6248,-1.7421,-1.8083,-1.8439,-1.8851,-1.9026,-1.9139,-1.9457,-1.9617,-1.9884,-1.8135,-1.7754,-1.7578,-1.7213,-1.7034,-1.6922,-1.6775,-1.6754,-1.6845,-1.7058,-1.7113,-1.7213,-1.7478,-1.749,-1.7588,-1.7741,-1.7741,-1.7818,-1.8004,-1.8004,-1.807,-1.819,-1.7145,-1.6543,-1.6543,-1.5404,-1.4801,-1.4801,-1.4903,-1.5005,-1.5005,-1.5107,-1.5231,-1.5398,-1.5555,-1.5732,-1.5928,-1.6201,-1.6429,-1.6655,-1.6896,-1.668,-1.6268,-1.6627,-1.6995,-1.7437,-1.8275,-1.8883,-1.9324,-1.9338,-1.9248,-1.9112,-1.893,-1.8734,-1.849,-1.827,-1.7684,-1.7024,-1.6805,-1.6236,-1.5605,-1.5335,-1.5062,-1.4835,-1.456,0.0,-1.4226,-1.392,0.0,-1.3596,-1.2838,0.0,0.0,-1.1737,-1.1585,-1.1512,-1.1416,-1.1296,-1.0856,-0.9805,-0.9713,-0.9783,-0.9783,-0.9971,-1.0166,-1.0312,-1.039,-1.0418,-1.0457,-1.0725,-1.0916,-1.0964,-1.125,-1.1459,-1.1522,-1.1682,-1.1881,-1.2113,-1.215,-1.2365,-1.2745,-1.2803,-1.326,-1.402,-1.4977,-1.5749,-1.6376,-1.7437,-1.7922,-1.8003,-1.84,-1.8774,-1.9101,-1.9139,-1.9288,-1.9627,-1.9411,-1.9044,-1.8886,-1.862,-1.8501,-1.8447,-1.8405,-1.8436,-1.8507,-1.8708,-1.8708,-1.8814,-1.9089,-1.9141,-1.9233,-1.9428,-1.9467,-1.948,-1.9556,-1.9556,-1.9608,-1.9672,-1.892,-1.8357,-1.7972,-1.7107,-1.6516,-1.6145,-1.6133,-1.6145,-1.6145,-1.6188,-1.6275,-1.6416,-1.6489,-1.6714,-1.6951,-1.7175,-1.7381,-1.7585,-1.7907,-1.7947,-1.776,-1.7585,-1.7787,-1.824,-1.8649,-1.8995,-1.9274,-1.9274,-1.9234,-1.9153,-1.8989,-1.8852,-1.8672,-1.8323,-1.7951,-1.7597,-1.7312,-1.6905,-1.6489,-1.6256,-1.6083,-1.5852,-1.5588,-1.5365,-1.5186,-1.488,0.0,0.0,0.0,0.0,0.0,0.0,-1.2507,-1.2201,-1.2105,-1.1943,-1.1565,-1.0832,-1.07,0.0,-1.0732,-1.0807,-1.089,-1.1025,-1.1057,-1.1099,-1.115,-1.1095,-1.1123,-1.1252,-1.1218,-1.1319,-1.1459,-1.1533,-1.1671,-1.1881,-1.2052,-1.2186,-1.2377,-1.2627,-1.3166,-1.3927,-1.4752,-1.5543,-1.6349,-1.7168,-1.7666,-1.7922,-1.8083,-1.84,-1.8774,-1.9026,-1.9139,-1.9441,-2.1108,-2.0544,-2.027,-2.0016,-1.9953,-2.0004,-2.0004,-2.008,-2.0155,-2.0356,-2.0356,-2.0455,-2.0703,-2.0752,-2.0851,-2.1129,-2.1129,-2.1129,-2.1129,-2.1129,-2.1129,-2.1129,-2.0637,-2.0057,-1.936,-1.8768,-1.8148,-1.7463,-1.7368,-1.7313,-1.7313,-1.7313,-1.7368,-1.7463,-1.7558,-1.7693,-1.7894,-1.8145,-1.8341,-1.8496,-1.8826,-1.8979,-1.8936,-1.8593,-1.8741,-1.9095,-1.9207,-1.9281,-1.942,-1.942,-1.942,0.0,-1.9169,-1.9095,-1.902,-1.8574,-1.8433,-1.8305,-1.7948,-1.772,-1.749,-1.7229,-1.7063,-1.6883,-1.6544,-1.6343,-1.6126,-1.582,-1.5623,0.0,0.0,0.0,-1.4238,-1.4116,0.0,-1.313,-1.3097,-1.2792,-1.2368,-1.1733,-1.1485,0.0,0.0,-1.1421,-1.1509,-1.1606,-1.1606,-1.1606,-1.1669,-1.1482,-1.1427,-1.1603,-1.1344,-1.1299,-1.1491,-1.1475,-1.1533,-1.1645,-1.1881,-1.2052,-1.2113,-1.2413,-1.2963,-1.3766,-1.4524,-1.5296,-1.6189,-1.6922,-1.7406,-1.7706,-1.7842,-1.8083,-1.84,-1.8812,-1.8988,-1.9304,-2.3591,-2.2548,-2.1602,-2.1459,-2.1411,-2.1459,-2.1602,-2.1649,-2.1744,-2.1979,-2.2025,-2.2104,-2.2306,-2.2306,-2.2457,-2.2684,-2.2743,-2.2743,-2.2743,-2.2743,-2.2743,-2.2743,-2.2207,-2.1541,-2.0737,-2.0145,-1.9434,-1.865,-1.865,-1.865,-1.865,-1.865,-1.865,-1.865,-1.8765,-1.8855,-1.8893,-1.9207,-1.9369,-1.9406,-1.9722,-1.9672,-1.9397,-1.9456,-1.9645,-1.9864,-2.0015,0.0,0.0,-2.0174,-2.0174,0.0,0.0,0.0,0.0,-1.9464,-1.9369,-1.9258,0.0,0.0,0.0,-1.8185,0.0,-1.7947,-1.7544,-1.7366,-1.7146,-1.6824,-1.6595,-1.6349,-1.6044,-1.5832,-1.5588,-1.513,-1.4915,0.0,0.0,-1.4201,-1.3453,-1.2162,-1.1747,-1.1562,0.0,-1.1509,-1.1606,-1.1606,-1.1606,-1.1606,-1.1606,-1.165,-1.1727,-1.188,-1.1634,-1.1561,-1.169,-1.1484,-1.1459,-1.1522,-1.1645,-1.1856,-1.2113,-1.2113,-1.2623,-1.3567,-1.4269,-1.5047,-1.5784,-1.6785,-1.7199,-1.7282,-1.7706,-1.7922,-1.7963,-1.8361,-1.8711,-1.9219,-2.5453,-2.5435,-2.4904,-2.3127,-2.2818,-2.2863,-2.2996,-2.3098,-2.3186,-2.3346,-2.3447,-2.3576,-2.3773,-2.3773,-2.3899,-2.4117,-2.4117,-2.4117,-2.4117,-2.4117,-2.4092,-2.4055,-2.3897,-2.3213,-2.1941,-2.166,-2.0933,-1.9687,-1.9585,-1.9549,-1.9492,-1.9492,-1.9492,-1.9492,-1.963,-1.9681,-1.9717,-1.9984,-2.0124,-2.0128,-1.9981,-1.961,-1.924,-1.935,-1.9302,-1.9108,-1.9155,-1.9233,0.0,-1.9358,-1.9358,-1.9311,-1.9171,-1.9108,-1.9061,-1.8757,-1.8692,0.0,0.0,0.0,-1.8037,-1.769,0.0,0.0,0.0,0.0,-1.7353,-1.7531,-1.738,-1.7102,-1.685,-1.6582,-1.6281,-1.5964,-1.5579,-1.5322,0.0,-1.4754,-1.4136,-1.3401,-1.2924,-1.2646,-1.2525,0.0,-1.2582,-1.2479,-1.2479,-1.2479,-1.2479,-1.226,-1.2193,-1.2228,-1.2007,-1.1799,-1.1582,-1.1575,-1.1559,-1.1421,-1.1533,-1.1671,-1.1918,-1.2041,-1.2574,-1.3404,-1.4087,-1.49,-1.5731,-1.6464,-1.6905,-1.7199,-1.7365,-1.7625,-1.7963,-1.8361,-1.8556,-1.8896,-2.7279,-2.764,-2.7324,-2.5237,-2.4914,-2.4998,-2.5181,-2.502,-2.4945,-2.5035,-2.491,-2.4886,-2.5096,-2.5096,-2.5173,-2.5347,-2.5384,-2.5384,-2.5384,-2.5384,-2.5363,-2.5319,-2.5281,-2.4548,-2.3032,-2.2929,-2.2141,-2.0648,-2.0534,-2.0467,-2.0416,-2.0416,-2.0416,-2.0416,-2.0481,-2.053,-2.053,-2.0747,-2.0845,-2.0814,-2.0408,-1.9727,-1.8996,0.0,-1.9116,-1.8981,0.0,-1.9054,-1.9183,-1.9183,-1.9183,-1.9155,-1.9026,-1.8981,-1.8924,-1.8691,-1.8602,-1.8526,-1.8238,-1.813,0.0,-1.7717,-1.7572,0.0,-1.7629,0.0,-1.7432,0.0,-1.7422,-1.718,-1.721,-1.6926,-1.669,-1.6587,-1.6238,-1.5888,0.0,-1.5108,-1.4616,-1.4255,-1.3716,-1.3324,-1.321,-1.3123,-1.3085,-1.2978,-1.2929,-1.2881,-1.2881,0.0,-1.2612,-1.2659,-1.2348,-1.2027,-1.1706,-1.1654,-1.1512,-1.1271,-1.1421,-1.1522,-1.1708,-1.1918,-1.2334,-1.2932,-1.3847,-1.459,-1.5253,-1.6123,-1.6693,-1.6989,-1.7115,-1.7365,-1.7706,-1.8109,-1.8665,-1.9371,-2.9085,-2.9119,-2.8864,-2.785,-2.7664,-2.7753,-2.7928,-2.7339,-2.6939,-2.7061,-2.6449,-2.6054,-2.6247,-2.6282,-2.6317,-2.6471,-2.6471,-2.6471,-2.6471,-2.6471,-2.6471,-2.6437,-2.6333,-2.5529,-2.3983,-2.3901,-2.3078,-2.1448,-2.1448,-2.1401,-2.1323,-2.1323,-2.1323,-2.1323,-2.1323,-2.1323,-2.1354,-2.1401,-2.146,-2.1404,-2.0948,-1.998,-1.8773,-1.8829,-1.9102,-1.9425,-1.9442,-1.9505,-1.962,-1.962,-1.962,-1.9593,-1.9452,-1.9425,-1.9388,-1.9186,-1.9086,-1.8986,-1.877,-1.8641,-1.8464,-1.8207,0.0,0.0,0.0,0.0,-1.7408,0.0,0.0,0.0,-1.7135,-1.697,-1.6823,-1.6988,-1.6854,-1.6454,-1.5724,-1.5367,-1.5017,-1.4662,-1.4046,-1.361,-1.342,-1.3258,-1.3123,-1.3133,-1.2978,-1.2929,-1.2929,0.0,-1.2978,-1.3085,-1.2669,-1.2323,-1.2124,-1.1726,-1.1406,-1.1124,-1.1292,-1.1421,-1.1522,-1.1708,-1.1881,-1.2159,-1.3497,-1.4146,-1.4413,-1.586,-1.6479,-1.6552,-1.6989,-1.7199,-1.724,-1.772,-1.8948,-2.0401,-3.0577,-3.1063,-3.1463,-3.1289,-2.9915,-2.8842,-2.8983,-2.8389,-2.7947,-2.8014,-2.7446,-2.7063,-2.7234,-2.7234,-2.7296,-2.7482,-2.7512,-2.7482,-2.7452,-2.7422,-2.7391,-2.722,-2.7144,-2.6344,-2.4739,-2.465,-2.3799,-2.2147,-2.2147,-2.2091,-2.1965,-2.1965,-2.1965,-2.1965,-2.1965,-2.1965,-2.1965,-2.2051,-2.1467,-2.0525,-2.0459,-1.957,-1.8293,0.0,-1.8512,-1.8663,-1.8478,-1.8409,-1.8455,-1.8455,-1.8455,-1.8432,-1.8409,-1.8346,-1.8299,-1.8181,-1.8085,-1.7947,-1.7781,-1.7655,-1.7526,-1.7343,-1.7183,-1.7145,0.0,0.0,0.0,0.0,0.0,0.0,0.0,0.0,-1.7342,-1.7174,-1.7007,-1.674,-1.6182,-1.5832,-1.5501,-1.5165,-1.4708,-1.4186,-1.361,-1.3478,-1.3382,-1.318,-1.3113,-1.3036,-1.3036,0.0,0.0,-1.2929,-1.2918,-1.2792,-1.2478,-1.2101,-1.1809,-1.1554,-1.1316,-1.1309,-1.1485,-1.156,-1.1771,-1.2159,-1.3263,-1.3957,-1.4373,-1.552,-1.6175,-1.6522,-1.665,-1.6892,-1.724,-1.772,-1.8686,-1.9823,-3.1983,-3.2432,-3.2844,-3.297,-3.1965,-3.1091,-3.0964,-3.0001,-2.9343,-2.9448,-2.8505,-2.7872,-2.7966,-2.8021,-2.8066,-2.8139,-2.821,-2.8166,-2.8112,-2.8112,-2.8057,-2.7936,-2.7833,-2.7053,-2.5447,-2.5295,-2.4435,-2.2807,-2.2755,-2.2669,-2.2537,-2.2537,-2.2537,-2.25,-2.25,-2.25,-2.2527,-2.2581,-2.1945,-2.0908,-2.0627,-1.9829,0.0,-1.8473,-1.8448,-1.8524,-1.8385,-1.8284,-1.8218,-1.8218,-1.8218,-1.8201,-1.818,-1.8138,-1.8061,-1.7992,-1.7883,-1.7766,-1.7681,-1.7519,-1.7361,-1.7248,-1.7076,-1.6988,-1.7258,-1.7149,-1.7036,0.0,0.0,0.0,0.0,0.0,-1.7562,-1.7668,-1.7491,-1.716,-1.6752,-1.6367,-1.5932,-1.5558,-1.5198,-1.4743,-1.414,-1.3858,-1.3621,-1.3409,-1.3238,0.0,0.0,0.0,0.0,-1.2988,-1.2978,-1.2867,-1.2523,-1.2196,-1.1858,-1.1571,-1.1253,-1.1158,-1.1346,-1.1448,-1.1623,-1.1889,-1.3077,-1.3755,-1.408,-1.5305,-1.5969,-1.6219,-1.6436,-1.6778,-1.724,-1.7502,-1.8289,-1.9308,-3.3208,-3.3309,-3.3419,-3.357,-3.3689,-3.3597,-3.3015,-3.1683,-3.0728,-3.074,-2.9445,-2.8529,-2.8628,-2.8676,-2.8676,-2.8652,-2.8676,-2.8676,-2.8628,-2.8585,-2.8597,-2.8576,-2.8464,-2.7691,-2.6183,-2.5911,-2.502,-2.3513,-2.3354,-2.3199,-2.3077,-2.3077,-2.3028,-2.2995,-2.2995,-2.2995,-2.2995,-2.3045,-2.2614,-2.1885,-2.1145,-2.0396,-1.9661,-1.8923,-1.8678,-1.8734,-1.8788,-1.8714,-1.8524,-1.8524,-1.8524,-1.8524,-1.8465,-1.8388,-1.833,-1.8287,-1.8159,-1.8048,-1.8048,-1.7856,-1.7635,-1.7572,-1.7408,-1.7216,-1.7117,-1.6968,-1.6815,-1.6607,-1.6448,-1.6416,0.0,0.0,-1.7631,-1.819,-1.8027,-1.7679,-1.7323,-1.6892,-1.6423,-1.5964,-1.5603,0.0,-1.4846,-1.4233,-1.381,-1.3705,-1.3409,0.0,0.0,0.0,0.0,-1.3123,-1.2978,-1.2791,-1.25,0.0,-1.1749,-1.148,-1.1217,-1.1092,-1.113,-1.1346,-1.1485,-1.1577,-1.2918,-1.3552,-1.3714,-1.5132,-1.5748,-1.5836,-1.6306,-1.6735,-1.7115,-1.7199,-1.7779,-1.8737,-3.3734,-3.3823,-3.3902,-3.4055,-3.413,-3.3956,-3.3255,-3.2114,-3.114,-3.0544,-2.9714,-2.9169,-2.923,-2.9251,-2.9291,-2.9314,-2.9353,-2.9293,-2.9169,-2.9169,-2.9104,-2.9016,-2.892,-2.8434,-2.75,-2.6627,-2.5715,-2.4689,-2.3974,-2.3558,-2.3481,-2.3481,-2.3476,-2.3383,-2.3383,-2.3383,-2.3401,-2.3424,-2.2944,-2.2167,-2.1366,-2.0642,-1.9951,-1.9146,-1.8861,-1.886,-1.8878,-1.8807,-1.8751,-1.8751,-1.8751,-1.8732,-1.8659,-1.8585,-1.8545,-1.8522,-1.8385,-1.8266,-1.8266,-1.8078,-1.7939,-1.7917,-1.7704,-1.7502,-1.7519,-1.7313,-1.7093,-1.6942,-1.6747,-1.6612,-1.6499,0.0,0.0,-1.8079,-1.8252,-1.8187,-1.776,-1.7352,-1.6892,-1.6423,-1.6076,-1.5736,-1.5379,-1.4697,-1.4233,-1.4082,-1.3752,0.0,0.0,0.0,0.0,0.0,-1.3113,0.0,0.0,0.0,-1.1933,-1.196,-1.1273,-1.1006,-1.1092,-1.1195,-1.1335,-1.1577,-1.27,-1.3346,-1.3661,-1.4783,-1.5424,-1.5836,-1.6306,-1.6565,-1.668,-1.7073,-1.7306,-1.771,-3.4124,-3.4197,-3.4269,-3.4427,-3.4517,-3.417,-3.2973,-3.235,-3.1688,-3.0781,-3.0018,-2.957,-2.9608,-2.9645,-2.9645,-2.9645,-2.9701,-2.9645,-2.9513,-2.9513,-2.9455,-2.9373,-2.931,-2.8878,-2.8024,-2.7469,-2.6554,-2.5269,-2.4801,-2.4314,-2.381,-2.381,-2.3768,-2.366,-2.366,-2.366,-2.366,0.0,0.0,-2.298,-2.179,-2.111,-2.0698,-1.9469,-1.9035,-1.9051,-1.9051,-1.9017,-1.8984,-1.8896,-1.8843,-1.8843,-1.8807,-1.8789,-1.8752,-1.8695,-1.8582,-1.845,-1.8408,-1.8287,-1.8159,-1.81,-1.7966,-1.7811,-1.7772,-1.7589,-1.7361,-1.7175,-1.7027,-1.6911,-1.696,-1.7516,0.0,0.0,0.0,-1.8669,-1.8226,-1.7787,-1.7352,-1.6892,-1.6522,-1.6132,-1.578,-1.5277,-1.4834,-1.443,-1.4093,0.0,0.0,0.0,0.0,0.0,0.0,0.0,0.0,0.0,0.0,-1.1746,-1.1161,-1.093,-1.1006,-1.112,-1.1233,-1.1378,-1.2276,-1.2918,-1.3437,-1.4606,-1.5379,-1.5836,-1.6057,-1.6306,-1.6522,-1.6765,-1.6989,-1.7453,-3.4404,-3.445,-3.4517,-3.4708,-3.4637,-3.4093,-3.2655,-3.2345,-3.1908,-3.0863,-3.022,-2.9857,-2.9874,-2.9926,-2.9926,-2.9857,-2.9758,-2.9628,-2.9506,-2.9319,-2.9191,-2.9139,-2.9233,-2.897,-2.8259,-2.8123,-2.7412,-2.606,-2.5815,0.0,0.0,-2.433,-2.416,-2.3858,-2.3837,0.0,0.0,0.0,-2.3837,-2.3728,-2.2331,-2.1679,-2.1352,-1.9916,-1.9295,-1.9202,-1.9202,-1.9202,-1.9168,-1.9017,-1.8965,-1.8948,-1.8948,-1.8949,-1.8932,-1.8843,-1.8733,-1.8622,-1.8582,-1.8465,-1.8348,-1.8287,-1.8163,-1.8048,-1.7988,-1.7794,-1.7612,-1.7415,-1.7231,-1.718,-1.7334,-1.7723,0.0,0.0,0.0,0.0,-1.864,-1.8226,-1.7787,-1.7393,-1.6947,-1.6522,-1.6163,-1.5869,-1.5424,-1.4846,-1.4466,0.0,-1.3962,0.0,0.0,0.0,0.0,-1.3074,-1.265,0.0,-1.1858,-1.1399,-1.1059,-1.0891,-1.0891,-1.1044,-1.112,-1.1217,-1.1947,-1.2641,-1.3384,-1.4607,-1.5334,-1.5703,-1.5792,-1.6013,-1.6349,-1.6479,-1.6723,-1.7271,-3.4539,-3.4583,-3.4647,-3.485,-3.4283,-3.3524,-3.2699,-3.1962,-3.1192,-3.0281,-3.0106,-3.0094,-3.0157,-3.0176,-3.0142,-3.0079,-2.9413,-2.8946,-2.8795,-2.8048,-2.7623,-2.7614,-2.8229,-2.8518,-2.837,-2.8316,-2.8146,-2.7863,0.0,-2.6224,0.0,-2.5351,-2.4907,0.0,0.0,0.0,0.0,-2.3976,-2.3976,-2.3885,-2.3029,-2.2245,-2.148,-2.0604,-1.9839,-1.9202,-1.9202,-1.9202,-1.9202,-1.9168,-1.9168,-1.9152,-1.9104,-1.907,-1.9053,-1.8931,-1.8825,-1.8788,-1.8769,-1.8657,-1.8559,-1.8502,-1.8368,-1.8246,-1.8194,-1.8027,-1.7839,-1.7687,-1.7368,-1.7068,-1.6981,-1.7286,-1.7723,0.0,0.0,0.0,0.0,-1.8707,-1.8266,-1.7787,-1.7393,-1.6976,-1.668,-1.6349,-1.5969,-1.5546,-1.4926,0.0,0.0,0.0,0.0,-1.3773,0.0,-1.3309,-1.2766,-1.2351,-1.1858,-1.1399,-1.1059,-1.0891,-1.0891,-1.1044,-1.1092,-1.1151,-1.183,-1.2787,-1.3981,-1.4789,-1.521,-1.5402,-1.5659,-1.5836,-1.5925,-1.6349,-1.6522,-1.6815,-3.4687,-3.4747,0.0,0.0,0.0,0.0,0.0,-3.1947,-3.115,-3.0327,-3.0213,-3.0226,-3.0272,-3.0253,-3.0029,-2.9499,-2.9148,-2.872,-2.8131,-2.7728,-2.7495,-2.7456,-2.8209,-2.8598,-2.8514,-2.8932,-2.8858,0.0,0.0,0.0,0.0,0.0,0.0,0.0,0.0,-2.4172,-2.4172,-2.4172,-2.4172,-2.4099,-2.329,-2.2776,-2.2353,-2.1066,-2.0386,-2.0037,-1.9559,-1.9344,-1.9329,-1.9329,-1.9266,-1.9202,-1.917,-1.9135,-1.9084,-1.9035,-1.8966,-1.8914,-1.8824,-1.8751,-1.8695,-1.8601,-1.8487,-1.8406,-1.8342,-1.8197,-1.8027,-1.7861,-1.7526,-1.7224,-1.7052,-1.746,-1.7931,0.0,0.0,0.0,0.0,-1.9124,-1.8707,-1.8266,-1.7828,-1.7393,-1.7031,-1.6693,-1.6349,-1.6013,-1.539,0.0,0.0,0.0,0.0,-1.4046,0.0,-1.308,-1.2632,-1.2078,-1.1542,-1.112,-1.0974,-1.0891,-1.0891,-1.0968,-1.1006,-1.1162,-1.2101,-1.2835,-1.3474,-1.4485,-1.5028,-1.521,-1.5513,-1.5691,-1.5836,-1.6088,-1.6349,-1.6672,-3.4768,0.0,-3.4888,0.0,-3.4162,-3.3263,-3.2721,-3.1785,-3.091,-3.0343,-3.0279,-3.0312,-3.0337,-3.0337,-2.996,-2.9084,-2.8772,-2.8268,-2.7377,-2.7033,-2.6841,-2.6792,-2.7793,0.0,-2.8207,-2.921,-2.9401,-2.8746,-2.8633,0.0,0.0,0.0,0.0,0.0,-2.4414,-2.4284,-2.4284,-2.4284,-2.4284,-2.4266,-2.3675,-2.3323,-2.2953,-2.1586,-2.092,-2.0591,-1.9778,-1.9468,-1.9438,-1.9405,-1.9344,-1.9266,-1.9235,-1.92,-1.915,-1.9119,-1.907,-1.9002,-1.8896,-1.8843,-1.8806,-1.8696,-1.8584,-1.8524,-1.8445,-1.8322,-1.8134,-1.7922,-1.7681,-1.7432,-1.7224,-1.749,-1.7925,-1.8566,0.0,0.0,0.0,-1.9508,-1.9124,-1.8731,-1.8266,-1.7828,-1.7434,-1.7102,-1.6735,-1.6362,0.0,0.0,0.0,0.0,0.0,0.0,0.0,0.0,0.0,-1.186,-1.1383,-1.0891,-1.0891,-1.0891,-1.0891,-1.0891,-1.0968,-1.1172,-1.2253,-1.2827,-1.3083,-1.4283,-1.4857,-1.5051,-1.5289,-1.5513,-1.5736,-1.5869,-1.6132,-1.6517,-3.4768,-3.4788,-3.4868,-3.5057,-3.3705,-3.2635,-3.2676,-3.1288,-3.0207,-3.0188,-3.0266,-3.0337,-3.0398,-3.0398,-3.0021,-2.9078,-2.826,-2.7412,-2.6491,-2.5602,-2.5126,0.0,0.0,-2.746,-2.732,-2.8942,-2.9737,-2.9607,0.0,0.0,-2.8146,0.0,-2.5579,-2.5542,-2.4691,-2.4284,-2.4284,-2.4284,-2.4284,-2.4284,-2.4284,-2.3804,-2.3009,-2.2196,-2.1401,-2.0591,-1.9778,-1.9501,-1.9501,-1.9405,-1.939,-1.9375,-1.9332,-1.9301,-1.9266,-1.9132,-1.9084,-1.9087,-1.9019,-1.8949,-1.8878,-1.8806,-1.8696,-1.8584,-1.8505,-1.8348,-1.8125,-1.7856,-1.7749,-1.7641,-1.7432,-1.724,-1.7497,-1.8703,0.0,0.0,0.0,-1.9854,-1.953,-1.9139,-1.8745,-1.8305,-1.7828,-1.7543,-1.7183,-1.6723,0.0,0.0,0.0,0.0,0.0,-1.3718,-1.3696,0.0,-1.1732,-1.1682,-1.1423,-1.0891,-1.0891,-1.0891,-1.0891,-1.0891,-1.0968,-1.1172,-1.216,-1.2732,-1.3083,-1.4182,-1.4697,-1.4903,-1.5051,-1.5289,-1.5513,-1.5748,-1.5869,-1.6162,-3.4708,-3.4827,-3.4888,-3.4964,-3.3615,-3.2564,-3.2626,-3.124,-3.0213,-3.0207,-3.0266,-3.0312,-3.0337,-3.0318,-2.9761,0.0,-2.7922,-2.7113,0.0,-2.5271,-2.5336,-2.5901,-2.6925,-2.7725,-2.8169,-2.9261,-2.9755,-2.9683,0.0,0.0,0.0,-2.7008,-2.6191,-2.5634,-2.48,-2.4447,-2.4447,-2.4447,-2.4447,-2.4447,-2.4447,-2.428,-2.3946,-2.3095,-2.2298,-2.1483,-2.0685,-2.0008,-1.9501,-1.9487,-1.9405,-1.9323,-1.9308,-1.9295,-1.9282,-1.92,-1.9134,-1.9084,-1.9018,-1.8949,-1.8878,-1.8861,-1.877,-1.8659,-1.8584,-1.8371,-1.8184,-1.8091,-1.7917,-1.7726,-1.7566,-1.7408,-1.7691,-1.8905,-1.893,0.0,-2.0224,0.0,-1.9818,-1.942,-1.9087,-1.8745,-1.8305,-1.7922,0.0,0.0,0.0,0.0,0.0,0.0,0.0,0.0,-1.3198,0.0,-1.2052,-1.1556,-1.1218,-1.1044,-1.093,-1.0891,-1.0891,-1.0891,-1.093,-1.0999,-1.1741,-1.2308,-1.2786,-1.363,-1.426,-1.4697,-1.4971,-1.5153,-1.5289,-1.5614,-1.5792,-1.5953,-3.4645,-3.4727,-3.479,-3.4851,-3.3543,-3.2495,-3.2561,-3.12,-3.0157,-3.0152,-3.0199,-3.0213,-3.0213,-3.0213,0.0,-2.837,-2.7917,-2.7127,-2.5738,-2.5602,-2.5748,-2.6227,-2.7352,-2.813,-2.8548,-2.9339,0.0,-2.9645,-2.9531,-2.9152,-2.857,-2.7752,-2.6935,-2.6117,-2.5317,-2.4778,-2.45,-2.45,-2.45,-2.45,-2.45,-2.4482,-2.4372,-2.352,-2.2873,-2.2319,-2.1504,-2.0659,-1.9944,-1.9911,-1.9663,-1.9323,-1.9305,-1.9311,-1.9301,-1.9219,-1.9184,-1.9117,-1.907,-1.8966,-1.8895,-1.8896,-1.8789,-1.8678,-1.8584,-1.8391,-1.8225,-1.8194,-1.8044,-1.7833,-1.7704,-1.7759,-1.817,-1.9109,-1.9373,-1.9713,-2.0505,0.0,-2.01,-1.9726,0.0,0.0,0.0,-1.8319,-1.7922,0.0,0.0,0.0,0.0,0.0,0.0,-1.3905,-1.2941,0.0,-1.1948,-1.1448,-1.1158,-1.1092,-1.0968,-1.0891,-1.0891,-1.0891,-1.0891,-1.095,-1.1554,-1.2087,-1.2637,-1.3325,-1.3992,-1.4627,-1.4903,-1.5028,-1.5153,-1.5435,-1.5626,-1.584,-3.4539,-3.4583,-3.4647,0.0,-3.345,0.0,-3.2477,-3.1121,-3.0087,-3.0087,-3.0087,-3.0087,-3.0102,-3.0102,-2.9827,-2.9123,0.0,0.0,0.0,-2.6428,-2.6393,-2.6365,-2.7862,-2.865,-2.8589,-2.9323,-2.9664,-2.9588,-2.9453,-2.939,-2.9368,-2.8494,-2.7659,-2.6841,-2.6043,-2.5244,-2.4482,-2.4482,-2.4482,-2.4482,-2.4482,-2.4447,-2.4301,-2.3561,-2.3194,-2.2993,-2.2255,-2.1461,-2.0776,-2.071,-2.016,-1.9482,-1.9396,-1.9332,-1.9301,-1.9219,-1.9202,-1.9168,-1.912,-1.8983,-1.8895,-1.8895,-1.8789,-1.8659,-1.8544,-1.8408,-1.8287,-1.8215,-1.8108,-1.7978,-1.7901,-1.8272,-1.8792,-1.9378,-1.9939,-2.041,-2.0765,-2.0662,-2.0392,0.0,0.0,0.0,0.0,-1.8721,-1.8344,0.0,0.0,0.0,0.0,0.0,-1.4373,-1.3085,-1.285,-1.237,-1.1522,-1.1459,-1.1309,-1.1092,-1.0968,-1.0891,-1.0891,-1.0891,-1.0891,-1.095,-1.1473,-1.2056,-1.2637,-1.3216,-1.388,-1.4581,-1.473,-1.4903,-1.5108,-1.521,-1.5447,-1.5671,0.0,0.0,-3.4604,-3.4647,-3.3353,-3.2336,-3.2409,-3.1025,-2.9978,-3.0022,-3.0022,-3.0038,-3.0087,-3.0053,-2.9962,-2.9783,-2.9017,-2.8179,-2.738,-2.7215,-2.7422,-2.807,-2.8442,-2.8866,-2.9401,-2.9588,-2.9608,-2.9433,-2.9412,-2.937,-2.9304,-2.8433,-2.7579,-2.6706,-2.5911,-2.5097,-2.4358,-2.4358,-2.4358,-2.4358,-2.4358,-2.4339,-2.4284,-2.41,-2.3656,-2.3085,-2.2882,-2.2256,-2.1539,-2.1504,-2.0954,-2.0244,-2.0211,-1.9792,-1.9301,-1.9219,-1.915,-1.9117,-1.9104,-1.8983,-1.8895,-1.8895,-1.8753,-1.8622,-1.8584,-1.843,-1.829,-1.8287,-1.8159,-1.8198,-1.8625,-1.8745,-1.911,-2.0196,-2.0361,-2.0483,-2.1039,-2.0893,-2.0628,0.0,-2.0045,-1.9741,-1.9339,-1.9055,-1.8697,0.0,0.0,0.0,0.0,-1.4878,-1.4088,-1.3392,-1.2716,-1.2155,-1.1811,-1.1586,-1.1346,-1.1092,-1.0968,-1.0891,-1.0891,-1.0891,-1.0891,-1.0891,-1.1033,-1.169,-1.2605,-1.2765,-1.3476,-1.4477,-1.4581,-1.473,-1.4903,-1.5074,-1.5255,-1.5447,-3.4269,-3.4381,-3.445,-3.4495,-3.3529,-3.2653,-3.2297,-3.1186,-3.0277,-2.9948,-2.991,-2.9926,-2.9959,-2.9926,-2.991,-2.991,-2.9181,-2.8514,-2.8097,-2.7998,-2.8124,-2.8544,-2.8907,-2.9268,-2.9608,-2.9626,-2.9531,-2.9353,-2.933,-2.9286,-2.9243,-2.8759,-2.7888,-2.6685,-2.6242,-2.5411,-2.4284,-2.4284,-2.4284,-2.4284,-2.4284,-2.4284,-2.4266,-2.4266,-2.3989,-2.3603,-2.3603,-2.3033,-2.2299,-2.2299,-2.1714,-2.1002,-2.1003,-2.0676,-2.0313,-2.026,-1.9697,-1.9099,-1.9052,-1.8966,-1.8895,-1.8825,-1.8698,-1.8603,-1.8601,-1.8448,-1.829,-1.829,-1.846,-1.8687,-1.8984,-1.951,-2.0084,-2.0655,-2.0883,-2.1038,-2.1214,-2.1071,0.0,-2.0561,-2.0304,-1.999,-1.9617,-1.9339,-1.8887,-1.8182,-1.7232,0.0,-1.5434,-1.4497,-1.3778,-1.3241,-1.2699,-1.2294,-1.1993,-1.1649,-1.1384,-1.1092,-1.1016,-1.0968,-1.0891,-1.0891,-1.0891,-1.0891,-1.0891,-1.1556,-1.2595,-1.2595,-1.3324,-1.4419,-1.4534,-1.4684,-1.4822,-1.4971,-1.5108,-1.5347,-3.4124,-3.4173,-3.4221,-3.434,-3.3732,-3.305,-3.2362,-3.1523,-3.0716,-3.0037,-2.9848,-2.9773,-2.979,-2.9773,-2.9773,-2.9773,-2.9147,-2.873,-2.8763,-2.877,-2.8684,-2.8595,-2.9289,-2.9626,-2.9472,-2.9453,-2.9412,-2.9272,-2.9225,-2.9178,-2.9178,-2.9156,-2.8344,-2.6847,-2.6718,-2.5814,-2.4432,-2.4303,-2.4247,-2.4247,-2.4247,-2.4229,-2.4173,-2.4173,-2.4172,-2.417,-2.417,-2.3692,-2.3069,-2.3069,-2.2483,-2.179,-2.1771,-2.1643,-2.1479,-2.1479,-2.0499,-1.9412,-1.9379,-1.9219,-1.9058,-1.9054,-1.8926,-1.8796,-1.8915,-1.8796,-1.8638,-1.8638,-1.9031,-1.9396,-1.944,-2.0416,-2.114,-2.0994,-2.1441,-2.1691,-2.1388,0.0,-2.1038,-2.0744,-2.0509,-2.0185,-1.9874,-1.9617,-1.9024,-1.8007,-1.7057,-1.6076,-1.5148,-1.4265,-1.356,-1.3,-1.2838,-1.252,-1.2113,-1.1697,-1.1384,-1.1168,-1.113,-1.1044,-1.093,-1.093,-1.0891,-1.0891,-1.0953,-1.1609,-1.2605,-1.268,-1.34,-1.4419,-1.4534,-1.4627,-1.4776,-1.4834,-1.5017,-1.5325,-3.3921,-3.4049,-3.4124,-3.4148,-3.3571,-3.3105,-3.2956,-3.1696,-3.071,-3.0657,-3.0039,-2.9645,-2.9701,-2.9664,-2.9626,-2.9626,-2.9476,-2.9401,-2.951,-2.9476,-2.9439,-2.9401,-2.9475,-2.9472,-2.9334,-2.9267,-2.9243,-2.9222,-2.92,-2.9156,-2.9112,-2.9062,-2.8503,-2.75,-2.6783,-2.5938,-2.5022,-2.4328,-2.4056,-2.4056,-2.4056,-2.4036,-2.4036,-2.4036,-2.4036,-2.4016,-2.4016,-2.3943,-2.3833,-2.3833,-2.3285,-2.259,-2.2495,-2.1966,-2.1404,-2.1344,-2.1162,-2.0964,-2.1021,-2.0441,-1.9966,-2.0583,-2.0109,-1.9709,-2.0396,-2.0407,-2.0239,-2.0239,-2.0229,-2.0381,-2.0926,-2.1113,-2.1346,-2.1759,-2.1803,-2.1738,-2.1589,0.0,-2.1183,-2.0909,-2.0613,-2.0323,-1.999,-1.9777,-1.9241,-1.8237,-1.7389,-1.6471,-1.5482,-1.4499,-1.3815,-1.3412,-1.3069,-1.2615,-1.2113,-1.1697,-1.1485,-1.1459,-1.1195,-1.1092,-1.1054,-1.0968,-1.0891,-1.0902,-1.1313,-1.1891,-1.2627,-1.3031,-1.3656,-1.4373,-1.443,-1.4523,-1.4638,-1.4776,-1.4891,-1.5074,-3.378,-3.3842,-3.3895,-3.3972,-3.3753,-3.3414,-3.3035,-3.2358,-3.1563,-3.0754,-3.0327,-2.9917,-2.9528,-2.9453,-2.9433,-2.9433,-2.9411,-2.9411,-2.9472,-2.9491,-2.9491,-2.9453,-2.9411,-2.9349,-2.9246,-2.9156,-2.9089,-2.9089,-2.9021,-2.8975,-2.8929,-2.8923,-2.8461,-2.7634,-2.7246,-2.6366,-2.5181,-2.4798,-2.4397,-2.3996,-2.3996,-2.3996,-2.3996,-2.3996,-2.3996,-2.3996,-2.3976,-2.3917,-2.3896,-2.3894,-2.3617,-2.3268,-2.3205,-2.2953,-2.2625,-2.2602,-2.1947,-2.1263,-2.1243,-2.0914,-2.0655,-2.0944,-2.0686,-2.0428,-2.0714,-2.0695,-2.0582,-2.0558,-2.0787,-2.1078,-2.1353,-2.1649,-2.1881,-2.1977,-2.194,0.0,0.0,-2.1481,-2.1277,-2.1038,-2.0777,-2.0509,-2.025,-1.9955,-1.9235,-1.79,-1.7325,-1.6465,-1.5175,-1.452,-1.4046,-1.3769,-1.3138,-1.2627,-1.2258,-1.1979,-1.1697,-1.1485,-1.1373,-1.1271,-1.1158,-1.1082,-1.1071,-1.1103,-1.1583,-1.2128,-1.2722,-1.3204,-1.3811,-1.4373,-1.4373,-1.4477,-1.4627,-1.4684,-1.48,-1.5017,-3.3577,-3.3615,-3.3671,-3.3807,-3.3815,-3.3666,-3.316,-3.2945,-3.2397,-3.1172,-3.0857,-3.0435,-2.9641,-2.9548,-2.9474,-2.9267,-2.9243,-2.9259,-2.9218,-2.9246,-2.927,-2.9291,-2.9243,-2.9197,-2.9134,-2.8998,-2.8947,-2.8947,-2.8834,-2.8785,-2.8785,-2.8761,-2.8409,-2.7791,-2.7585,-2.6822,-2.5637,-2.5477,-2.4932,-2.4187,-2.4187,-2.4078,-2.3935,-2.3935,-2.3935,-2.3915,-2.3855,-2.3813,-2.3771,-2.3786,-2.3721,-2.3656,-2.3656,-2.3634,-2.3634,-2.3611,-2.2708,-2.1676,-2.1633,-2.1466,-2.1352,-2.1401,-2.1268,-2.1158,-2.1202,-2.1167,-2.1097,-2.1049,-2.1411,-2.1739,-2.1678,-2.2058,-2.2304,-2.2027,0.0,0.0,0.0,-2.1511,-2.134,-2.1135,-2.0892,-2.0644,-2.0423,-2.0096,-1.9241,-1.7673,-1.7253,-1.6436,-1.4927,-1.4543,-1.4241,-1.3967,-1.3173,-1.2662,-1.2484,-1.2222,-1.1943,-1.1623,-1.156,-1.141,-1.126,-1.1223,-1.1185,-1.1217,-1.1808,-1.2347,-1.2828,-1.341,-1.3965,-1.4373,-1.4373,-1.4477,-1.4581,-1.4581,-1.4775,-1.5127,-3.3322,-3.3422,-3.3538,-3.352,-3.3615,-3.3707,-3.3652,-3.3065,-3.2585,-3.2551,-3.1888,-3.1138,-3.0397,-3.0323,-2.9986,-2.9185,-2.9112,-2.9085,-2.904,-2.8975,-2.9021,-2.92,-2.9108,-2.8975,-2.8929,-2.8858,-2.881,-2.881,-2.881,-2.8761,-2.8712,-2.8637,-2.8551,-2.841,-2.7594,-2.7148,-2.6986,-2.6249,-2.5476,-2.4739,-2.4739,-2.4329,-2.3721,-2.3721,-2.3721,-2.3721,-2.3721,-2.3721,-2.3721,-2.37,-2.3674,-2.3585,-2.3539,-2.3453,-2.3407,-2.3336,-2.3224,-2.3136,-2.3136,-2.2599,-2.2159,-2.2792,-2.2369,-2.1989,-2.2613,-2.2694,-2.2643,-2.2643,-2.2565,-2.251,-2.2429,-2.2398,-2.2304,-2.2027,0.0,0.0,-2.1634,-2.1589,-2.1466,-2.1135,-2.0974,-2.0745,-2.0423,-2.0185,-1.9448,-1.7885,-1.7515,-1.6666,-1.5084,-1.4658,-1.4292,-1.3808,-1.322,-1.2838,-1.2674,-1.2294,-1.2077,-1.2041,-1.1697,-1.1485,-1.1485,-1.1298,-1.1185,-1.1238,-1.2159,-1.2658,-1.285,-1.3801,-1.4247,-1.4373,-1.4373,-1.443,-1.443,-1.4523,-1.4868,-1.5381,-3.3198,-3.3135,-3.3244,-3.3334,-3.3422,-3.3481,-3.3509,-3.3322,-3.2995,-3.2502,-3.2227,-3.1759,-3.0961,-3.0455,-3.0033,-2.9698,-2.9198,-2.8905,-2.8876,-2.881,-2.8834,-2.8952,-2.8905,-2.8834,-2.8785,-2.8712,-2.8662,-2.8594,-2.8562,-2.8536,-2.851,-2.8484,-2.8458,-2.8414,-2.8101,-2.7661,-2.7176,-2.6871,-2.6278,-2.5542,-2.5494,-2.5315,-2.5064,-2.5016,-2.4992,-2.4939,-2.4432,-2.4254,-2.4182,-2.3636,-2.343,-2.3407,-2.3383,-2.3336,-2.3265,-2.3144,-2.3102,-2.3102,-2.3052,-2.2884,-2.2751,-2.2933,-2.2743,-2.2596,-2.2798,-2.279,-2.2738,-2.2685,-2.2569,-2.246,-2.2432,-2.2366,-2.2209,-2.2027,0.0,-2.1869,-2.165,-2.1589,-2.1466,-2.1135,-2.099,-2.0778,-2.0494,-2.0254,-1.9665,-1.8552,-1.7804,-1.6921,-1.5797,-1.4928,-1.4273,-1.3947,-1.3514,-1.3138,-1.2838,-1.2591,-1.2341,-1.2113,-1.1943,-1.1771,-1.1608,-1.1533,-1.1611,-1.1865,-1.2483,-1.2989,-1.3412,-1.4065,-1.4373,-1.4373,-1.4373,-1.4373,-1.4463,-1.477,-1.5059,-1.5432,-3.3333,-3.3062,-3.2965,-3.3109,-3.317,-3.3232,-3.3274,-3.3316,-3.3176,-3.2697,-3.2635,-3.2383,-3.1592,-3.101,-3.0574,-3.0311,-2.9548,-2.9069,-2.9043,-2.8764,-2.8637,-2.8712,-2.8712,-2.8687,-2.8612,-2.8562,-2.851,-2.8458,-2.838,-2.8345,-2.8318,-2.8318,-2.8273,-2.8273,-2.8273,-2.7969,-2.7468,-2.7468,-2.6977,-2.6244,-2.6193,-2.6032,-2.5793,-2.5743,-2.5735,-2.5664,-2.508,-2.4878,-2.4789,-2.4184,-2.3957,-2.3932,-2.3932,-2.3864,-2.3806,-2.3685,-2.3659,-2.365,-2.3527,-2.3389,-2.3215,-2.292,-2.2842,-2.2816,-2.2738,-2.2659,-2.2605,-2.2579,-2.2487,-2.2377,-2.2366,-2.2282,-2.2168,-2.1969,-2.1911,-2.1827,-2.162,-2.1542,-2.1435,-2.1135,-2.1006,-2.086,-2.0527,-2.0323,-1.984,-1.8982,-1.8197,-1.7309,-1.6171,-1.5021,-1.4305,-1.4065,-1.3749,-1.3425,-1.3069,-1.2803,-1.2556,-1.2222,-1.215,-1.1979,-1.1767,-1.1875,-1.2042,-1.2283,-1.2899,-1.3368,-1.3729,-1.4187,-1.4373,-1.4373,-1.4373,-1.4373,-1.4439,-1.493,-1.5263,-1.5565,-3.3775,-3.3257,-3.2791,-3.2791,-3.2902,-3.2997,-3.2997,-3.3073,-3.3135,-3.3262,-3.331,-3.3015,-3.2306,-3.2198,-3.1862,-3.099,-3.0161,-2.9692,-2.9629,-2.8847,-2.845,-2.851,-2.851,-2.8484,-2.8398,-2.8398,-2.8353,-2.83,-2.83,-2.8219,-2.8099,-2.8099,-2.8071,-2.8014,-2.8014,-2.8014,-2.8014,-2.8014,-2.7525,-2.6817,-2.6817,-2.634,-2.5623,-2.5623,-2.5605,-2.5623,-2.5526,-2.55,-2.55,-2.5409,-2.5355,-2.53,-2.5317,-2.5244,-2.5188,-2.512,-2.5092,-2.5046,-2.4854,-2.4276,-2.3549,-2.2875,-2.2685,-2.2659,-2.2542,-2.2515,-2.2515,-2.2515,-2.2432,-2.2394,-2.231,-2.2225,-2.214,-2.1928,-2.184,-2.1738,-2.162,-2.1464,-2.1309,-2.1135,-2.1119,-2.0924,-2.0527,-2.0441,-2.0008,-1.9064,-1.8736,-1.7817,-1.599,-1.5021,-1.4433,-1.4216,-1.3954,-1.3687,-1.3404,-1.2955,-1.2627,-1.2508,-1.2222,-1.2052,-1.1904,-1.2246,-1.2429,-1.2445,-1.3313,-1.3696,-1.374,-1.4187,-1.4373,-1.4373,-1.4373,-1.4373,-1.4439,-1.493,-1.5421,-1.5851,-3.4368,-3.3669,-3.3178,-3.3335,-3.2962,-3.2657,-3.2705,-3.282,-3.2902,-3.2934,-3.2997,-3.2939,-3.2719,-3.2199,-3.1757,-3.1494,-3.0713,-3.0219,-3.016,-2.943,-2.8938,-2.8938,-2.8559,-2.83,-2.8209,-2.8182,-2.8154,-2.8081,-2.8081,-2.8053,-2.8042,-2.7922,-2.7893,-2.7864,-2.7806,-2.7806,-2.7806,-2.7806,-2.7666,-2.7425,-2.7385,-2.7216,-2.7005,-2.6947,-2.6918,-2.6848,-2.6289,-2.605,-2.5981,-2.539,-2.5177,-2.5149,-2.4971,-2.4959,-2.4901,-2.4842,-2.4812,-2.4812,-2.4692,-2.4492,-2.4164,-2.35,-2.2946,-2.2569,-2.2515,-2.2432,-2.2366,-2.2366,-2.2231,-2.2101,-2.2101,-2.2015,-2.1945,-2.1857,-2.1768,-2.1678,-2.1495,-2.1371,-2.1262,-2.1103,-2.1006,-2.0827,-2.0527,-2.0441,-2.0193,-1.9717,-1.8887,-1.787,-1.665,-1.6137,-1.5799,-1.5605,-1.5238,-1.4951,-1.4732,-1.3574,-1.2885,-1.2639,-1.2742,-1.2692,-1.2564,-1.2986,-1.3242,-1.3397,-1.3652,-1.3938,-1.4187,-1.4318,-1.4373,-1.4373,-1.4373,-1.4591,-1.4952,-1.5443,-1.5913,-1.6383,-3.4849,-3.4158,-3.3694,-3.3822,-3.3283,-3.2827,-3.2878,-3.2717,-3.259,-3.259,-3.2639,-3.2672,-3.2672,-3.2231,-3.1948,-3.1948,-3.1225,-3.0623,-3.0274,-2.9783,-2.9488,-2.9427,-2.9107,-2.8617,-2.8014,-2.7996,-2.794,-2.7824,-2.7824,-2.7824,-2.7795,-2.7719,-2.7689,-2.7689,-2.7659,-2.76,-2.76,-2.76,-2.7552,-2.7491,-2.7448,-2.7448,-2.7448,-2.7386,-2.7386,-2.7317,-2.6818,-2.6615,-2.6545,-2.604,-2.5842,-2.5781,-2.5672,-2.5593,-2.553,-2.5484,-2.5452,-2.5421,-2.5374,-2.5122,-2.4768,-2.4374,-2.3727,-2.3214,-2.3185,-2.3097,-2.3038,-2.3038,-2.2962,-2.2839,-2.2795,-2.2781,-2.259,-2.217,-2.2075,-2.1853,-2.1435,-2.1309,-2.1199,-2.1038,-2.0925,-2.0778,-2.0527,-2.0407,-2.0216,-1.9863,-1.8936,-1.8074,-1.7333,-1.6796,-1.6458,-1.6208,-1.5868,-1.5573,-1.5297,-1.4359,-1.3704,-1.3373,-1.3498,-1.3459,-1.3196,-1.3643,-1.3905,-1.396,-1.4072,-1.4236,-1.4477,-1.443,-1.4373,-1.4395,-1.4591,-1.4843,-1.5192,-1.5858,-1.6284,-1.659,-3.5218,-3.4737,-3.4259,-3.4259,-3.3755,-3.3382,-3.3365,-3.2791,-3.2354,-3.2354,-3.2301,-3.2283,-3.2283,-3.2283,-3.2283,-3.2283,-3.1687,-3.0986,-3.0249,-3.0094,-3.0044,-2.9964,-2.9911,-2.926,-2.7959,-2.79,-2.7789,-2.7587,-2.7587,-2.7557,-2.7465,-2.7465,-2.7465,-2.7465,-2.7465,-2.7434,-2.7373,-2.7373,-2.7293,-2.7181,-2.7198,-2.7181,-2.7181,-2.7149,-2.7149,-2.7149,-2.7103,-2.7053,-2.7053,-2.7007,-2.6926,-2.6859,-2.6859,-2.6759,-2.6674,-2.6589,-2.6572,-2.6554,-2.6485,-2.5914,-2.538,-2.5346,-2.4879,-2.4408,-2.4227,-2.4161,-2.4161,-2.4161,-2.4161,-2.4114,-2.4,-2.3968,-2.3671,-2.2818,-2.2622,-2.2281,-2.1471,-2.1327,-2.1167,-2.0909,-2.0811,-2.0695,-2.0527,-2.0373,-2.0111,-1.9611,-1.8954,-1.8387,-1.8014,-1.722,-1.6661,-1.6409,-1.6116,-1.5806,-1.5504,-1.5287,-1.4926,-1.4396,-1.4377,-1.4201,-1.3901,-1.4309,-1.4399,-1.4279,-1.4518,-1.4627,-1.4581,-1.4477,-1.4419,-1.4474,-1.4919,-1.5137,-1.5279,-1.6186,-1.6546,-1.6645,-3.565,-3.5181,-3.4751,-3.4809,-3.4255,-3.3795,-3.3839,-3.3222,-3.2795,-3.2832,-3.2348,-3.202,-3.2144,-3.2144,-3.2144,-3.2144,-3.2004,-3.183,-3.1655,-3.0994,-3.0612,-3.0612,-2.9972,-2.9402,-2.8989,-2.863,-2.8101,-2.7434,-2.7434,-2.7386,-2.7244,-2.723,-2.7198,-2.7198,-2.712,-2.7105,-2.7072,-2.7072,-2.7072,-2.704,-2.6975,-2.6975,-2.6942,-2.6842,-2.6825,-2.6791,-2.6791,-2.6791,-2.6775,-2.6708,-2.6657,-2.6589,-2.6589,-2.6554,-2.6503,-2.6417,-2.6365,-2.6347,-2.617,-2.5966,-2.5851,-2.5796,-2.5681,-2.5287,-2.4347,-2.4016,-2.3885,-2.3885,-2.3836,-2.3802,-2.3769,-2.3786,-2.3653,-2.327,-2.3219,-2.2909,-2.205,-2.1869,-2.1561,-2.089,-2.0777,-2.0644,-2.0441,-2.0216,-1.9935,-1.9611,-1.9368,-1.9009,-1.8622,-1.8295,-1.7995,-1.7749,-1.7343,-1.7076,-1.694,-1.6641,-1.5825,-1.4551,-1.4764,-1.475,-1.451,-1.4905,-1.4959,-1.4756,-1.4824,-1.4743,-1.4581,-1.4581,-1.4477,-1.4474,-1.4919,-1.5334,-1.5749,-1.6306,-1.6776,-1.7125,-3.5549,-3.5318,-3.5135,-3.5162,-3.461,-3.4218,-3.4326,-3.3699,-3.3225,-3.3321,-3.2706,-3.228,-3.2317,-3.2007,-3.18,-3.18,-3.18,-3.18,-3.18,-3.1401,-3.1141,-3.1141,-3.0636,-3.017,-2.9721,-2.9435,-2.8922,-2.825,-2.825,-2.8217,-2.8134,-2.8049,-2.7828,-2.7436,-2.7386,-2.7165,-2.6809,-2.6809,-2.6775,-2.6759,-2.6725,-2.6725,-2.6691,-2.6623,-2.6572,-2.6521,-2.6521,-2.6504,-2.6469,-2.6417,-2.6364,-2.6258,-2.6258,-2.6222,-2.6187,-2.6134,-2.6118,-2.6046,-2.5901,-2.5864,-2.5864,-2.577,-2.5696,-2.5538,-2.5071,-2.4855,-2.4786,-2.4699,-2.4699,-2.4612,-2.4522,-2.4522,-2.4337,-2.3871,-2.3787,-2.3474,-2.2595,-2.2429,-2.2106,-2.1292,-2.1095,-2.0833,-2.0281,-1.999,-1.9777,-1.9538,-1.9339,-1.9101,-1.8822,-1.8567,-1.8347,-1.8189,-1.7733,-1.7447,-1.7404,-1.7057,-1.6414,-1.5517,-1.555,-1.5428,-1.5168,-1.5318,-1.5289,-1.5062,-1.496,-1.4834,-1.4673,-1.4627,-1.4667,-1.4777,-1.5269,-1.5749,-1.6166,-1.671,-1.6983,-1.7145,-3.5198,-3.5258,-3.5333,-3.5333,-3.4936,-3.4638,-3.4786,-3.4109,-3.3643,-3.3785,-3.3179,-3.2719,-3.2719,-3.2071,-3.1577,-3.144,-3.144,-3.144,-3.144,-3.144,-3.1385,-3.1385,-3.1291,-3.0946,-3.0336,-3.0205,-2.9803,-2.914,-2.914,-2.9085,-2.8994,-2.8994,-2.8619,-2.7904,-2.7904,-2.7549,-2.6889,-2.6889,-2.6853,-2.6799,-2.6799,-2.6799,-2.6799,-2.6783,-2.6695,-2.659,-2.659,-2.6554,-2.6498,-2.6498,-2.6389,-2.6315,-2.6278,-2.6258,-2.6183,-2.6183,-2.6183,-2.6145,-2.6037,-2.5902,-2.5767,-2.5745,-2.5551,-2.5416,-2.5696,-2.577,-2.577,-2.5626,-2.5626,-2.5589,-2.5416,-2.5378,-2.5109,-2.4457,-2.434,-2.3988,-2.3159,-2.3028,-2.2703,-2.1833,-2.1492,-2.1003,-2.0197,-1.9873,-1.9617,-1.9413,-1.9213,-1.9026,-1.8822,-1.8461,-1.8279,-1.8202,-1.7733,-1.7488,-1.7432,-1.7086,-1.6791,-1.6522,-1.6318,-1.6025,-1.5715,-1.5558,-1.5435,-1.5312,-1.5051,-1.4891,-1.4787,-1.4762,-1.4887,-1.5159,-1.5727,-1.6186,-1.6579,-1.7082,-1.7145,-1.6955,-3.4804,-3.4899,-3.4977,-3.5135,-3.5052,-3.5048,-3.5186,-3.4583,-3.4124,-3.4196,-3.3583,-3.3153,-3.3195,-3.2594,-3.1958,-3.1297,-3.123,-3.123,-3.123,-3.1151,-3.1055,-3.1055,-3.0975,-3.0902,-3.0801,-3.0664,-3.0034,-2.8848,-2.8848,-2.8811,-2.8661,-2.8661,-2.8557,-2.8398,-2.8398,-2.8272,-2.8058,-2.8058,-2.8058,-2.8058,-2.7998,-2.796,-2.796,-2.7849,-2.7794,-2.7755,-2.7755,-2.7755,-2.7755,-2.7637,-2.7557,-2.7574,-2.7486,-2.7462,-2.7405,-2.7308,-2.7292,-2.7267,-2.7201,-2.6695,-2.623,-2.619,-2.5687,-2.513,-2.5185,-2.5317,-2.5371,-2.5355,-2.5355,-2.5371,-2.5333,-2.524,-2.5075,-2.4918,-2.48,-2.443,-2.3608,-2.3514,-2.3188,-2.2308,-2.1506,-2.0925,-2.0625,-2.007,-1.9581,-1.9339,-1.9176,-1.9026,-1.8822,-1.8461,-1.8279,-1.8202,-1.7733,-1.7475,-1.7488,-1.7086,-1.6791,-1.6522,-1.6318,-1.6057,-1.5792,-1.5603,-1.5435,-1.5312,-1.5153,-1.4983,-1.4821,-1.5224,-1.5282,-1.5192,-1.6077,-1.6459,-1.6525,-1.6894,-1.6965,-1.6807,-3.4497,-3.4594,-3.4707,-3.4739,-3.4739,-3.4787,-3.4947,-3.4681,-3.4529,-3.4635,-3.4001,-3.3551,-3.3595,-3.2577,-3.1801,-3.1466,-3.1065,-3.0814,-3.0814,-3.0773,-3.0733,-3.0733,-3.0667,-3.0626,-3.0626,-3.0485,-3.0129,-2.9566,-2.9686,-2.9686,-2.9606,-2.9606,-2.935,-2.8834,-2.8834,-2.8563,-2.8145,-2.805,-2.801,-2.8027,-2.7939,-2.7899,-2.7899,-2.7843,-2.7802,-2.7705,-2.7664,-2.7664,-2.7664,-2.7598,-2.7598,-2.7557,-2.7531,-2.749,-2.7406,-2.7364,-2.7264,-2.7206,-2.7063,-2.6841,-2.6577,-2.6509,-2.6246,-2.601,-2.601,-2.6026,-2.5888,-2.5179,-2.5021,-2.5021,-2.4926,-2.4871,-2.4831,-2.4791,-2.4701,-2.4471,-2.4064,-2.3937,-2.3569,-2.2806,-2.187,-2.1308,-2.1192,-2.0783,-2.0318,-1.9812,-1.9575,-1.9223,-1.8673,-1.8372,-1.8189,-1.8043,-1.7693,-1.7434,-1.7323,-1.7044,-1.6791,-1.6522,-1.6318,-1.6069,-1.5792,-1.5603,-1.5468,-1.5402,-1.5522,-1.5415,-1.5213,-1.5695,-1.5903,-1.5935,-1.6361,-1.6623,-1.6775,-1.689,-1.6797,-1.6736]}]]